     2              OBSERVATION DATA    GPS                 RINEX VERSION / TYPE
FIC2RX 9.60 97/08/04                                        PGM / RUN BY / DATE
                                                            COMMENT
Operator input collection int (sec) 30.0000                 COMMENT
Operator input collection int (sec) 30.0000                 COMMENT
Operator input collection int (sec) 30.0000                 COMMENT
Operator input collection int (sec) 30.0000                 COMMENT
Original Marker Name: L589                                  COMMENT
Campaign Name: STRC 1988 University                         COMMENT
4-Character Station Name: L589                              COMMENT
6-Character Antenna Code: TI4100                            COMMENT
Vertical Measurement Point: PAE                             COMMENT
Vertical Offset to Rinex Ref. Point: 0.0000                 COMMENT
Radial Measurement Point: PAE                               COMMENT
Radial Offset to Rinex Ref. Point: 0.0842                   COMMENT
Antenna Height from Field Measurement: 1.0635 m             COMMENT
Original XYZ: 0.0000 0.0000 0.0000                          COMMENT
New XYZ position is based on association with SCEC monument COMMENT
E1C8Y1T1+0011. Position of that monument is believed to be  COMMENT
valid to within 1 m horizontally; vertical accuracy         COMMENT
should be no worse than 3-times this value.                 COMMENT
                                                            COMMENT
Revised Rinex header created by UCSD GPS archive for        COMMENT
GSAC on 10-Apr-1999 (1999:100) 07:36:30 GMT                 COMMENT
For assistance contact dagnew@ucsd.edu or hjohnson@ucsd.edu COMMENT
                                                            COMMENT
L589                                                        MARKER NAME
RR MASS INST. OF TECHNOLOGY                                 OBSERVER / AGENCY
UNO1 TI 4100 GES 1.50                                       REC # / TYPE / VERS
TI4100 TI 4100                                              ANT # / TYPE
 -2328467.0000 -4825011.0000  3449366.0000                  APPROX POSITION XYZ
        1.0602        0.0000        0.0000                  ANTENNA: DELTA H/E/N
     1     1     0                                          WAVELENGTH FACT L1/2
     4    L1    L2    P1    P2                              # / TYPES OF OBSERV
    30                                                      INTERVAL
  1988     2    24     5     3   59.000000                  TIME OF FIRST OBS
  1988     2    24    12    15   59.000000                  TIME OF LAST OBS
     7                                                      # OF SATELLITES
           6   385   385   385   385                        PRN / # OF OBS
           8   289   289   289   289                        PRN / # OF OBS
          11   560   560   560   560                        PRN / # OF OBS
           9   631   631   631   631                        PRN / # OF OBS
          13   576   576   576   576                        PRN / # OF OBS
           3   480   480   480   480                        PRN / # OF OBS
                                                            END OF HEADER
 88  2 24  5  3 59.0800000  0  2  6  8
         -.362 7         -.280 7  21753967.262 0  21753967.920 0
          .326 7         -.270 6  20259774.424 0  20259774.161 0
 88  2 24  5  4 29.0800000  0  2  6  8
    -58089.202 7    -45264.304 7  21742913.268 0  21742913.918 0
    -36877.775 7    -28736.448 6  20252756.612 0  20252757.421 0
 88  2 24  5  4 59.0800000  0  2  6  8
   -116049.113 7    -90427.876 7  21731884.401 0  21731884.622 0
    -73078.466 7    -56944.766 5  20245867.928 0  20245867.656 0
 88  2 24  5  5 29.0800000  0  2  6  8
   -173878.436 8   -135489.693 6  21720879.923 0  21720880.189 0
   -108600.268 6    -84624.082 6  20239108.046 0  20239108.716 0
 88  2 24  5  5 59.0800000  0  2  6  8
   -231575.213 7   -180448.225 7  21709900.708 0  21709901.163 0
   -143442.248 7   -111773.660 6  20232477.306 0  20232478.446 0
 88  2 24  5  6 29.0800000  0  2  6  8
   -289137.562 8   -225302.004 7  21698946.615 0  21698946.835 0
   -177603.176 7   -138392.558 6  20225977.601 0  20225978.879 0
 88  2 24  5  6 59.0800000  0  2  6  8
   -346563.662 7   -270049.618 7  21688019.303 0  21688019.541 0
   -211082.235 6   -164480.140 6  20219606.212 0  20219607.649 0
 88  2 24  5  7 29.0800000  0  2  6  8
   -403851.639 8   -314689.602 6  21677117.427 0  21677117.785 0
   -243878.235 7   -190035.460 6  20213366.450 0  20213365.773 0
 88  2 24  5  7 59.0800000  0  2  6  8
   -460999.711 7   -359220.560 7  21666241.136 0  21666243.328 0
   -275990.578 7   -215058.060 6  20207255.173 0  20207255.475 0
 88  2 24  5  8 29.0800000  0  2  6  8
   -518005.841 7   -403640.912 7  21655393.795 0  21655393.861 0
   -307418.205 7   -239547.097 6  20201273.853 0  20201275.243 0
 88  2 24  5  8 59.0800000  0  2  6  8
   -574868.144 7   -447949.198 7  21644572.772 0  21644574.194 0
   -338160.185 7   -263501.893 6  20195424.291 0  20195424.978 0
 88  2 24  5  9 29.0800000  0  2  6  8
   -631584.690 7   -492143.897 7  21633780.648 0  21633780.530 0
   -368215.865 7   -286921.894 6  20189705.612 0  20189705.956 0
 88  2 24  5  9 59.0800000  0  2  6  8
   -688153.650 7   -536223.609 7  21623015.739 0  21623015.699 0
   -397584.279 7   -309806.376 6  20184117.336 0  20184118.104 0
 88  2 24  5 10 29.0800000  0  2  6  8
   -744572.976 7   -580186.710 6  21612280.491 0  21612278.991 0
   -426264.452 7   -332154.569 6  20178658.607 0  20178659.460 0
 88  2 24  5 10 59.0800000  0  2  6  8
   -800840.841 8   -624031.808 7  21601572.545 0  21601571.720 0
   -454255.732 7   -353965.925 6  20173331.740 0  20173332.737 0
 88  2 24  5 11 29.0800000  0  2  6  8
   -856955.222 7   -667757.310 7  21590894.032 0  21590894.537 0
   -481557.101 7   -375239.713 6  20168137.122 0  20168136.827 0
 88  2 24  5 11 59.0800000  0  2  6  8
   -912914.203 7   -711361.717 6  21580245.129 0  21580246.409 0
   -508168.336 7   -395975.739 6  20163073.029 0  20163073.427 0
 88  2 24  5 12 29.0800000  0  4  6  8 11  9
   -968715.689 7   -754843.385 7  21569627.597 0  21569628.453 0
   -534088.500 7   -416173.263 6  20158140.603 0  20158141.313 0
          .429 8          .000 1          .000 0          .000 0
         -.322 7          .000 1  23921050.466 0          .000 0
 88  2 24  5 12 59.0800000  0  4  6  8 11  9
  -1024357.779 7   -798200.847 7  21559038.843 0  21559039.299 0
   -559317.183 7   -435831.975 7  20153340.260 0  20153339.760 0
    -94097.796 7    148597.024 6  22380095.650 0  22380098.610 0
    -89659.596 7     85487.819 6  23904017.487 0  23904019.332 0
 88  2 24  5 13 29.0800000  0  4  6  8 11  9
  -1079838.386 7   -841432.476 7  21548481.074 0  21548481.384 0
   -583853.660 6   -454951.285 6  20148668.590 0  20148671.857 0
   -187852.884 7     75541.124 7  22362254.320 0  22362255.287 0
   -179367.582 6     15585.493 6  23886948.281 0  23886948.877 0
 88  2 24  5 13 59.0800000  0  4  6  8 11  9
  -1135155.695 7   -884536.875 7  21537955.378 0  21537956.156 0
   -607697.508 7   -473530.912 7  20144133.387 0  20144134.323 0
   -281263.544 7      2753.608 7  22344479.155 0  22344482.752 0
   -269123.741 7    -54354.408 6  23869868.648 0  23869868.137 0
 88  2 24  5 14 29.0800000  0  4  6  8 11  9
  -1190307.655 8   -927512.414 6  21527459.708 0  21527459.951 0
   -630848.312 7   -491570.480 6  20139728.324 0  20139728.550 0
   -374326.931 7    -69763.304 7  22326770.087 0  22326772.814 0
   -358927.035 6   -124331.009 7  23852779.209 0  23852779.360 0
 88  2 24  5 14 59.0800000  0  4  6  8 11  9
  -1245292.158 7   -970357.477 7  21516996.820 0  21516996.881 0
   -653305.554 7   -509069.615 6  20135454.845 0  20135454.863 0
   -467040.527 7   -142007.644 7  22309127.883 0  22309129.638 0
   -448776.269 7   -194343.390 7  23835681.375 0  23835682.662 0
 88  2 24  5 15 29.0800000  0  4  6  8 11  9
  -1300107.334 8  -1013070.604 7  21506565.483 0  21506566.416 0
   -675068.791 7   -526027.988 6  20131312.106 0  20131313.669 0
   -559401.827 7   -213977.488 7  22291552.125 0  22291553.926 0
   -538670.528 7   -264390.878 7  23818575.528 0  23818575.989 0
 88  2 24  5 15 59.0800000  0  4  6  8 11  9
  -1354751.109 7  -1055650.177 7  21496167.132 0  21496167.403 0
   -696137.617 7   -542445.243 6  20127302.677 0  20127305.032 0
   -651408.485 7   -285670.968 7  22274043.644 0  22274045.458 0
   -628608.589 7   -334472.489 7  23801459.682 0  23801460.603 0
 88  2 24  5 16 29.0800000  0  4  6  8 11  9
  -1409221.455 8  -1098094.602 6  21485801.759 0  21485801.690 0
   -716511.568 7   -558321.044 7  20123425.942 0  20123427.010 0
   -743057.619 7   -357085.880 6  22256601.666 0  22256605.750 0
   -718589.172 7   -404587.249 7  23784337.340 0  23784339.001 0
 88  2 24  5 16 59.0800000  0  4  6  8 11  9
  -1463516.291 7  -1140402.265 7  21475470.047 0  21475470.290 0
   -736190.333 7   -573655.130 6  20119681.469 0  20119682.682 0
   -834347.378 7   -428220.735 6  22239231.548 0  22239232.825 0
   -808611.145 7   -474734.242 7  23767207.274 0  23767207.177 0
 88  2 24  5 17 29.0800000  0  4  6  8 11  9
  -1517633.457 7  -1182571.486 7  21465171.541 0  21465172.160 0
   -755173.253 7   -588446.999 6  20116068.451 0  20116070.274 0
   -925274.654 7   -499073.159 7  22221928.192 0  22221930.625 0
   -898673.217 7   -544912.495 7  23750068.076 0  23750069.454 0
 88  2 24  5 17 59.0800000  0  4  6  8 11  9
  -1571571.066 7  -1224600.781 7  21454906.903 0  21454908.304 0
   -773460.168 7   -602696.530 6  20112588.331 0  20112590.022 0
  -1015837.152 7   -569641.323 6  22204694.584 0  22204696.439 0
   -988774.353 7   -615121.164 7  23732922.448 0  23732923.951 0
 88  2 24  5 18 29.0800000  0  4  6  8 11  9
  -1625326.970 7  -1266488.495 6  21444678.677 0  21444678.425 0
   -791051.298 7   -616403.900 6  20109241.432 0  20109242.606 0
  -1106032.603 7   -639923.484 7  22187530.680 0  22187532.391 0
  -1078913.446 7   -685359.409 7  23715769.048 0  23715770.860 0
 88  2 24  5 18 59.0800000  0  4  6  8 11  9
  -1678899.050 7  -1308232.986 7  21434483.811 0  21434485.125 0
   -807946.023 7   -629568.620 7  20106027.976 0  20106028.632 0
  -1195858.418 8   -709917.610 6  22170437.668 0  22170439.606 0
  -1169089.181 7   -755626.185 7  23698610.503 0  23698610.556 0
 88  2 24  5 19 29.0800000  0  4  6  8 11  9
  -1732285.272 7  -1349832.644 7  21424324.227 0  21424325.165 0
   -824144.328 6   -642190.668 6  20102944.962 0  20102945.675 0
  -1285312.175 7   -779621.830 7  22153415.396 0  22153416.621 0
  -1259300.053 7   -825920.365 7  23681443.309 0  23681443.649 0
 88  2 24  5 19 59.0800000  0  4  6  8 11  9
  -1785483.560 7  -1391285.853 7  21414201.447 0  21414202.282 0
   -839646.239 7   -654270.068 7  20099993.891 0  20099995.328 0
  -1374391.419 7   -849034.222 6  22136464.486 0  22136466.893 0
  -1349544.874 7   -896240.999 7  23664270.237 0  23664269.973 0
 88  2 24  5 20 29.0800000  0  4  6  8 11  9
  -1838491.734 7  -1432590.922 7  21404113.820 0  21404115.251 0
   -854451.432 6   -665806.568 7  20097176.425 0  20097178.983 0
  -1463093.628 8   -918152.812 7  22119585.117 0  22119585.901 0
  -1439822.588 7   -966587.266 7  23647090.972 0  23647092.360 0
 88  2 24  5 20 59.0800000  0  4  6  8 11  9
  -1891307.793 7  -1473746.290 7  21394063.185 0  21394063.897 0
   -868560.185 7   -676800.398 6  20094491.730 0  20094493.712 0
  -1551416.692 7   -986975.980 7  22102776.503 0  22102778.804 0
  -1530131.932 7  -1036958.167 7  23629905.710 0  23629906.606 0
 88  2 24  5 21 29.0800000  0  4  6  8 11  9
  -1943929.499 7  -1514750.211 7  21384050.195 0  21384050.521 0
   -881972.411 6   -687251.463 7  20091939.704 0  20091940.797 0
  -1639358.018 8  -1055501.674 7  22086042.264 0  22086044.636 0
  -1620471.438 7  -1107352.556 6  23612713.970 0  23612714.578 0
 88  2 24  5 21 59.0800000  0  4  6  8 11  9
  -1996354.715 7  -1555601.023 7  21374073.791 0  21374074.001 0
   -894687.773 7   -697159.535 7  20089519.640 0  20089522.188 0
  -1726915.347 7  -1123728.164 6  22069380.944 0  22069383.073 0
  -1710839.921 6  -1177769.530 7  23595519.309 0  23595517.759 0
 88  2 24  5 22 29.0800000  0  4  6  8 11  9
  -2048581.342 7  -1596297.100 7  21364136.200 0  21364135.842 0
   -906706.565 7   -706524.826 6  20087232.907 0  20087235.243 0
  -1814086.129 7  -1191653.460 6  22052792.749 0  22052794.607 0
  -1801235.923 7  -1248207.981 6  23578316.951 0  23578316.427 0
 88  2 24  5 22 59.0800000  0  4  6  8 11  9
  -2100607.235 8  -1636836.747 7  21354234.820 0  21354235.353 0
   -918028.486 7   -715347.095 6  20085077.899 0  20085080.140 0
  -1900868.325 7  -1259275.929 6  22036278.247 0  22036280.131 0
  -1891658.147 8  -1318666.859 6  23561110.435 0  23561109.260 0
 88  2 24  5 23 29.0800000  0  4  6  8 11  9
  -2152429.695 7  -1677217.894 7  21344374.624 0  21344374.251 0
   -928653.274 6   -723626.133 7  20083057.407 0  20083058.938 0
  -1987259.060 7  -1326593.374 6  22019838.748 0  22019841.802 0
  -1982105.052 6  -1389144.964 7  23543897.982 0  23543898.946 0
 88  2 24  5 23 59.0800000  0  4  6  8 11  9
  -2204046.314 8  -1717438.626 7  21334551.185 0  21334552.307 0
   -938581.140 7   -731362.124 6  20081167.132 0  20081169.438 0
  -2073255.224 7  -1393603.348 6  22003474.550 0  22003476.776 0
  -2072574.600 7  -1459640.721 6  23526682.831 0  23526683.347 0
 88  2 24  5 24 29.0800000  0  4  6  8 11  9
  -2255455.777 7  -1757497.951 7  21324768.514 0  21324769.661 0
   -947812.700 7   -738555.554 7  20079411.636 0  20079412.153 0
  -2158855.704 7  -1460305.017 6  21987185.916 0  21987186.754 0
  -2163066.195 7  -1530153.658 7  23509461.948 0  23509462.978 0
 88  2 24  5 24 59.0800000  0  4  6  8 11  9
  -2306655.824 7  -1797394.080 7  21315026.085 0  21315025.563 0
   -956348.254 6   -745206.611 6  20077787.054 0  20077788.342 0
  -2244058.192 7  -1526696.553 6  21970971.969 0  21970972.513 0
  -2253578.705 6  -1600682.865 7  23492238.642 0  23492238.469 0
 88  2 24  5 25 29.0800000  0  4  6  8 11  9
  -2357644.282 7  -1837125.356 7  21305323.195 0  21305322.983 0
   -964188.096 6   -751315.562 7  20076294.392 0  20076297.501 0
  -2328860.469 8  -1592776.229 6  21954834.463 0  21954835.041 0
  -2344110.663 7  -1671227.248 7  23475010.794 0  23475010.699 0
 88  2 24  5 25 59.0800000  0  4  6  8 11  9
  -2408420.189 7  -1876691.007 7  21295661.173 0  21295659.715 0
   -971333.512 7   -756883.411 7  20074935.983 0  20074935.010 0
  -2413261.200 8  -1658543.025 6  21938773.219 0  21938775.803 0
  -2434661.801 7  -1741786.580 7  23457779.932 0  23457780.519 0
 88  2 24  5 26 29.0800000  0  4  6  8 11  9
  -2458980.484 7  -1916088.642 7  21286039.648 0  21286039.473 0
   -977783.992 7   -761909.755 7  20073708.068 0  20073708.217 0
  -2497257.269 7  -1723994.501 6  21922789.897 0  21922791.931 0
  -2525229.926 7  -1812359.133 7  23440544.358 0  23440545.208 0
 88  2 24  5 26 59.0800000  0  4  6  8 11  9
  -2509322.647 7  -1955316.304 7  21276459.390 0  21276459.285 0
   -983539.660 7   -766394.681 6  20072611.862 0  20072612.672 0
  -2580846.285 7  -1789128.775 6  21906883.157 0  21906884.002 0
  -2615813.006 7  -1882943.346 7  23423307.247 0  23423307.757 0
 88  2 24  5 27 29.0800000  0  4  6  8 11  9
  -2559444.458 7  -1994372.256 6  21266921.437 0  21266922.185 0
   -988600.796 7   -770338.434 6  20071649.789 0  20071650.140 0
  -2664026.216 7  -1853944.287 7  21891054.541 0  21891056.470 0
  -2706409.937 7  -1953538.360 6  23406066.510 0  23406067.546 0
 88  2 24  5 27 59.0800000  0  4  6  8 11  9
  -2609343.766 8  -2033254.831 7  21257425.745 0  21257425.848 0
   -992968.077 7   -773741.487 6  20070819.023 0  20070818.961 0
  -2746794.604 7  -1918439.126 6  21875304.270 0  21875306.078 0
  -2797019.208 7  -2024142.968 7  23388824.202 0  23388825.956 0
 88  2 24  5 28 29.0800000  0  4  6  8 11  9
  -2659018.340 8  -2071962.286 6  21247972.661 0  21247973.311 0
   -996641.937 7   -776604.233 7  20070118.603 0  20070120.396 0
  -2829149.603 7  -1982611.844 6  21859633.363 0  21859634.216 0
  -2887639.126 7  -2094755.887 7  23371580.242 0  23371581.940 0
 88  2 24  5 28 59.0800000  0  4  6  8 11  9
  -2708465.991 7  -2110492.928 6  21238563.720 0  21238563.525 0
   -999622.494 8   -778926.750 7  20069551.667 0  20069553.151 0
  -2911088.461 8  -2046460.289 6  21844041.157 0  21844042.874 0
  -2978268.279 7  -2165375.986 7  23354333.753 0  23354335.901 0
 88  2 24  5 29 29.0800000  0  4  6  8 11  9
  -2757684.483 7  -2148844.993 7  21229197.482 0  21229197.795 0
  -1001910.986 7   -780709.979 6  20069116.910 0  20069118.100 0
  -2992609.442 7  -2109983.112 6  21828527.440 0  21828528.318 0
  -3068905.494 7  -2236002.373 7  23337086.342 0  23337087.653 0
 88  2 24  5 29 59.0800000  0  4  6  8 11  9
  -2806670.081 7  -2187015.599 7  21219876.691 0  21219875.859 0
  -1003505.885 7   -781952.761 7  20068812.720 0  20068813.356 0
  -3073708.628 7  -2173177.284 6  21813094.461 0  21813095.422 0
  -3159547.369 7  -2306632.414 7  23319837.812 0  23319838.527 0
 88  2 24  5 30 29.0800000  0  4  6  8 11  9
  -2855421.976 7  -2225004.095 7  21210599.355 0  21210599.009 0
  -1004409.293 7   -782656.703 6  20068640.947 0  20068642.336 0
  -3154385.226 7  -2236042.149 6  21797742.123 0  21797743.608 0
  -3250194.061 7  -2377266.187 7  23302588.271 0  23302590.365 0
 88  2 24  5 30 59.0800000  0  4  6  8 11  9
  -2903938.233 7  -2262808.961 7  21201366.474 0  21201366.506 0
  -1004622.343 7   -782822.702 7  20068600.526 0  20068600.840 0
  -3234637.744 8  -2298576.567 6  21782471.570 0  21782473.018 0
  -3340844.084 7  -2447902.559 7  23285337.938 0  23285338.359 0
 88  2 24  5 31 29.0800000  0  4  6  8 11  9
  -2952216.134 7  -2300428.113 7  21192179.805 0  21192179.641 0
  -1004144.880 7   -782450.667 7  20068691.411 0  20068693.355 0
  -3314463.641 8  -2360778.554 6  21767280.159 0  21767281.850 0
  -3431495.716 7  -2518540.171 7  23268088.198 0  23268088.905 0
 88  2 24  5 31 59.0800000  0  4  6  8 11  9
  -3000253.635 7  -2337859.926 7  21183038.296 0  21183038.884 0
  -1002977.815 7   -781541.253 6  20068914.223 0  20068913.786 0
  -3393860.758 7  -2422646.424 6  21752171.638 0  21752172.342 0
  -3522147.491 7  -2589177.893 6  23250838.371 0  23250838.974 0
 88  2 24  5 32 29.0800000  0  4  6  8 11  9
  -3048048.509 7  -2375102.696 7  21173943.006 0  21173943.667 0
  -1001121.955 7   -780095.109 6  20069266.193 0  20069268.398 0
  -3472827.372 7  -2484178.836 6  21737143.506 0  21737145.707 0
  -3612797.726 7  -2659814.432 7  23233587.257 0  23233586.900 0
 88  2 24  5 32 59.0800000  0  4  6  8 11  9
  -3095598.512 7  -2412154.638 7  21164893.850 0  21164895.520 0
   -998578.429 7   -778113.150 6  20069750.574 0  20069750.357 0
  -3551361.180 7  -2545374.018 6  21722200.239 0  21722203.012 0
  -3703445.005 6  -2730448.671 6  23216337.355 0  23216339.339 0
 88  2 24  5 33 29.0800000  0  4  6  8 11  9
  -3142901.349 8  -2449013.998 6  21155893.604 0  21155894.478 0
   -995347.745 7   -775595.725 6  20070365.404 0  20070365.813 0
  -3629460.186 7  -2606230.356 7  21707339.318 0  21707340.698 0
  -3794087.680 8  -2801079.311 6  23199088.826 0  23199089.993 0
 88  2 24  5 33 59.0800000  0  4  6  8 11  9
  -3189954.730 7  -2485678.972 7  21146939.318 0  21146939.496 0
   -991430.860 7   -772543.606 7  20071110.961 0  20071112.032 0
  -3707122.357 7  -2666746.318 6  21692559.909 0  21692560.647 0
  -3884724.041 7  -2871705.057 7  23181841.891 0  23181842.137 0
 88  2 24  5 34 29.0800000  0  4  6  8 11  9
  -3236756.394 7  -2522147.801 8  21138033.191 0  21138033.238 0
   -986828.387 6   -768957.250 6  20071987.618 0  20071987.945 0
  -3784345.692 7  -2726920.325 6  21677864.466 0  21677867.348 0
  -3975352.314 8  -2942324.477 7  23164595.564 0  23164595.999 0
 88  2 24  5 34 59.0800000  0  4  6  8 11  9
  -3283303.962 7  -2558418.639 7  21129175.834 0  21129176.694 0
   -981541.180 7   -764837.347 6  20072992.624 0  20072994.627 0
  -3861128.294 7  -2786750.915 6  21663253.309 0  21663255.925 0
  -4065971.185 7  -3012936.558 6  23147350.059 0  23147352.811 0
 88  2 24  5 35 29.0800000  0  4  6  8 11  9
  -3329595.297 7  -2594489.799 7  21120366.269 0  21120368.062 0
   -975570.234 7   -760184.653 7  20074128.113 0  20074129.483 0
  -3937468.195 7  -2846236.534 6  21648726.217 0  21648728.640 0
  -4156578.835 7  -3083539.912 6  23130109.018 0  23130110.911 0
 88  2 24  5 35 59.0800000  0  4  6  8 11  9
  -3375628.068 7  -2630359.482 7  21111606.475 0  21111608.015 0
   -968916.371 7   -754999.811 6  20075395.581 0  20075395.622 0
  -4013363.223 8  -2905375.500 7  21634284.338 0  21634286.456 0
  -4247173.555 7  -3154133.197 7  23112870.210 0  23112869.728 0
 88  2 24  5 36 29.0800000  0  4  6  8 11  9
  -3421399.908 8  -2666025.861 7  21102896.408 0  21102897.696 0
   -961580.769 7   -749283.771 7  20076791.121 0  20076791.837 0
  -4088811.331 7  -2964166.212 7  21619925.419 0  21619928.558 0
  -4337753.640 7  -3224715.074 7  23095632.459 0  23095634.301 0
 88  2 24  5 36 59.0800000  0  4  6  8 11  9
  -3466908.615 7  -2701487.195 7  21094236.282 0  21094237.196 0
   -953564.569 7   -743037.369 6  20078315.617 0  20078317.273 0
  -4163811.079 7  -3022607.557 6  21605654.649 0  21605656.481 0
  -4428317.797 7  -3295284.533 7  23078398.879 0  23078400.701 0
 88  2 24  5 37 29.0800000  0  4  6  8 11  9
  -3512151.869 7  -2736741.664 7  21085626.998 0  21085627.731 0
   -944868.639 7   -736261.305 7  20079971.618 0  20079972.726 0
  -4238360.171 7  -3080697.741 6  21591467.919 0  21591469.764 0
  -4518863.722 7  -3365839.797 6  23061168.285 0  23061169.209 0
 88  2 24  5 37 59.0800000  0  4  6  8 11  9
  -3557127.302 7  -2771787.452 7  21077067.935 0  21077069.678 0
   -935493.763 6   -728956.211 6  20081755.378 0  20081755.174 0
  -4312456.824 7  -3138435.381 7  21577367.402 0  21577369.208 0
  -4609390.302 7  -3436379.979 7  23043941.180 0  23043942.764 0
 88  2 24  5 38 29.0800000  0  4  6  8 11  9
  -3601832.650 7  -2806622.776 6  21068561.187 0  21068562.201 0
   -925441.354 7   -721123.170 7  20083667.767 0  20083668.999 0
  -4386099.195 6  -3195819.052 6  21563354.827 0  21563357.675 0
  -4699895.283 7  -3506903.318 6  23026719.580 0  23026720.654 0
 88  2 24  5 38 59.0800000  0  4  6  8 11  9
  -3646265.627 7  -2841245.875 7  21060105.655 0  21060107.001 0
   -914712.639 7   -712763.120 6  20085708.985 0  20085709.301 0
  -4459285.554 7  -3252847.371 7  21549427.286 0  21549429.723 0
  -4790377.200 7  -3577408.686 7  23009501.539 0  23009501.368 0
 88  2 24  5 39 29.0800000  0  4  6  8 11  9
  -3690423.874 7  -2875654.891 7  21051703.163 0  21051703.970 0
   -903308.703 7   -703876.935 7  20087878.567 0  20087880.781 0
  -4532013.846 7  -3309518.746 6  21535587.260 0  21535589.672 0
  -4880834.238 7  -3647894.683 6  22992288.162 0  22992288.388 0
 88  2 24  5 39 59.0800000  0  4  6  8 11  9
  -3734305.189 7  -2909848.118 7  21043352.692 0  21043353.616 0
   -891230.691 7   -694465.489 7  20090177.888 0  20090178.628 0
  -4604282.450 7  -3365831.931 7  21521835.519 0  21521837.127 0
  -4971264.570 7  -3718359.885 7  22975080.167 0  22975080.578 0
 88  2 24  5 40 29.0800000  0  4  6  8 11  9
  -3777907.104 7  -2943823.638 7  21035056.233 0  21035056.251 0
   -878479.799 7   -684529.726 7  20092604.315 0  20092606.105 0
  -4676089.442 8  -3421785.431 7  21508171.124 0  21508173.131 0
  -5061666.201 7  -3788802.708 7  22957876.474 0  22957876.284 0
 88  2 24  5 40 59.0800000  0  4  6  8 11  9
  -3821227.412 7  -2977579.712 7  21026811.424 0  21026812.648 0
   -865056.933 7   -674070.334 7  20095159.164 0  20095159.076 0
  -4747432.981 7  -3477377.782 7  21494595.015 0  21494597.794 0
  -5152037.689 7  -3859222.065 7  22940679.952 0  22940680.206 0
 88  2 24  5 41 29.0800000  0  4  6  8 11  9
  -3864263.689 7  -3011114.465 7  21018622.973 0  21018623.379 0
   -850963.771 7   -663088.664 7  20097839.877 0  20097841.357 0
  -4818311.264 7  -3532607.603 7  21481106.818 0  21481108.973 0
  -5242377.176 7  -3929616.476 7  22923488.766 0  22923489.928 0
 88  2 24  5 41 59.0800000  0  4  6  8 11  9
  -3907013.688 7  -3044426.151 7  21010488.109 0  21010487.205 0
   -836201.624 7   -651585.676 6  20100649.715 0  20100651.036 0
  -4888722.616 8  -3587473.582 6  21467708.685 0  21467709.861 0
  -5332682.630 8  -3999984.358 6  22906303.884 0  22906305.035 0
 88  2 24  5 42 29.0800000  0  4  6  8 11  9
  -3949474.983 7  -3077512.878 7  21002407.571 0  21002408.096 0
   -820771.853 7   -639562.470 7  20103585.996 0  20103585.790 0
  -4958665.300 7  -3641974.358 6  21454397.875 0  21454400.651 0
  -5422952.166 8  -4070324.246 6  22889126.065 0  22889126.769 0
 88  2 24  5 42 59.0800000  0  4  6  8 11  9
  -3991645.299 8  -3110372.853 8  20994383.295 0  20994382.344 0
   -804675.989 6   -627020.229 7  20106648.972 0  20106649.373 0
  -5028137.780 7  -3696108.734 6  21441178.458 0  21441180.232 0
  -5513184.266 7  -4140634.968 6  22871955.498 0  22871956.935 0
 88  2 24  5 43 29.0800000  0  4  6  8 11  9
  -4033522.294 7  -3143004.279 7  20986413.568 0  20986414.221 0
   -787914.877 6   -613959.629 6  20109837.906 0  20109839.151 0
  -5097138.369 8  -3749875.428 6  21428048.453 0  21428049.572 0
  -5603376.779 7  -4210914.863 6  22854793.619 0  22854792.218 0
 88  2 24  5 43 59.0800000  0  4  6  8 11  9
  -4075103.616 7  -3175405.298 7  20978501.765 0  20978501.435 0
   -770490.687 7   -600382.332 6  20113153.593 0  20113156.690 0
  -5165665.307 7  -3803273.025 6  21415008.338 0  21415009.883 0
  -5693527.953 7  -4281162.530 7  22837637.716 0  22837637.440 0
 88  2 24  5 44 29.0800000  0  4  6  8 11  9
  -4116386.868 8  -3207574.072 7  20970645.388 0  20970645.877 0
   -752404.771 6   -586289.400 6  20116594.752 0  20116596.765 0
  -5233716.764 7  -3856300.126 7  21402057.309 0  21402060.509 0
  -5783635.981 7  -4351376.570 6  22820490.056 0  22820489.825 0
 88  2 24  5 44 59.0800000  0  4  6  8 11  9
  -4157369.926 7  -3239508.923 7  20962846.413 0  20962846.905 0
   -733658.583 7   -571681.964 7  20120162.737 0  20120164.082 0
  -5301291.257 7  -3908955.565 6  21389199.033 0  21389200.892 0
  -5873698.927 7  -4421555.487 6  22803351.043 0  22803352.529 0
 88  2 24  5 45 29.0800000  0  4  6  8 11  9
  -4198050.300 7  -3271207.913 7  20955105.312 0  20955106.450 0
   -714253.706 7   -556561.292 7  20123855.577 0  20123856.130 0
  -5368387.136 7  -3961238.066 6  21376431.165 0  21376433.592 0
  -5963714.648 7  -4491697.590 6  22786222.791 0  22786223.075 0
 88  2 24  5 45 59.0800000  0  4  6  8 11  9
  -4238425.687 7  -3302669.251 7  20947422.335 0  20947422.618 0
   -694191.268 7   -540928.223 7  20127672.265 0  20127673.630 0
  -5435002.778 7  -4013146.351 6  21363754.078 0  21363757.340 0
  -6053681.455 7  -4561801.590 6  22769102.644 0  22769103.738 0
 88  2 24  5 46 29.0800000  0  4  6  8 11  9
  -4278493.657 7  -3333891.049 7  20939797.800 0  20939797.553 0
   -673473.126 6   -524784.205 6  20131615.514 0  20131615.907 0
  -5501136.563 7  -4064679.160 6  21351170.074 0  21351172.130 0
  -6143597.383 7  -4631865.938 7  22751991.855 0  22751992.840 0
 88  2 24  5 46 59.0800000  0  4  6  8 11  9
  -4318252.098 7  -3364871.666 7  20932230.472 0  20932232.495 0
   -652100.727 7   -508130.379 7  20135681.623 0  20135683.517 0
  -5566787.109 7  -4115835.413 6  21338676.916 0  21338679.704 0
  -6233460.257 7  -4701888.947 6  22734892.347 0  22734893.064 0
 88  2 24  5 47 29.0800000  0  4  6  8 11  9
  -4357698.532 8  -3395609.133 7  20924724.853 0  20924726.184 0
   -630075.890 7   -490968.172 7  20139873.947 0  20139876.395 0
  -5631952.798 7  -4166613.860 6  21326275.733 0  21326278.047 0
  -6323268.563 7  -4771869.433 6  22717801.963 0  22717803.561 0
 88  2 24  5 47 59.0800000  0  4  6  8 11  9
  -4396830.732 7  -3426101.757 7  20917278.706 0  20917278.703 0
   -607400.192 7   -473298.782 6  20144189.999 0  20144190.055 0
  -5696632.061 7  -4217013.283 6  21313967.395 0  21313970.476 0
  -6413020.026 7  -4841805.629 7  22700722.603 0  22700723.067 0
 88  2 24  5 48 29.0800000  0  4  6  8 11  9
  -4435646.137 7  -3456347.532 7  20909892.329 0  20909892.646 0
   -584075.427 7   -455123.626 7  20148627.459 0  20148628.784 0
  -5760823.315 8  -4267032.429 6  21301752.551 0  21301755.807 0
  -6502712.484 7  -4911695.846 7  22683654.444 0  22683655.272 0
 88  2 24  5 48 59.0800000  0  4  6  8 11  9
  -4474142.478 7  -3486344.682 7  20902566.201 0  20902566.188 0
   -560103.330 7   -436444.079 7  20153189.668 0  20153190.591 0
  -5824525.123 7  -4316670.202 7  21289630.934 0  21289633.088 0
  -6592344.109 7  -4981538.652 7  22666598.580 0  22666598.143 0
 88  2 24  5 49 29.0800000  0  4  6  8 11  9
  -4512317.481 7  -3516091.437 7  20895302.054 0  20895303.149 0
   -535485.472 6   -417261.321 7  20157874.066 0  20157875.628 0
  -5887735.996 7  -4365925.404 6  21277603.189 0  21277604.481 0
  -6681913.170 7  -5051332.726 6  22649554.781 0  22649555.279 0
 88  2 24  5 49 59.0800000  0  4  6  8 11  9
  -4550168.831 7  -3545585.989 7  20888099.163 0  20888099.317 0
   -510223.973 7   -397577.031 7  20162680.636 0  20162681.618 0
  -5950454.642 7  -4414797.054 6  21265667.081 0  21265669.524 0
  -6771417.449 7  -5121076.282 7  22632521.404 0  22632522.395 0
 88  2 24  5 50 29.0800000  0  4  6  8 11  9
  -4587694.132 7  -3574826.494 6  20880958.054 0  20880958.884 0
   -484320.540 7   -377392.534 6  20167608.881 0  20167611.944 0
  -6012679.360 7  -4463283.843 6  21253825.967 0  21253828.592 0
  -6860854.608 7  -5190767.565 7  22615501.874 0  22615502.839 0
 88  2 24  5 50 59.0800000  0  4  6  8 11  9
  -4624891.077 7  -3603811.109 7  20873880.010 0  20873879.853 0
   -457777.004 7   -356709.257 7  20172661.370 0  20172663.054 0
  -6074409.173 7  -4511384.988 6  21242079.663 0  21242081.499 0
  -6950223.058 7  -5260405.290 6  22598496.223 0  22598497.491 0
 88  2 24  5 51 29.0800000  0  4  6  8 11  9
  -4661757.328 7  -3632538.078 6  20866863.796 0  20866865.103 0
   -430594.974 7   -335528.459 7  20177833.677 0  20177836.108 0
  -6135642.659 8  -4559099.384 7  21230427.108 0  21230429.293 0
  -7039520.343 6  -5329987.583 6  22581502.604 0  22581504.702 0
 88  2 24  5 51 59.0800000  0  4  6  8 11  9
  -4698290.501 7  -3661005.479 7  20859912.342 0  20859913.418 0
   -402776.448 6   -313851.670 7  20183127.274 0  20183128.531 0
  -6196378.332 7  -4606425.871 6  21218869.468 0  21218872.343 0
  -7128744.788 7  -5399513.122 7  22564524.822 0  22564524.393 0
 88  2 24  5 52 29.0800000  0  4  6  8 11  9
  -4734488.287 7  -3689211.537 7  20853023.241 0  20853024.075 0
   -374323.729 7   -291680.723 7  20188541.147 0  20188542.256 0
  -6256614.773 8  -4653363.345 7  21207406.121 0  21207409.361 0
  -7217893.668 8  -5468979.791 7  22547560.582 0  22547560.608 0
 88  2 24  5 52 59.0800000  0  4  6  8 11  9
  -4770348.365 7  -3717154.464 7  20846200.426 0  20846201.611 0
   -345238.243 6   -269016.703 7  20194077.036 0  20194078.033 0
  -6316350.510 7  -4699910.665 6  21196040.379 0  21196041.160 0
  -7306965.708 8  -5538386.556 7  22530610.485 0  22530611.610 0
 88  2 24  5 53 29.0800000  0  4  6  8 11  9
  -4805868.492 7  -3744832.482 7  20839441.288 0  20839441.422 0
   -315522.429 7   -245861.531 7  20199730.950 0  20199732.990 0
  -6375584.768 8  -4746067.215 7  21184768.016 0  21184769.348 0
  -7395958.272 7  -5607731.389 7  22513675.659 0  22513675.851 0
 88  2 24  5 53 59.0800000  0  4  6  8 11  9
  -4841046.295 7  -3772243.739 7  20832746.446 0  20832746.433 0
   -285178.069 6   -222216.571 7  20205505.793 0  20205508.177 0
  -6434316.034 7  -4791831.827 6  21173591.242 0  21173592.363 0
  -7484869.414 7  -5677012.810 7  22496756.424 0  22496757.140 0
 88  2 24  5 54 29.0800000  0  4  6  8 11  9
  -4875879.393 7  -3799386.416 7  20826118.199 0  20826119.327 0
   -254206.817 7   -198083.121 7  20211399.025 0  20211400.613 0
  -6492542.797 8  -4837203.316 6  21162511.803 0  21162512.266 0
  -7573696.688 7  -5746228.855 6  22479853.204 0  22479854.848 0
 88  2 24  5 54 59.0800000  0  4  6  8 11  9
  -4910365.430 6  -3826258.654 6  20819555.278 0  20819556.441 0
   -222610.913 6   -173462.938 7  20217411.630 0  20217412.518 0
  -6550264.060 7  -4882180.910 6  21151528.319 0  21151529.428 0
  -7662438.318 8  -5815378.184 6  22462965.913 0  22462966.550 0
 88  2 24  5 55 29.0800000  0  4  6  8 11  9
  -4944502.187 7  -3852858.735 7  20813059.653 0  20813060.657 0
   -190392.765 7   -148357.883 7  20223543.355 0  20223544.720 0
  -6607478.827 7  -4926763.841 6  21140639.875 0  21140642.254 0
  -7751092.004 8  -5884458.962 7  22446096.337 0  22446095.940 0
 88  2 24  5 55 59.0800000  0  4  6  8 11  9
  -4978287.333 7  -3879184.815 6  20806631.141 0  20806631.663 0
   -157554.286 7   -122769.454 6  20229791.263 0  20229793.061 0
  -6664185.574 7  -4970950.905 6  21129848.707 0  21129849.543 0
  -7839655.722 7  -5953469.634 7  22429242.822 0  22429243.349 0
 88  2 24  5 56 29.0800000  0  4  6  8 11  9
  -5011718.494 7  -3905235.073 7  20800269.740 0  20800269.719 0
   -124097.595 7    -96699.310 7  20236158.080 0  20236159.056 0
  -6720383.080 7  -5014741.155 6  21119154.927 0  21119156.504 0
  -7928126.990 7  -6022408.279 6  22412406.650 0  22412407.623 0
 88  2 24  5 56 59.0800000  0  4  6  8 11  9
  -5044793.267 7  -3931007.623 7  20793973.904 0  20793975.515 0
    -90024.663 7    -70148.977 7  20242642.450 0  20242644.706 0
  -6776070.468 7  -5058133.906 6  21108557.385 0  21108558.959 0
  -8016503.877 7  -6091273.371 7  22395589.445 0  22395590.327 0
 88  2 24  5 57 29.0800000  0  4  6  8 11  9
  -5077509.419 7  -3956500.732 7  20787750.013 0  20787749.863 0
    -55337.885 7    -43120.323 7  20249244.063 0  20249244.072 0
  -6831246.676 7  -5101128.346 6  21098058.096 0  21098059.105 0
  -8104783.994 7  -6160063.061 7  22378791.226 0  22378790.752 0
 88  2 24  5 57 59.0800000  0  4  6  8 11  9
  -5109864.718 7  -3981712.663 6  20781592.488 0  20781592.917 0
    -20039.671 7    -15615.210 6  20255959.813 0  20255960.170 0
  -6885910.653 7  -5143723.628 7  21087656.074 0  21087657.581 0
  -8192965.245 7  -6228775.723 6  22362010.327 0  22362009.918 0
 88  2 24  5 58 29.0800000  0  4  6  8 11  9
  -5141856.831 7  -4006641.578 7  20775504.675 0  20775504.523 0
     15868.278 7     12365.009 7  20262792.747 0  20262794.205 0
  -6940060.764 7  -5185918.516 6  21077351.481 0  21077352.373 0
  -8281045.099 7  -6297409.379 6  22345249.609 0  22345249.991 0
 88  2 24  5 58 59.0800000  0  4  6  8 11  9
  -5173483.456 7  -4031285.707 7  20769486.607 0  20769486.952 0
     52383.268 7     40818.236 7  20269742.195 0  20269743.095 0
  -6993696.520 7  -5227712.598 6  21067145.669 0  21067146.864 0
  -8369021.934 8  -6365962.753 6  22328507.769 0  22328508.510 0
 88  2 24  5 59 29.0800000  0  4  6  8 11  9
  -5204742.321 7  -4055643.276 7  20763538.417 0  20763537.881 0
     89503.403 7     69743.017 6  20276805.992 0  20276806.236 0
  -7046816.943 7  -5269105.115 6  21057036.561 0  21057038.249 0
  -8456892.981 7  -6434433.720 6  22311785.932 0  22311786.308 0
 88  2 24  5 59 59.0800000  0  4  6  8 11  9
  -5235631.167 7  -4079712.500 6  20757661.393 0  20757660.650 0
    127226.333 7     99137.506 7  20283983.378 0  20283984.812 0
  -7099420.408 7  -5310094.809 6  21047026.412 0  21047028.302 0
  -8544656.040 7  -6502820.529 7  22295085.966 0  22295086.619 0
 88  2 24  6  0 29.0800000  0  4  6  8 11  9
  -5266147.921 7  -4103491.805 6  20751852.717 0  20751853.849 0
    165550.006 7    129000.122 6  20291276.705 0  20291279.060 0
  -7151506.188 7  -5350681.120 6  21037115.432 0  21037116.307 0
  -8632308.749 8  -6571121.336 7  22278405.741 0  22278406.508 0
 88  2 24  6  0 59.0800000  0  4  6  8 11  9
  -5296289.616 7  -4126978.841 7  20746117.115 0  20746117.164 0
    204471.923 7    159328.879 7  20298682.978 0  20298684.757 0
  -7203073.304 8  -5390863.285 6  21027302.325 0  21027303.289 0
  -8719849.422 7  -6639334.857 6  22261747.843 0  22261747.578 0
 88  2 24  6  1 29.0800000  0  4  6  8 11  9
  -5326054.076 7  -4150171.934 6  20740453.435 0  20740452.972 0
    243989.639 7    190121.907 7  20306202.743 0  20306203.808 0
  -7254120.829 7  -5430640.559 6  21017587.154 0  21017589.494 0
  -8807274.740 7  -6707458.471 7  22245111.656 0  22245112.043 0
 88  2 24  6  1 59.0800000  0  4  6  8 11  9
  -5355439.475 7  -4173069.641 6  20734862.036 0  20734861.541 0
    284100.762 7    221377.349 7  20313836.314 0  20313835.875 0
  -7304647.706 7  -5470012.134 6  21007972.914 0  21007975.009 0
  -8894583.272 7  -6775491.090 6  22228496.160 0  22228497.411 0
 88  2 24  6  2 29.0800000  0  4  6  8 11  9
  -5384443.289 7  -4195670.017 7  20729342.280 0  20729342.327 0
    324803.003 7    253093.370 7  20321581.546 0  20321583.281 0
  -7354653.214 7  -5508977.461 6  20998457.208 0  20998458.124 0
  -8981772.473 7  -6843430.703 7  22211904.731 0  22211905.636 0
 88  2 24  6  2 59.0800000  0  4  6  8 11  9
  -5413063.408 7  -4217971.417 6  20723895.918 0  20723896.351 0
    366093.739 7    285267.963 6  20329438.255 0  20329439.876 0
  -7404136.461 7  -5547535.814 6  20989040.522 0  20989042.263 0
  -9068839.634 6  -6911275.232 7  22195336.278 0  22195337.306 0
 88  2 24  6  3 29.0800000  0  4  6  8 11  9
  -5441297.278 7  -4239971.841 6  20718523.749 0  20718523.478 0
    407970.899 8    317899.523 6  20337407.242 0  20337409.029 0
  -7453096.750 7  -5585686.680 6  20979725.086 0  20979723.651 0
  -9155782.734 7  -6979023.077 7  22178791.944 0  22178792.148 0
 88  2 24  6  3 59.0800000  0  4  6  8 11  9
  -5469142.872 7  -4261669.712 7  20713224.712 0  20713225.966 0
    450431.990 8    350986.101 7  20345488.575 0  20345488.120 0
  -7501533.001 7  -5623429.209 6  20970507.073 0  20970508.728 0
  -9242599.258 8  -7046672.312 7  22162271.678 0  22162271.430 0
 88  2 24  6  4 29.0800000  0  4  6  8 11  9
  -5496597.795 7  -4283063.163 6  20708000.340 0  20708000.904 0
    493474.663 7    384525.852 7  20353679.701 0  20353679.838 0
  -7549444.180 7  -5660762.589 6  20961389.218 0  20961391.493 0
  -9329286.732 8  -7114221.001 7  22145775.624 0  22145776.097 0
 88  2 24  6  4 59.0800000  0  4  6  8 11  9
  -5523659.987 7  -4304150.574 7  20702849.356 0  20702849.844 0
    537096.178 8    418516.642 7  20361979.755 0  20361980.661 0
  -7596829.874 7  -5697686.480 6  20952372.817 0  20952373.552 0
  -9415843.493 7  -7181667.833 6  22129304.776 0  22129304.754 0
 88  2 24  6  5 29.0800000  0  4  6  8 11  9
  -5550327.190 7  -4324930.229 6  20697775.272 0  20697776.046 0
    581294.016 7    452956.528 7  20370390.325 0  20370391.030 0
  -7643689.249 7  -5734200.275 6  20943456.380 0  20943457.260 0
  -9502266.197 7  -7249010.194 7  22112858.609 0  22112858.684 0
 88  2 24  6  5 59.0800000  0  4  6  8 11  9
  -5576597.115 7  -4345400.295 7  20692776.588 0  20692776.831 0
    626065.680 7    487843.535 6  20378910.074 0  20378910.856 0
  -7690021.506 7  -5770303.330 6  20934638.250 0  20934639.761 0
  -9588553.075 8  -7316246.745 6  22096439.011 0  22096439.312 0
 88  2 24  6  6 29.0800000  0  4  6  8 11  9
  -5602467.574 7  -4365559.090 6  20687853.374 0  20687854.502 0
    671408.595 7    523175.689 7  20387538.667 0  20387539.603 0
  -7735825.728 8  -5805994.921 7  20925922.368 0  20925924.736 0
  -9674701.154 7  -7383375.117 6  22080044.598 0  22080044.650 0
 88  2 24  6  6 59.0800000  0  4  6  8 11  9
  -5627936.222 7  -4385404.807 7  20683006.716 0  20683007.701 0
    717320.299 7    558951.039 7  20396275.001 0  20396275.320 0
  -7781101.408 7  -5841274.655 6  20917306.886 0  20917307.251 0
  -9760708.682 7  -7450393.976 7  22063678.041 0  22063679.149 0
 88  2 24  6  7 29.0800000  0  4  6  8 11  9
  -5653000.936 7  -4404935.760 7  20678236.872 0  20678237.335 0
    763798.183 7    595167.584 6  20405119.417 0  20405119.778 0
  -7825847.703 7  -5876141.884 7  20908790.996 0  20908793.051 0
  -9846572.780 7  -7517301.049 6  22047339.222 0  22047339.511 0
 88  2 24  6  7 59.0800000  0  4  6  8 11  9
  -5677659.602 7  -4424150.299 7  20673544.685 0  20673545.989 0
    810839.473 7    631823.143 6  20414070.673 0  20414071.484 0
  -7870064.210 7  -5910596.298 6  20900377.208 0  20900378.412 0
  -9932290.972 7  -7584094.428 7  22031026.966 0  22031029.095 0
 88  2 24  6  8 29.0800000  0  4  6  8 11  9
  -5701909.750 8  -4443046.519 7  20668930.061 0  20668930.997 0
    858441.730 7    668915.816 7  20423129.507 0  20423130.335 0
  -7913750.459 7  -5944637.523 6  20892065.157 0  20892065.548 0
 -10017860.852 6  -7650772.231 6  22014743.563 0  22014745.361 0
 88  2 24  6  8 59.0800000  0  4  6  8 11  9
  -5725749.386 8  -4461622.875 6  20664393.029 0  20664393.769 0
    906602.151 7    706443.427 6  20432294.523 0  20432294.531 0
  -7956905.596 7  -5978264.887 6  20883852.937 0  20883853.027 0
 -10103280.484 7  -7717332.972 7  21998490.083 0  21998489.646 0
 88  2 24  6  9 29.0800000  0  4  6  8 11  9
  -5749176.341 6  -4479877.643 6  20659935.698 0  20659936.665 0
    955318.396 7    744404.141 7  20441565.143 0  20441564.942 0
  -7999528.652 7  -6011477.646 6  20875742.139 0  20875742.621 0
 -10188546.544 7  -7783774.055 7  21982264.301 0  21982264.682 0
 88  2 24  6  9 59.0800000  0  4  6  8 11  9
  -5772188.429 7  -4497809.135 7  20655556.867 0  20655557.745 0
   1004587.613 7    782795.752 6  20450940.390 0  20450940.641 0
  -8041619.459 7  -6044275.672 6  20867731.217 0  20867734.591 0
 -10273657.071 7  -7850093.948 7  21966068.127 0  21966068.336 0
 88  2 24  6 10 29.0800000  0  4  6  8 11  9
  -5794783.342 7  -4515415.558 7  20651257.273 0  20651257.564 0
   1054407.168 8    821616.188 6  20460420.124 0  20460420.318 0
  -8083177.274 6  -6076658.367 6  20859823.521 0  20859825.420 0
 -10358609.392 7  -7916290.558 7  21949901.956 0  21949902.698 0
 88  2 24  6 10 59.0800000  0  4  6  8 11  9
  -5816959.119 8  -4532695.390 6  20647036.185 0  20647037.808 0
   1104774.863 8    860863.739 7  20470005.678 0  20470006.007 0
  -8124201.459 7  -6108625.263 6  20852016.336 0  20852017.184 0
 -10443400.850 8  -7982361.822 7  21933766.281 0  21933767.292 0
 88  2 24  6 11 29.0800000  0  4  6  8 11  9
  -5838713.551 7  -4549646.900 6  20642897.151 0  20642897.983 0
   1155687.255 7    900535.737 7  20479693.172 0  20479693.916 0
  -8164691.766 7  -6140176.125 6  20844312.513 0  20844312.963 0
 -10528029.485 7  -8048306.207 7  21917662.779 0  21917662.889 0
 88  2 24  6 11 59.0800000  0  4  6  8 11  9
  -5860044.524 7  -4566268.443 7  20638838.148 0  20638838.461 0
   1207141.993 7    940630.345 6  20489485.065 0  20489485.327 0
  -8204647.649 7  -6171310.574 6  20836707.855 0  20836710.439 0
 -10612492.346 7  -8114121.425 7  21901589.699 0  21901589.536 0
 88  2 24  6 12 29.0800000  0  4  6  8 11  9
  -5880949.836 7  -4582558.286 7  20634859.343 0  20634860.314 0
   1259135.929 7    981145.101 6  20499379.603 0  20499380.075 0
  -8244068.710 7  -6202028.283 6  20829206.460 0  20829209.429 0
 -10696787.091 7  -8179805.637 6  21885548.184 0  21885549.115 0
 88  2 24  6 12 59.0800000  0  4  6  8 11  9
  -5901427.350 7  -4598514.802 7  20630963.451 0  20630964.301 0
   1311666.251 7   1022077.815 7  20509374.172 0  20509375.790 0
  -8282954.586 7  -6232328.943 6  20821806.543 0  20821808.421 0
 -10780910.824 7  -8245356.586 6  21869540.840 0  21869540.752 0
 88  2 24  6 13 29.0800000  0  4  6  8 11  9
  -5921474.997 7  -4614136.356 6  20627147.519 0  20627149.982 0
   1364730.037 7   1063426.219 7  20519472.959 0  20519472.886 0
  -8321305.033 7  -6262212.396 7  20814509.406 0  20814511.812 0
 -10864861.487 7  -8310772.697 6  21853564.793 0  21853565.887 0
 88  2 24  6 13 59.0800000  0  4  6  8 11  9
  -5941090.754 7  -4629421.344 7  20623415.136 0  20623416.399 0
   1418324.786 7   1105188.358 6  20529671.521 0  20529671.519 0
  -8359119.362 7  -6291678.091 7  20807313.658 0  20807315.275 0
 -10948636.076 7  -8376051.585 6  21837623.603 0  21837623.386 0
 88  2 24  6 14 29.0800000  0  4  6  8 11  9
  -5960272.415 7  -4644368.098 7  20619765.299 0  20619766.668 0
   1472447.599 7   1147362.007 7  20539970.083 0  20539971.399 0
  -8396397.229 6  -6320725.765 7  20800218.241 0  20800220.873 0
 -11032232.349 7  -8441191.521 7  21821715.593 0  21821715.631 0
 88  2 24  6 14 59.0800000  0  4  6  8 11  9
  -5979017.879 7  -4658974.969 7  20616198.116 0  20616199.587 0
   1527095.893 7   1189945.074 7  20550370.184 0  20550370.927 0
  -8433138.705 7  -6349355.475 6  20793227.127 0  20793230.852 0
 -11115647.456 7  -8506190.312 7  21805842.784 0  21805842.624 0
 88  2 24  6 15 29.0800000  0  4  6  8 11  9
  -5997325.227 7  -4673240.418 7  20612714.026 0  20612715.888 0
   1582266.575 7   1232935.214 7  20560868.895 0  20560869.824 0
  -8469342.852 6  -6377566.497 7  20786337.938 0  20786340.729 0
 -11198878.917 8  -8571045.994 7  21790003.956 0  21790004.277 0
 88  2 24  6 15 59.0800000  0  4  6  8 11  9
  -6015192.278 7  -4687162.793 7  20609314.285 0  20609314.425 0
   1637957.049 7   1276330.396 7  20571466.919 0  20571467.005 0
  -8505009.657 7  -6405358.809 6  20779550.820 0  20779553.234 0
 -11281924.420 7  -8635756.775 6  21774200.690 0  21774201.268 0
 88  2 24  6 16 29.0800000  0  4  6  8 11  9
  -6032617.132 7  -4700740.608 7  20605998.821 0  20605998.835 0
   1694164.214 7   1320128.198 7  20582162.134 0  20582162.033 0
  -8540139.114 7  -6432732.391 6  20772865.532 0  20772869.589 0
 -11364781.000 7  -8700320.333 6  21758433.728 0  21758433.806 0
 88  2 24  6 16 59.0800000  0  4  6  8 11  9
  -6049597.691 7  -4713972.201 7  20602767.333 0  20602767.161 0
   1750885.069 7   1364326.261 6  20592955.317 0  20592956.512 0
  -8574730.826 7  -6459686.954 7  20766283.975 0  20766286.083 0
 -11447446.262 7  -8764734.830 7  21742703.479 0  21742703.745 0
 88  2 24  6 17 29.0800000  0  4  6  8 11  9
  -6066131.740 7  -4726855.882 7  20599621.300 0  20599622.610 0
   1808116.943 7   1408922.508 7  20603845.948 0  20603847.936 0
  -8608784.548 6  -6486222.306 7  20759802.746 0  20759805.724 0
 -11529917.312 7  -8828997.972 6  21727008.974 0  21727009.698 0
 88  2 24  6 17 59.0800000  0  4  6  8 11  9
  -6082217.504 7  -4739390.232 7  20596560.775 0  20596561.306 0
   1865857.157 7   1453914.897 6  20614834.681 0  20614834.047 0
  -8642299.935 7  -6512338.181 6  20753424.902 0  20753427.326 0
 -11612191.892 7  -8893108.016 7  21711353.052 0  21711353.908 0
 88  2 24  6 18 29.0800000  0  4  6  8 11  9
  -6097852.863 7  -4751573.636 7  20593585.669 0  20593586.024 0
   1924102.461 7   1499300.839 7  20625917.750 0  20625918.216 0
  -8675276.630 7  -6538034.296 6  20747150.454 0  20747152.281 0
 -11694266.952 7  -8957062.612 7  21695734.454 0  21695735.780 0
 88  2 24  6 18 59.0800000  0  4  6  8 11  9
  -6113035.872 7  -4763404.558 6  20590696.566 0  20590697.068 0
   1982849.774 7   1545077.978 7  20637097.578 0  20637097.734 0
  -8707715.140 7  -6563311.047 6  20740977.322 0  20740979.427 0
 -11776140.002 7  -9020859.780 6  21680154.680 0  21680155.845 0
 88  2 24  6 19 29.0800000  0  4  6  8 11  9
  -6127764.651 7  -4774881.526 7  20587892.118 0  20587893.730 0
   2042096.580 7   1591244.319 8  20648371.732 0  20648372.866 0
  -8739614.984 7  -6588168.069 7  20734906.783 0  20734908.594 0
 -11857808.731 7  -9084497.742 6  21664614.004 0  21664614.096 0
 88  2 24  6 19 59.0800000  0  4  6  8 11  9
  -6142037.031 7  -4786002.849 6  20585176.783 0  20585177.678 0
   2101839.711 6   1637797.397 7  20659740.059 0  20659741.413 0
  -8770975.906 6  -6612605.132 6  20728939.121 0  20728941.258 0
 -11939269.850 7  -9147973.938 6  21649112.610 0  21649111.784 0
 88  2 24  6 20 29.0800000  0  4  6  8 11  9
  -6155851.168 7  -4796767.130 7  20582546.705 0  20582548.057 0
   2162076.142 7   1684734.880 8  20671203.591 0  20671203.438 0
  -8801798.132 7  -6636622.435 6  20723075.322 0  20723075.579 0
 -12020521.209 7  -9211286.682 7  21633649.903 0  21633650.776 0
 88  2 24  6 20 59.0800000  0  4  6  8 11  9
  -6169205.080 7  -4807172.775 7  20580006.478 0  20580008.745 0
   2222802.991 7   1732054.510 6  20682758.950 0  20682758.572 0
  -8832081.374 7  -6660219.763 7  20717311.575 0  20717313.056 0
 -12101559.950 7  -9274433.758 6  21618229.023 0  21618229.619 0
 88  2 24  6 21 29.0800000  0  4  6  8 11  9
  -6182096.761 7  -4817218.233 7  20577554.044 0  20577555.180 0
   2284017.457 7   1779754.096 7  20694407.184 0  20694408.648 0
  -8861825.878 6  -6683397.278 6  20711652.392 0  20711652.306 0
 -12182383.198 7  -9337412.906 7  21602848.925 0  21602848.551 0
 88  2 24  6 21 59.0800000  0  4  6  8 11  9
  -6194524.275 7  -4826902.019 7  20575187.881 0  20575189.618 0
   2345716.387 7   1827831.178 7  20706148.304 0  20706148.605 0
  -8891031.479 7  -6706154.894 6  20706093.240 0  20706095.476 0
 -12262988.368 8  -9400222.123 7  21587510.341 0  21587510.754 0
 88  2 24  6 22 29.0800000  0  4  6  8 11  9
  -6206485.866 7  -4836222.730 7  20572911.599 0  20572913.157 0
   2407896.443 7   1876283.161 7  20717980.527 0  20717980.710 0
  -8919698.088 7  -6728492.502 7  20700637.537 0  20700640.058 0
 -12343372.688 7  -9462859.250 7  21572213.374 0  21572214.290 0
 88  2 24  6 22 59.0800000  0  4  6  8 11  9
  -6217979.496 6  -4845178.806 7  20570725.156 0  20570725.756 0
   2470555.070 8   1925108.083 7  20729904.491 0  20729904.817 0
  -8947825.799 6  -6750410.186 6  20695285.021 0  20695288.374 0
 -12423533.731 8  -9525322.395 6  21556959.631 0  21556959.736 0
 88  2 24  6 23 29.0800000  0  4  6  8 11  9
  -6229003.323 7  -4853768.808 7  20568626.871 0  20568628.751 0
   2533689.106 7   1974303.433 7  20741919.109 0  20741918.974 0
  -8975414.831 7  -6771908.117 6  20690035.960 0  20690037.342 0
 -12503468.704 7  -9587609.385 7  21541749.307 0  21541748.694 0
 88  2 24  6 23 59.0800000  0  4  6  8 11  9
  -6239555.589 7  -4861991.353 7  20566620.242 0  20566620.475 0
   2597295.480 8   2023866.837 7  20754022.427 0  20754023.866 0
  -9002464.921 7  -6792986.092 7  20684888.858 0  20684891.081 0
 -12583174.634 7  -9649717.920 7  21526580.303 0  21526580.617 0
 88  2 24  6 24 29.0800000  0  4  6  8 11  9
  -6249634.376 6  -4869844.970 7  20564700.968 0  20564702.442 0
   2661370.784 7   2073795.655 6  20766216.605 0  20766216.452 0
  -9028976.532 7  -6813644.489 7  20679843.443 0  20679844.469 0
 -12662648.925 7  -9711645.937 6  21511457.637 0  21511459.698 0
 88  2 24  6 24 59.0800000  0  4  6  8 11  9
  -6259237.790 6  -4877328.136 7  20562873.312 0  20562874.993 0
   2725912.253 7   2124087.707 6  20778497.485 0  20778497.803 0
  -9054949.961 7  -6833883.530 6  20674899.723 0  20674903.575 0
 -12741888.972 7  -9773391.431 6  21496378.439 0  21496379.124 0
 88  2 24  6 25 29.0800000  0  4  6  8 11  9
  -6268364.171 7  -4884439.598 7  20561137.429 0  20561137.731 0
   2790916.813 7   2174740.615 7  20790867.527 0  20790867.511 0
  -9080385.295 7  -6853703.252 5  20670061.290 0  20670063.239 0
 -12820892.040 8  -9834952.255 6  21481344.918 0  21481345.562 0
 88  2 24  6 25 59.0800000  0  4  6  8 11  9
  -6277011.577 7  -4891177.854 6  20559491.120 0  20559492.697 0
   2856381.398 7   2225751.984 7  20803325.350 0  20803325.539 0
  -9105282.442 6  -6873103.617 6  20665322.590 0  20665323.926 0
 -12899655.275 8  -9896326.196 6  21466356.871 0  21466357.412 0
 88  2 24  6 26 29.0800000  0  4  6  8 11  9
  -6285178.313 6  -4897541.540 7  20557938.685 0  20557939.098 0
   2922302.763 7   2277119.294 7  20815869.482 0  20815869.848 0
  -9129641.474 7  -6892084.676 6  20660687.022 0  20660688.938 0
 -12978175.836 7  -9957511.061 7  21451414.988 0  21451415.440 0
 88  2 24  6 26 59.0800000  0  4  6  8 11  9
  -6292862.522 7  -4903529.239 7  20556475.845 0  20556476.001 0
   2988678.214 8   2328840.420 7  20828500.491 0  20828500.795 0
  -9153462.744 7  -6910646.698 6  20656155.172 0  20656155.861 0
 -13056451.057 8 -10018504.719 7  21436519.689 0  21436520.390 0
 88  2 24  6 27 29.0800000  0  4  6  8 11  9
  -6300062.475 7  -4909139.605 7  20555104.927 0  20555105.998 0
   3055504.395 7   2380912.776 7  20841216.570 0  20841216.588 0
  -9176746.678 7  -6928790.013 6  20651723.478 0  20651725.901 0
 -13134478.224 7 -10079305.096 6  21421671.844 0  21421672.813 0
 88  2 24  6 27 59.0800000  0  4  6  8 11  9
  -6306777.135 7  -4914371.811 7  20553828.197 0  20553828.683 0
   3122777.801 8   2433333.605 7  20854017.884 0  20854018.768 0
  -9199493.997 7  -6946515.197 6  20647395.039 0  20647396.347 0
 -13212255.154 7 -10139910.513 6  21406871.302 0  21406872.178 0
 88  2 24  6 28 29.0800000  0  4  6  8 11  9
  -6313004.753 7  -4919224.503 7  20552642.007 0  20552643.238 0
   3190494.941 7   2486100.205 7  20866904.847 0  20866904.300 0
  -9221705.221 7  -6963822.617 6  20643169.472 0  20643169.514 0
 -13289779.163 7 -10200318.841 6  21392118.326 0  21392119.433 0
 88  2 24  6 28 59.0800000  0  4  6  8 11  9
  -6318742.921 7  -4923695.802 7  20551551.142 0  20551551.102 0
   3258653.587 7   2539210.831 7  20879874.195 0  20879874.372 0
  -9243379.843 7  -6980711.944 6  20639044.049 0  20639044.621 0
 -13367046.743 7 -10260527.325 6  21377416.380 0  21377414.707 0
 88  2 24  6 29 29.0800000  0  4  6  8 11  9
  -6323989.896 6  -4927784.359 7  20550552.316 0  20550552.845 0
   3327250.579 7   2592663.041 7  20892928.347 0  20892929.035 0
  -9264518.278 7  -6997183.452 6  20635022.088 0  20635024.145 0
 -13444055.215 7 -10320533.934 6  21362760.678 0  21362760.677 0
 88  2 24  6 29 59.0800000  0  4  6  8 11  9
  -6328743.974 6  -4931488.836 7  20549647.184 0  20549648.624 0
   3396282.754 7   2646454.335 8  20906064.206 0  20906066.060 0
  -9285120.732 7  -7013237.298 6  20631100.061 0  20631102.814 0
 -13520801.460 7 -10380336.199 6  21348156.748 0  21348156.371 0
 88  2 24  6 30 29.0800000  0  4  6  8 11  9
  -6333003.497 7  -4934807.937 7  20548835.191 0  20548837.484 0
   3465747.072 7   2700582.381 7  20919283.327 0  20919283.947 0
  -9305187.723 6  -7028873.903 6  20627281.797 0  20627284.383 0
 -13597282.805 7 -10439932.059 6  21333602.381 0  21333602.409 0
 88  2 24  6 30 59.0800000  0  4  6  8 11  9
  -6336766.835 6  -4937740.426 7  20548120.631 0  20548122.060 0
   3535640.514 7   2755044.805 7  20932582.926 0  20932583.743 0
  -9324719.753 7  -7044093.660 6  20623564.839 0  20623567.010 0
 -13673496.369 7 -10499319.241 6  21319099.648 0  21319099.859 0
 88  2 24  6 31 29.0800000  0  4  6  8 11  9
  -6340032.365 7  -4940284.992 7  20547499.601 0  20547500.705 0
   3605959.628 7   2809838.918 7  20945964.084 0  20945965.197 0
  -9343717.230 7  -7058896.876 6  20619950.735 0  20619951.106 0
 -13749439.656 7 -10558495.822 6  21304648.166 0  21304648.737 0
 88  2 24  6 31 59.0800000  0  4  6  8 11  9
  -6342798.372 7  -4942440.316 7  20546972.844 0  20546974.517 0
   3676701.500 7   2864962.453 7  20959425.943 0  20959427.317 0
  -9362180.464 7  -7073283.802 6  20616437.545 0  20616437.919 0
 -13825109.681 7 -10617459.490 7  21290248.082 0  21290249.511 0
 88  2 24  6 32 29.0800000  0  4  6  8 11  9
  -6345063.249 6  -4944205.158 6  20546541.256 0  20546543.263 0
   3747862.856 7   2920412.843 7  20972967.937 0  20972968.535 0
  -9380110.064 7  -7087254.911 6  20613024.517 0  20613025.932 0
 -13900503.396 7 -10676207.821 6  21275901.862 0  21275902.075 0
 88  2 24  6 32 59.0800000  0  4  6  8 11  9
  -6346825.324 6  -4945578.222 7  20546205.882 0  20546207.567 0
   3819440.566 8   2976187.688 7  20986588.725 0  20986589.576 0
  -9397506.119 7  -7100810.277 6  20609714.606 0  20609716.857 0
 -13975618.030 7 -10734738.706 7  21261607.205 0  21261607.806 0
 88  2 24  6 33 29.0800000  0  4  6  8 11  9
  -6348083.038 7  -4946558.257 7  20545966.904 0  20545968.277 0
   3891431.624 8   3032284.612 7  21000288.512 0  21000289.775 0
  -9414369.333 7  -7113950.433 6  20606505.083 0  20606506.859 0
 -14050450.454 8 -10793049.680 6  21247367.703 0  21247368.048 0
 88  2 24  6 33 59.0800000  0  4  6  8 11  9
  -6348834.847 7  -4947144.077 7  20545823.117 0  20545825.509 0
   3963832.473 7   3088700.857 7  21014064.572 0  21014066.554 0
  -9430700.265 7  -7126675.817 6  20603398.644 0  20603398.102 0
 -14124998.640 7 -10851139.183 6  21233181.686 0  21233182.104 0
 88  2 24  6 34 29.0800000  0  4  6  8 11  9
  -6349079.418 7  -4947334.659 6  20545776.275 0  20545778.667 0
   4036639.853 7   3145433.882 7  21027920.474 0  21027920.745 0
  -9446499.834 7  -7138987.182 6  20600391.083 0  20600393.097 0
 -14199259.310 7 -10909004.650 6  21219049.557 0  21219049.746 0
 88  2 24  6 34 59.0800000  0  4  6  8 11  9
  -6348815.081 7  -4947128.689 7  20545827.555 0  20545829.111 0
   4109851.126 7   3202481.623 7  21041851.831 0  21041852.766 0
  -9461768.252 7  -7150884.627 7  20597485.834 0  20597487.347 0
 -14273229.641 7 -10966643.863 7  21204973.949 0  21204975.395 0
 88  2 24  6 35 29.0800000  0  4  6  8 11  9
  -6348040.256 7  -4946524.936 7  20545975.232 0  20545977.065 0
   4183462.906 7   3259841.453 7  21055860.685 0  21055860.807 0
  -9476505.929 6  -7162368.533 6  20594681.287 0  20594682.688 0
 -14346906.829 7 -11024054.660 6  21190953.865 0  21190953.940 0
 88  2 24  6 35 59.0800000  0  4  6  8 11  9
  -6346753.589 7  -4945522.334 7  20546219.602 0  20546220.493 0
   4257472.066 7   3317510.919 7  21069942.920 0  21069944.312 0
  -9490713.713 6  -7173439.528 6  20591977.322 0  20591978.892 0
 -14420287.804 7 -11081234.646 6  21176989.615 0  21176989.630 0
 88  2 24  6 36 29.0800000  0  4  6  8 11  9
  -6344953.518 7  -4944119.689 7  20546564.213 0  20546563.757 0
   4331874.855 7   3375487.115 7  21084101.788 0  21084102.157 0
  -9504392.312 6  -7184098.180 6  20589374.821 0  20589376.343 0
 -14493369.763 7 -11138181.613 7  21163082.367 0  21163083.670 0
 88  2 24  6 36 59.0800000  0  4  6  8 11  9
  -6342638.777 7  -4942315.995 6  20547003.437 0  20547004.917 0
   4406668.492 7   3433767.871 7  21098334.710 0  21098335.093 0
  -9517542.653 7  -7194345.194 7  20586871.997 0  20586874.490 0
 -14566150.139 7 -11194893.600 7  21149232.900 0  21149234.318 0
 88  2 24  6 37 29.0800000  0  4  6  8 11  9
  -6339807.957 7  -4940110.160 7  20547542.616 0  20547542.971 0
   4481850.131 7   3492350.960 7  21112641.548 0  21112641.131 0
  -9530165.402 7  -7204181.103 6  20584470.051 0  20584471.278 0
 -14638625.921 7 -11251368.236 7  21135441.362 0  21135442.009 0
 88  2 24  6 37 59.0800000  0  4  6  8 11  9
  -6336459.421 6  -4937500.927 7  20548180.255 0  20548179.783 0
   4557416.151 7   3551233.578 7  21127020.710 0  21127021.485 0
  -9542261.064 7  -7213606.273 6  20582168.440 0  20582169.066 0
 -14710794.269 7 -11307603.290 6  21121707.686 0  21121707.558 0
 88  2 24  6 38 29.0800000  0  4  6  8 11  9
  -6332591.877 7  -4934487.263 7  20548915.344 0  20548916.438 0
   4633363.215 7   3610413.114 7  21141473.489 0  21141473.460 0
  -9553830.188 6  -7222621.174 6  20579967.266 0  20579969.148 0
 -14782652.287 7 -11363596.541 6  21108033.481 0  21108033.591 0
 88  2 24  6 38 59.0800000  0  4  6  8 11  9
  -6328203.834 6  -4931068.007 6  20549751.739 0  20549751.825 0
   4709688.507 7   3669887.360 7  21155996.737 0  21155997.872 0
  -9564873.386 7  -7231226.249 6  20577865.040 0  20577866.831 0
 -14854197.110 7 -11419345.758 7  21094418.975 0  21094419.570 0
 88  2 24  6 39 29.0800000  0  4  6  8 11  9
  -6323293.998 7  -4927242.174 7  20550685.509 0  20550686.024 0
   4786388.836 8   3729653.845 7  21170593.180 0  21170594.049 0
  -9575391.741 7  -7239422.370 6  20575863.442 0  20575865.238 0
 -14925425.679 7 -11474848.540 7  21080864.938 0  21080866.114 0
 88  2 24  6 39 59.0800000  0  4  6  8 11  9
  -6317860.997 7  -4923008.677 8  20551717.394 0  20551719.175 0
   4863460.978 7   3789710.056 7  21185258.171 0  21185260.411 0
  -9585386.012 7  -7247210.105 6  20573962.506 0  20573963.295 0
 -14996335.431 7 -11530102.889 6  21067372.004 0  21067371.373 0
 88  2 24  6 40 29.0800000  0  4  6  8 11  9
  -6311903.632 6  -4918366.583 7  20552852.388 0  20552852.842 0
   4940901.726 7   3850053.498 7  21199996.315 0  21199996.889 0
  -9594856.910 6  -7254590.025 6  20572159.171 0  20572160.761 0
 -15066923.241 8 -11585106.382 6  21053938.446 0  21053939.305 0
 88  2 24  6 40 59.0800000  0  4  6  8 11  9
  -6305420.385 7  -4913314.697 6  20554086.080 0  20554086.810 0
   5018707.773 7   3910681.588 7  21214802.125 0  21214802.636 0
  -9603805.295 6  -7261562.771 6  20570456.789 0  20570458.436 0
 -15137186.398 7 -11639856.886 7  21040568.024 0  21040568.687 0
 88  2 24  6 41 29.0800000  0  4  6  8 11  9
  -6298410.027 7  -4907852.097 7  20555419.980 0  20555420.805 0
   5096875.815 7   3971591.742 7  21229676.960 0  21229677.324 0
  -9612232.213 6  -7268129.194 6  20568853.006 0  20568855.338 0
 -15207121.620 7 -11694351.853 7  21027259.907 0  21027260.780 0
 88  2 24  6 41 59.0800000  0  4  6  8 11  9
  -6290871.404 8  -4901977.849 7  20556853.847 0  20556855.776 0
   5175402.887 7   4032781.673 7  21244620.117 0  21244620.801 0
  -9620138.237 7  -7274289.728 6  20567349.314 0  20567349.742 0
 -15276726.502 7 -11748589.415 7  21014015.408 0  21014015.310 0
 88  2 24  6 42 29.0800000  0  4  6  8 11  9
  -6282803.221 7  -4895690.959 7  20558390.167 0  20558390.415 0
   5254285.666 7   4094248.771 7  21259630.949 0  21259631.506 0
  -9627524.239 7  -7280045.041 6  20565943.275 0  20565943.515 0
 -15345997.855 7 -11802567.084 7  21000832.412 0  21000833.924 0
 88  2 24  6 42 59.0800000  0  4  6  8 11  9
  -6274204.260 7  -4888990.475 6  20560026.141 0  20560027.062 0
   5333520.572 7   4155990.256 6  21274708.447 0  21274709.661 0
  -9634391.500 7  -7285396.143 6  20564636.646 0  20564637.716 0
 -15414932.971 7 -11856282.762 6  20987714.915 0  20987714.678 0
 88  2 24  6 43 29.0800000  0  4  6  8 11  9
  -6265073.478 7  -4881875.594 7  20561763.797 0  20561764.778 0
   5413104.647 7   4218003.831 6  21289853.176 0  21289853.655 0
  -9640740.920 7  -7290343.750 7  20563427.594 0  20563429.934 0
 -15483528.931 8 -11909734.163 6  20974662.275 0  20974662.891 0
 88  2 24  6 43 59.0800000  0  4  6  8 11  9
  -6255409.578 7  -4874345.287 6  20563603.837 0  20563603.572 0
   5493034.879 7   4280287.126 7  21305063.164 0  21305063.538 0
  -9646573.352 7  -7294888.497 6  20562318.526 0  20562320.560 0
 -15551782.856 7 -11962919.064 7  20961672.704 0  20961673.193 0
 88  2 24  6 44 29.0800000  0  4  6  8 11  9
  -6245211.238 7  -4866398.545 7  20565543.369 0  20565545.049 0
   5573307.932 7   4342837.555 6  21320338.651 0  21320339.071 0
  -9651889.762 7  -7299031.140 7  20561306.535 0  20561308.654 0
 -15619691.799 7 -12015835.120 6  20948750.850 0  20948751.537 0
 88  2 24  6 44 59.0800000  0  4  6  8 11  9
  -6234477.417 7  -4858034.529 7  20567585.850 0  20567587.257 0
   5653920.372 7   4405652.444 7  21335678.371 0  21335679.243 0
  -9656691.149 6  -7302772.467 6  20560392.426 0  20560394.801 0
 -15687252.761 7 -12068480.024 7  20935895.302 0  20935894.644 0
 88  2 24  6 45 29.0800000  0  4  6  8 11  9
  -6223207.074 7  -4849252.450 7  20569730.808 0  20569731.153 0
   5734869.187 8   4468729.440 7  21351082.500 0  21351084.033 0
  -9660978.609 7  -7306113.345 6  20559576.488 0  20559579.125 0
 -15754463.119 7 -12120851.724 6  20923104.428 0  20923105.909 0
 88  2 24  6 45 59.0800000  0  4  6  8 11  9
  -6211399.063 8  -4840051.407 7  20571977.824 0  20571978.430 0
   5816151.324 8   4532066.167 7  21366550.136 0  21366549.990 0
  -9664752.922 7  -7309054.353 6  20558858.158 0  20558861.199 0
 -15821319.835 7 -12172947.873 7  20910382.391 0  20910381.817 0
 88  2 24  6 46 29.0800000  0  4  6  8 11  9
  -6199052.292 7  -4830430.556 7  20574327.838 0  20574326.833 0
   5897763.722 7   4595660.247 7  21382081.357 0  21382081.585 0
  -9668015.396 6  -7311596.530 6  20558238.001 0  20558238.229 0
 -15887819.831 7 -12224766.053 7  20897728.288 0  20897728.430 0
 88  2 24  6 46 59.0800000  0  4  6  8 11  9
  -6186165.636 7  -4820389.013 7  20576779.918 0  20576780.132 0
   5979702.859 7   4659508.922 7  21397672.947 0  21397673.306 0
  -9670766.659 7  -7313740.374 6  20557714.219 0  20557716.413 0
 -15953960.472 8 -12276304.222 7  20885141.554 0  20885142.601 0
 88  2 24  6 47 29.0800000  0  4  6  8 11  9
  -6172738.212 7  -4809926.090 7  20579334.505 0  20579336.133 0
   6061965.589 8   4723609.756 7  21413327.125 0  21413327.092 0
  -9673008.240 7  -7315487.051 6  20557288.069 0  20557290.297 0
 -16019738.920 7 -12327560.146 6  20872624.303 0  20872623.703 0
 88  2 24  6 47 59.0800000  0  4  6  8 11  9
  -6158769.090 7  -4799041.063 7  20581993.740 0  20581993.301 0
   6144548.750 7   4787960.247 7  21429041.907 0  21429042.576 0
  -9674741.482 7  -7316837.607 6  20556957.689 0  20556960.236 0
 -16085152.219 7 -12378531.558 6  20860176.796 0  20860176.695 0
 88  2 24  6 48 29.0800000  0  4  6  8 11  9
  -6144257.162 7  -4787733.089 7  20584754.716 0  20584754.677 0
   6227448.989 7   4852557.852 7  21444817.353 0  21444818.400 0
  -9675967.139 6  -7317792.670 6  20556724.850 0  20556726.172 0
 -16150197.564 7 -12429216.253 6  20847798.947 0  20847798.071 0
 88  2 24  6 48 59.0800000  0  4  6  8 11  9
  -6129201.528 6  -4776001.417 6  20587619.588 0  20587620.777 0
   6310663.055 7   4917399.977 7  21460652.298 0  21460653.072 0
  -9676686.450 7  -7318353.163 6  20556588.378 0  20556589.725 0
 -16214872.071 7 -12479611.977 6  20835491.901 0  20835493.187 0
 88  2 24  6 49 29.0800000  0  4  6  8 11  9
  -6113601.007 7  -4763845.169 7  20590588.650 0  20590590.075 0
   6394188.217 7   4982484.509 8  21476547.284 0  21476547.545 0
  -9676900.598 6  -7318520.035 6  20556546.690 0  20556550.049 0
 -16279172.553 7 -12529716.250 6  20823255.882 0  20823255.666 0
 88  2 24  6 49 59.0800000  0  4  6  8 11  9
  -6097454.423 7  -4751263.434 6  20593660.262 0  20593661.178 0
   6478021.063 7   5047808.809 7  21492499.575 0  21492500.444 0
  -9676610.669 7  -7318294.104 6  20556602.685 0  20556605.191 0
 -16343096.464 7 -12579527.081 7  20811091.644 0  20811091.340 0
 88  2 24  6 50 29.0800000  0  4  6  8 11  9
  -6080761.850 7  -4738256.237 6  20596837.998 0  20596839.336 0
   6562158.351 7   5113370.337 7  21508511.143 0  21508510.496 0
  -9675818.242 7  -7317676.625 6  20556752.139 0  20556754.007 0
 -16406640.940 7 -12629042.268 7  20799000.407 0  20799000.675 0
 88  2 24  6 50 59.0800000  0  4  6  8 11  9
  -6063521.890 7  -4724822.508 7  20600117.495 0  20600119.259 0
   6646596.664 7   5179166.417 7  21524579.130 0  21524579.150 0
  -9674524.144 6  -7316668.238 6  20556999.712 0  20557001.041 0
 -16469802.999 7 -12678259.468 6  20786979.625 0  20786981.085 0
 88  2 24  6 51 29.0800000  0  4  6  8 11  9
  -6045733.709 7  -4710961.590 7  20603503.957 0  20603503.504 0
   6731332.968 7   5245194.703 6  21540703.149 0  21540704.661 0
  -9672729.935 6  -7315270.142 6  20557340.184 0  20557342.264 0
 -16532579.829 8 -12727176.464 6  20775034.201 0  20775034.761 0
 88  2 24  6 51 59.0800000  0  4  6  8 11  9
  -6027396.404 8  -4696672.785 7  20606992.632 0  20606993.436 0
   6816364.112 7   5311452.726 7  21556883.647 0  21556885.331 0
  -9670436.811 6  -7313483.286 6  20557777.165 0  20557778.180 0
 -16594968.489 7 -12775791.009 7  20763161.783 0  20763161.953 0
 88  2 24  6 52 29.0800000  0  4  6  8 11  9
  -6008509.181 7  -4681955.473 7  20610587.381 0  20610587.647 0
   6901686.710 7   5377937.870 7  21573121.080 0  21573120.963 0
  -9667645.749 7  -7311308.424 6  20558308.505 0  20558310.236 0
 -16656966.072 7 -12824100.818 7  20751364.690 0  20751364.860 0
 88  2 24  6 52 59.0800000  0  4  6  8 11  9
  -5989071.294 7  -4666809.065 6  20614285.637 0  20614287.029 0
   6987297.797 8   5444647.809 7  21589411.620 0  21589412.106 0
  -9664358.110 7  -7308746.629 6  20558934.032 0  20558936.636 0
 -16718569.810 7 -12872103.725 6  20739641.257 0  20739640.723 0
 88  2 24  6 53 29.0800000  0  4  6  8 11  9
  -5969081.880 7  -4651232.907 7  20618089.741 0  20618089.246 0
   7073194.349 7   5511580.186 7  21605758.159 0  21605758.710 0
  -9660575.501 7  -7305799.139 6  20559652.946 0  20559655.976 0
 -16779776.791 7 -12919797.479 7  20727993.859 0  20727995.148 0
 88  2 24  6 53 59.0800000  0  4  6  8 11  9
  -5948540.322 7  -4635226.511 6  20621997.988 0  20621998.649 0
   7159373.076 7   5578732.442 6  21622157.101 0  21622157.105 0
  -9656298.985 6  -7302466.789 6  20560468.236 0  20560469.430 0
 -16840584.349 7 -12967179.980 7  20716423.279 0  20716423.155 0
 88  2 24  6 54 29.0800000  0  4  6  8 11  9
  -5927445.946 7  -4618789.331 6  20626012.372 0  20626012.548 0
   7245830.792 7   5646102.087 7  21638609.704 0  21638610.078 0
  -9651530.159 6  -7298750.823 6  20561375.596 0  20561376.238 0
 -16900989.487 7 -13014248.925 7  20704928.538 0  20704928.550 0
 88  2 24  6 54 59.0800000  0  4  6  8 11  9
  -5905797.787 8  -4601920.658 7  20630132.635 0  20630133.353 0
   7332564.205 7   5713686.579 7  21655114.028 0  21655114.618 0
  -9646270.119 7  -7294652.079 6  20562375.694 0  20562379.210 0
 -16960989.280 7 -13061002.001 7  20693510.088 0  20693511.507 0
 88  2 24  6 55 29.0800000  0  4  6  8 11  9
  -5883595.428 7  -4584620.125 7  20634356.407 0  20634357.309 0
   7419570.075 7   5781483.350 7  21671670.409 0  21671671.301 0
  -9640520.747 6  -7290172.046 7  20563469.810 0  20563472.793 0
 -17020581.074 7 -13107437.163 7  20682171.260 0  20682170.624 0
 88  2 24  6 55 59.0800000  0  4  6  8 11  9
  -5860838.205 7  -4566887.221 6  20638687.748 0  20638688.673 0
   7506845.653 7   5849490.307 7  21688278.834 0  21688279.694 0
  -9634283.309 7  -7285311.700 6  20564656.981 0  20564658.985 0
 -17079761.779 7 -13153551.989 7  20670908.351 0  20670909.011 0
 88  2 24  6 56 29.0800000  0  4  6  8 11  9
  -5837525.314 7  -4548721.352 6  20643123.087 0  20643125.176 0
   7594387.589 7   5917704.795 7  21704936.834 0  21704937.540 0
  -9627558.884 6  -7280071.887 6  20565936.079 0  20565937.335 0
 -17138528.683 7 -13199344.386 7  20659726.352 0  20659726.276 0
 88  2 24  6 56 59.0800000  0  4  6  8 11  9
  -5813656.217 7  -4530122.050 7  20647665.023 0  20647666.580 0
   7682192.992 8   5986124.583 7  21721646.045 0  21721647.500 0
  -9620348.860 7  -7274453.682 6  20567307.390 0  20567309.912 0
 -17196879.139 7 -13244812.277 7  20648622.675 0  20648621.783 0
 88  2 24  6 57 29.0800000  0  4  6  8 11  9
  -5789230.401 7  -4511088.950 7  20652313.311 0  20652314.546 0
   7770258.635 7   6054747.162 7  21738404.640 0  21738405.777 0
  -9612654.979 6  -7268458.444 6  20568772.459 0  20568774.710 0
 -17254810.193 7 -13289953.347 7  20637598.306 0  20637598.269 0
 88  2 24  6 57 59.0800000  0  4  6  8 11  9
  -5764247.325 7  -4491621.632 7  20657067.669 0  20657069.078 0
   7858581.242 7   6123569.964 7  21755211.918 0  21755212.890 0
  -9604478.591 6  -7262087.235 6  20570328.987 0  20570330.406 0
 -17312318.744 7 -13334765.203 7  20626655.355 0  20626656.081 0
 88  2 24  6 58 29.0800000  0  4  6  8 11  9
  -5738706.318 6  -4471719.539 7  20661928.561 0  20661928.289 0
   7947157.731 7   6192590.607 7  21772066.976 0  21772067.684 0
  -9595821.180 6  -7255341.191 6  20571976.569 0  20571977.721 0
 -17369402.410 8 -13379245.984 7  20615792.851 0  20615791.949 0
 88  2 24  6 58 59.0800000  0  4  6  8 11  9
  -5712606.974 7  -4451382.399 7  20666895.315 0  20666894.798 0
   8035984.995 7   6261806.655 7  21788970.053 0  21788971.715 0
  -9586684.352 6  -7248221.579 6  20573714.308 0  20573715.389 0
 -17426058.150 7 -13423393.309 7  20605011.023 0  20605012.674 0
 88  2 24  6 59 29.0800000  0  4  6  8 11  9
  -5685948.844 7  -4430609.846 6  20671967.930 0  20671968.658 0
   8125059.904 7   6331215.686 7  21805920.995 0  21805921.779 0
  -9577069.563 7  -7240729.522 6  20575543.899 0  20575545.884 0
 -17482283.250 7 -13467205.072 6  20594310.737 0  20594313.003 0
 88  2 24  6 59 59.0800000  0  4  6  8 11  9
  -5658731.452 7  -4409401.490 6  20677147.460 0  20677148.099 0
   8214379.478 7   6400815.349 7  21822918.708 0  21822917.682 0
  -9566978.445 7  -7232866.332 6  20577464.843 0  20577466.081 0
 -17538074.966 7 -13510679.124 6  20583694.916 0  20583695.864 0
 88  2 24  7  0 29.0800000  0  4  6  8 11  9
  -5630954.260 7  -4387756.929 6  20682432.879 0  20682433.445 0
   8303940.584 8   6470603.226 7  21839960.301 0  21839961.570 0
  -9556412.397 7  -7224633.034 6  20579474.857 0  20579477.495 0
 -17593430.241 7 -13553813.113 6  20573161.532 0  20573159.998 0
 88  2 24  7  0 59.0800000  0  4  6  8 11  9
  -5602616.987 7  -4365675.963 7  20687825.558 0  20687826.030 0
   8393740.161 6   6540576.922 7  21857049.184 0  21857050.103 0
  -9545372.958 7  -7216030.861 6  20581575.210 0  20581578.292 0
 -17648346.433 7 -13596604.950 7  20562710.402 0  20562710.823 0
 88  2 24  7  1 29.0800000  0  4  6  8 11  9
  -5573719.102 7  -4343158.112 6  20693324.670 0  20693324.997 0
   8483775.099 7   6610734.013 7  21874182.377 0  21874183.402 0
  -9533861.700 7  -7207061.045 6  20583766.199 0  20583768.983 0
 -17702820.856 7 -13639052.539 6  20552345.151 0  20552344.840 0
 88  2 24  7  1 59.0800000  0  4  6  8 11  9
  -5544260.385 7  -4320203.280 7  20698930.183 0  20698930.585 0
   8574041.961 7   6681071.830 7  21891359.765 0  21891360.388 0
  -9521880.661 7  -7197725.165 7  20586045.974 0  20586047.733 0
 -17756850.788 7 -13681153.798 6  20542063.111 0  20542063.608 0
 88  2 24  7  2 29.0800000  0  4  6  8 11  9
  -5514240.379 8  -4296811.082 6  20704642.619 0  20704643.505 0
   8664538.414 7   6751588.534 7  21908580.426 0  21908581.428 0
  -9509430.900 7  -7188024.040 7  20588415.325 0  20588416.609 0
 -17810433.458 7 -13722906.517 7  20531866.224 0  20531866.925 0
 88  2 24  7  2 59.0800000  0  4  6  8 11  9
  -5483658.863 7  -4272981.334 7  20710461.625 0  20710463.029 0
   8755261.102 7   6822281.544 8  21925845.141 0  21925844.391 0
  -9496514.211 7  -7177959.081 6  20590874.431 0  20590875.604 0
 -17863565.900 7 -13764308.413 7  20521756.009 0  20521756.515 0
 88  2 24  7  3 29.0800000  0  4  6  8 11  9
  -5452515.466 7  -4248713.761 7  20716388.728 0  20716389.757 0
   8846206.611 8   6893148.177 8  21943150.425 0  21943150.541 0
  -9483132.306 7  -7167531.619 6  20593420.681 0  20593422.303 0
 -17916245.457 7 -13805357.420 7  20511730.873 0  20511730.996 0
 88  2 24  7  3 59.0800000  0  4  6  8 11  9
  -5420810.074 7  -4224008.268 6  20722421.630 0  20722422.431 0
   8937372.128 7   6964186.239 7  21960498.484 0  21960499.921 0
  -9469286.766 7  -7156742.878 6  20596054.434 0  20596055.664 0
 -17968469.705 6 -13846051.645 7  20501792.694 0  20501792.523 0
 88  2 24  7  4 29.0800000  0  4  6  8 11  9
  -5388542.168 7  -4198864.451 7  20728562.169 0  20728562.436 0
   9028754.441 7   7035393.246 7  21977888.118 0  21977889.031 0
  -9454979.400 7  -7145594.267 7  20598776.967 0  20598778.336 0
 -18020235.507 6 -13886388.633 6  20491942.897 0  20491942.801 0
 88  2 24  7  4 59.0800000  0  4  6  8 11  9
  -5355711.741 6  -4173282.297 6  20734810.167 0  20734810.518 0
   9120350.806 7   7106767.031 7  21995318.860 0  21995319.455 0
  -9440211.689 7  -7134086.954 6  20601586.686 0  20601588.914 0
 -18071540.403 7 -13926366.459 7  20482178.628 0  20482179.904 0
 88  2 24  7  5 29.0800000  0  4  6  8 11  9
  -5322318.466 7  -4147261.574 6  20741163.962 0  20741165.308 0
   9212158.050 7   7178305.150 7  22012788.748 0  22012790.394 0
  -9424985.656 6  -7122222.504 7  20604484.578 0  20604487.791 0
 -18122381.275 7 -13965982.722 6  20472504.013 0  20472504.994 0
 88  2 24  7  5 59.0800000  0  4  6  8 11  9
  -5288362.331 7  -4120802.240 7  20747625.998 0  20747625.867 0
   9304172.942 7   7250005.066 7  22030298.509 0  22030299.484 0
  -9409302.734 7  -7110002.053 6  20607468.731 0  20607471.469 0
 -18172755.940 7 -14005235.713 7  20462919.456 0  20462918.668 0
 88  2 24  7  6 29.0800000  0  4  6  8 11  9
  -5253843.103 7  -4093904.149 6  20754195.294 0  20754195.164 0
   9396392.738 7   7321864.653 8  22047847.666 0  22047848.617 0
  -9393164.440 7  -7097426.737 6  20610540.498 0  20610541.575 0
 -18222661.472 7 -14044123.130 6  20453421.893 0  20453422.476 0
 88  2 24  7  6 59.0800000  0  4  6  8 11  9
  -5218760.628 7  -4066567.161 7  20760870.537 0  20760871.112 0
   9488814.288 7   7393881.446 7  22065435.228 0  22065435.269 0
  -9376572.620 7  -7084498.034 6  20613698.986 0  20613698.361 0
 -18272095.120 7 -14082642.851 7  20444015.401 0  20444015.258 0
 88  2 24  7  7 29.0800000  0  4  6  8 11  9
  -5183114.913 7  -4038791.284 7  20767653.214 0  20767654.070 0
   9581434.614 7   7466053.127 7  22083059.456 0  22083060.445 0
  -9359529.255 7  -7071217.495 7  20616940.582 0  20616942.364 0
 -18321054.288 7 -14120792.854 6  20434698.703 0  20434699.020 0
 88  2 24  7  7 59.0800000  0  4  6  8 11  9
  -5146905.808 7  -4010576.407 6  20774545.068 0  20774545.515 0
   9674250.731 7   7538377.378 7  22100721.527 0  22100722.274 0
  -9342036.240 7  -7057586.568 6  20620269.899 0  20620271.975 0
 -18369536.521 7 -14158571.216 6  20425473.772 0  20425473.566 0
 88  2 24  7  8 29.0800000  0  4  6  8 11  9
  -5110133.271 7  -3981922.498 7  20781540.978 0  20781543.022 0
   9767259.662 7   7610851.875 7  22118421.098 0  22118421.832 0
  -9324095.209 6  -7043606.532 7  20623684.149 0  20623685.205 0
 -18417538.991 7 -14195975.726 6  20416338.159 0  20416337.691 0
 88  2 24  7  8 59.0800000  0  4  6  8 11  9
  -5072797.296 7  -3952829.532 7  20788646.526 0  20788647.958 0
   9860458.523 7   7683474.359 7  22136156.774 0  22136156.887 0
  -9305707.758 7  -7029278.648 6  20627182.859 0  20627184.426 0
 -18465058.985 7 -14233004.295 6  20407295.585 0  20407296.146 0
 88  2 24  7  9 29.0800000  0  4  6  8 11  9
  -5034897.928 7  -3923297.557 7  20795858.878 0  20795859.122 0
   9953844.455 7   7756242.611 7  22153927.397 0  22153927.489 0
  -9286876.066 7  -7014604.598 7  20630766.511 0  20630768.216 0
 -18512093.950 7 -14269654.920 6  20398345.132 0  20398344.259 0
 88  2 24  7  9 59.0800000  0  4  6  8 11  9
  -4996435.088 7  -3893326.524 7  20803178.179 0  20803178.518 0
  10047414.325 7   7829154.212 7  22171732.205 0  22171733.199 0
  -9267601.693 7  -6999585.601 6  20634434.784 0  20634435.690 0
 -18558641.167 7 -14305925.487 6  20389487.315 0  20389487.410 0
 88  2 24  7 10 29.0800000  0  4  6  8 11  9
  -4957408.906 7  -3862916.517 7  20810603.767 0  20810605.266 0
  10141165.363 7   7902206.952 7  22189573.057 0  22189573.563 0
  -9247886.493 7  -6984223.105 6  20638186.560 0  20638189.111 0
 -18604698.134 7 -14341814.037 7  20380722.444 0  20380723.114 0
 88  2 24  7 10 59.0800000  0  4  6  8 11  9
  -4917819.385 7  -3832067.548 7  20818137.731 0  20818139.030 0
  10235094.337 7   7975398.382 7  22207446.976 0  22207447.865 0
  -9227731.990 7  -6968518.283 7  20642021.034 0  20642022.539 0
 -18650262.222 7 -14377318.506 6  20372052.625 0  20372052.208 0
 88  2 24  7 11 29.0800000  0  4  6  8 11  9
  -4877666.722 7  -3800779.761 6  20825778.442 0  20825780.030 0
  10329198.651 7   8048726.406 7  22225354.163 0  22225356.327 0
  -9207140.182 6  -6952472.717 7  20645940.039 0  20645940.922 0
 -18695330.811 7 -14412436.889 6  20363476.252 0  20363475.657 0
 88  2 24  7 11 59.0800000  0  4  6  8 11  9
  -4836950.914 7  -3769053.178 7  20833526.443 0  20833527.200 0
  10423474.862 7   8122188.376 7  22243295.273 0  22243296.098 0
  -9186113.029 7  -6936087.923 7  20649941.058 0  20649942.774 0
 -18739901.245 7 -14447167.099 6  20354994.500 0  20354994.924 0
 88  2 24  7 12 29.0800000  0  4  6  8 11  9
  -4795672.163 7  -3736887.919 7  20841381.853 0  20841382.951 0
  10517920.485 7   8195782.365 7  22261267.668 0  22261267.331 0
  -9164652.721 7  -6919365.593 6  20654025.457 0  20654026.394 0
 -18783971.137 7 -14481507.272 7  20346608.738 0  20346608.536 0
 88  2 24  7 12 59.0800000  0  4  6  8 11  9
  -4753830.729 7  -3704284.204 7  20849344.321 0  20849345.288 0
  10612532.538 7   8269506.041 7  22279271.379 0  22279271.764 0
  -9142760.884 7  -6902307.021 6  20658190.714 0  20658192.402 0
 -18827537.776 7 -14515455.300 6  20338318.321 0  20338318.711 0
 88  2 24  7 13 29.0800000  0  4  6  8 11  9
  -4711426.676 7  -3671242.098 7  20857412.707 0  20857413.705 0
  10707307.798 7   8343356.899 7  22297307.122 0  22297306.456 0
  -9120439.367 7  -6884913.628 7  20662438.355 0  20662439.639 0
 -18870598.838 7 -14549009.378 7  20330123.901 0  20330124.654 0
 88  2 24  7 13 59.0800000  0  4  6  8 11  9
  -4668460.400 7  -3637761.892 8  20865589.211 0  20865590.082 0
  10802243.811 7   8417333.001 7  22315372.017 0  22315372.949 0
  -9097690.082 7  -6867186.909 7  20666766.857 0  20666769.549 0
 -18913151.884 7 -14582167.598 6  20322027.111 0  20322025.623 0
 88  2 24  7 14 29.0800000  0  4  6  8 11  9
  -4624931.940 7  -3603843.619 7  20873872.920 0  20873874.422 0
  10897337.690 7   8491432.134 7  22333467.939 0  22333468.551 0
  -9074514.821 7  -6849128.247 6  20671177.560 0  20671179.110 0
 -18955193.984 7 -14614927.675 6  20314025.609 0  20314027.009 0
 88  2 24  7 14 59.0800000  0  4  6  8 11  9
  -4580841.751 7  -3569487.624 7  20882262.891 0  20882263.648 0
  10992586.667 8   8565652.104 7  22351593.473 0  22351594.113 0
  -9050915.899 7  -6830739.476 7  20675668.042 0  20675669.907 0
 -18996722.759 7 -14647287.767 6  20306123.053 0  20306122.830 0
 88  2 24  7 15 29.0800000  0  4  6  8 11  9
  -4536190.064 7  -3534694.120 7  20890759.925 0  20890761.453 0
  11087987.867 7   8639990.703 7  22369747.671 0  22369747.743 0
  -9026895.046 7  -6812021.928 7  20680239.071 0  20680241.116 0
 -19037735.848 7 -14679246.013 6  20298317.952 0  20298319.329 0
 88  2 24  7 15 59.0800000  0  4  6  8 11  9
  -4490977.180 7  -3499463.300 7  20899363.699 0  20899364.886 0
  11183538.183 7   8714445.490 7  22387929.672 0  22387930.373 0
  -9002454.242 7  -6792977.134 7  20684890.088 0  20684890.660 0
 -19078230.842 7 -14710800.555 6  20290613.207 0  20290612.932 0
 88  2 24  7 16 29.0800000  0  4  6  8 11  9
  -4445203.597 7  -3463795.584 7  20908074.422 0  20908074.262 0
  11279234.949 7   8789014.383 7  22406140.329 0  22406140.760 0
  -8977595.452 7  -6773606.654 7  20689620.038 0  20689621.937 0
 -19118205.465 7 -14741949.615 6  20283005.795 0  20283005.999 0
 88  2 24  7 16 59.0800000  0  4  6  8 11  9
  -4398869.640 7  -3427691.208 7  20916891.092 0  20916892.335 0
  11375075.412 7   8863695.267 7  22424378.011 0  22424378.521 0
  -8952320.580 6  -6753911.944 6  20694429.721 0  20694431.978 0
 -19157656.854 7 -14772690.971 5  20275498.816 0  20275498.965 0
 88  2 24  7 17 29.0800000  0  4  6  8 11  9
  -4351976.033 7  -3391150.743 7  20925813.849 0  20925816.353 0
  11471056.130 7   8938485.432 7  22442642.097 0  22442643.013 0
  -8926632.190 7  -6733895.013 6  20699318.479 0  20699318.939 0
 -19196583.159 6 -14803023.153 6  20268090.929 0  20268090.898 0
 88  2 24  7 17 59.0800000  0  4  6  8 11  9
  -4304522.791 6  -3354174.200 7  20934843.555 0  20934845.175 0
  11567174.759 7   9013383.068 7  22460934.069 0  22460934.421 0
  -8900531.696 7  -6713556.965 6  20704285.753 0  20704287.864 0
 -19234981.698 6 -14832944.097 6  20260783.778 0  20260784.418 0
 88  2 24  7 18 29.0800000  0  4  6  8 11  9
  -4256510.400 7  -3316761.956 7  20943981.154 0  20943982.097 0
  11663428.472 8   9088385.967 8  22479250.144 0  22479251.307 0
  -8874021.147 7  -6692899.389 7  20709329.711 0  20709331.368 0
 -19272849.866 7 -14862451.755 6  20253578.218 0  20253578.994 0
 88  2 24  7 18 59.0800000  0  4  6  8 11  9
  -4207939.268 7  -3278914.325 7  20953224.324 0  20953224.608 0
  11759814.452 7   9163491.951 7  22497591.227 0  22497591.735 0
  -8847102.288 7  -6671923.650 7  20714452.122 0  20714453.921 0
 -19310185.260 7 -14891544.271 6  20246472.828 0  20246472.350 0
 88  2 24  7 19 29.0800000  0  4  6  8 11  9
  -4158810.015 7  -3240631.799 7  20962572.062 0  20962573.778 0
  11856330.259 7   9238699.060 7  22515958.054 0  22515959.291 0
  -8819777.097 7  -6650631.294 6  20719651.802 0  20719654.334 0
 -19346985.660 7 -14920219.921 7  20239469.913 0  20239471.034 0
 88  2 24  7 19 59.0800000  0  4  6  8 11  9
  -4109122.933 7  -3201914.591 7  20972027.238 0  20972029.071 0
  11952972.817 7   9314004.939 7  22534348.207 0  22534349.726 0
  -8792047.962 6  -6629024.178 6  20724929.611 0  20724931.296 0
 -19383248.799 6 -14948476.913 7  20232569.584 0  20232571.033 0
 88  2 24  7 20 29.0800000  0  4  6  8 11  9
  -4058878.918 7  -3162763.435 7  20981588.442 0  20981590.259 0
  12049739.353 7   9389407.424 7  22552762.387 0  22552763.703 0
  -8763916.970 6  -6607103.924 7  20730282.093 0  20730283.900 0
 -19418972.320 7 -14976313.413 6  20225770.829 0  20225772.381 0
 88  2 24  7 20 59.0800000  0  4  6  8 11  9
  -4008078.538 7  -3123178.724 7  20991255.594 0  20991256.908 0
  12146626.813 7   9464904.141 7  22571199.278 0  22571200.967 0
  -8735386.122 6  -6584872.095 7  20735710.814 0  20735713.329 0
 -19454154.105 6 -15003727.785 6  20219076.775 0  20219077.994 0
 88  2 24  7 21 29.0800000  0  4  6  8 11  9
  -3956722.294 7  -3083160.874 7  21001028.947 0  21001029.607 0
  12243633.198 8   9540493.531 8  22589659.060 0  22589660.410 0
  -8706457.385 7  -6562330.232 7  20741215.939 0  20741218.288 0
 -19488791.662 7 -15030718.095 6  20212485.116 0  20212486.184 0
 88  2 24  7 21 59.0800000  0  4  6  8 11  9
  -3904810.726 7  -3042710.319 7  21010906.417 0  21010907.842 0
  12340755.617 7   9616173.344 8  22608141.087 0  22608141.527 0
  -8677132.691 7  -6539479.813 6  20746796.567 0  20746797.470 0
 -19522882.354 7 -15057282.269 6  20205998.675 0  20205998.780 0
 88  2 24  7 22 29.0800000  0  4  6  8 11  9
  -3852344.636 7  -3001827.645 7  21020891.234 0  21020891.214 0
  12437991.090 7   9691941.245 7  22626644.699 0  22626644.836 0
  -8647414.308 6  -6516322.628 7  20752451.500 0  20752452.973 0
 -19556424.455 7 -15083418.980 6  20199613.845 0  20199615.657 0
 88  2 24  7 22 59.0800000  0  4  6  8 11  9
  -3799324.743 7  -2960513.459 7  21030980.386 0  21030981.060 0
  12535336.792 8   9767795.053 7  22645168.312 0  22645169.904 0
  -8617304.482 7  -6492860.420 6  20758180.577 0  20758183.862 0
 -19589415.740 7 -15109126.458 6  20193337.344 0  20193337.658 0
 88  2 24  7 23 29.0800000  0  4  6  8 11  9
  -3745751.561 7  -2918768.135 7  21041174.061 0  21041175.805 0
  12632790.538 7   9843733.032 7  22663713.279 0  22663713.863 0
  -8586804.911 6  -6469094.526 7  20763983.352 0  20763987.922 0
 -19621853.746 7 -15134402.824 6  20187163.672 0  20187165.072 0
 88  2 24  7 23 59.0800000  0  4  6  8 11  9
  -3691625.825 7  -2876592.237 6  21051474.967 0  21051476.097 0
  12730349.304 7   9919752.846 7  22682278.674 0  22682279.636 0
  -8555917.848 7  -6445026.695 6  20769863.006 0  20769864.765 0
 -19653736.160 7 -15159246.268 6  20181096.662 0  20181097.855 0
 88  2 24  7 24 29.0800000  0  4  6  8 11  9
  -3636948.243 7  -2833986.335 6  21061879.699 0  21061880.797 0
  12828010.407 6   9995852.404 7  22700862.373 0  22700862.526 0
  -8524645.664 7  -6420658.752 7  20775813.904 0  20775814.899 0
 -19685061.004 7 -15183655.231 6  20175137.711 0  20175136.780 0
 88  2 24  7 24 59.0800000  0  4  6  8 11  9
  -3581719.507 7  -2790950.973 7  21072389.518 0  21072390.674 0
  12925771.298 7  10072029.704 7  22719465.199 0  22719466.530 0
  -8492989.997 7  -6395991.992 6  20781836.675 0  20781839.452 0
 -19715825.849 7 -15207627.843 6  20169282.730 0  20169282.917 0
 88  2 24  7 25 29.0800000  0  4  6  8 11  9
  -3525940.550 7  -2747486.855 7  21083003.133 0  21083004.679 0
  13023629.284 7  10148282.691 7  22738087.339 0  22738087.794 0
  -8460953.052 7  -6371028.152 7  20787934.288 0  20787935.924 0
 -19746028.500 6 -15231162.392 6  20163535.285 0  20163536.131 0
 88  2 24  7 25 59.0800000  0  4  6  8 11  9
  -3469612.124 7  -2703594.572 7  21093722.211 0  21093723.383 0
  13121582.090 6  10224609.555 7  22756727.757 0  22756727.991 0
  -8428536.796 7  -6345768.735 6  20794103.422 0  20794105.046 0
 -19775667.098 6 -15254257.402 6  20157895.481 0  20157896.126 0
 88  2 24  7 26 29.0800000  0  4  6  8 11  9
  -3412735.150 7  -2659274.866 7  21104546.605 0  21104547.004 0
  13219626.847 7  10301008.072 7  22775384.998 0  22775385.976 0
  -8395743.579 8  -6320215.574 7  20800343.400 0  20800345.234 0
 -19804739.375 6 -15276911.121 6  20152362.641 0  20152363.864 0
 88  2 24  7 26 59.0800000  0  4  6  8 11  9
  -3355310.260 7  -2614528.206 7  21115473.397 0  21115474.163 0
  13317760.940 7  10377476.198 7  22794058.600 0  22794059.853 0
  -8362575.521 7  -6294370.333 6  20806655.795 0  20806656.091 0
 -19833243.283 6 -15299121.955 6  20146939.144 0  20146938.711 0
 88  2 24  7 27 29.0800000  0  4  6  8 11  9
  -3297338.565 7  -2569355.468 6  21126505.843 0  21126505.566 0
  13415981.658 7  10454011.808 7  22812749.798 0  22812750.555 0
  -8329034.887 7  -6268234.778 7  20813037.729 0  20813038.919 0
 -19861176.783 7 -15320888.319 6  20141622.737 0  20141623.655 0
 88  2 24  7 27 59.0800000  0  4  6  8 11  9
  -3238821.109 7  -2523757.455 7  21137640.687 0  21137641.554 0
  13514286.600 7  10530613.060 7  22831457.001 0  22831457.330 0
  -8295123.865 7  -6241810.601 7  20819489.844 0  20819492.124 0
 -19888537.840 6 -15342208.627 6  20136415.897 0  20136416.776 0
 88  2 24  7 28 29.0800000  0  4  6 13 11  9
  -3179758.626 8  -2477734.748 6  21148880.328 0  21148880.753 0
          .073 7         -.440 7  21410637.062 0          .000 0
  -8260844.226 7  -6215099.185 6  20826013.483 0  20826016.121 0
 -19915324.266 6 -15363081.175 5  20131319.133 0  20131320.024 0
 88  2 24  7 28 59.0800000  0  4  6 13 11  9
  -3120152.236 7  -2431288.222 6  21160223.057 0  21160223.085 0
    -56134.011 7  55921621.079 6  21399983.179 0  21399984.157 0
  -8226198.104 7  -6188102.212 7  20832605.974 0  20832609.327 0
 -19941534.397 7 -15383504.652 6  20126331.960 0  20126332.374 0
 88  2 24  7 29 29.0800000  0  4  6 13 11  9
  -3060002.804 8  -2384418.535 7  21171669.185 0  21171670.355 0
   -111822.374 7  55878227.543 6  21389385.946 0  21389388.575 0
  -8191187.936 7  -6160821.563 7  20839268.042 0  20839271.012 0
 -19967166.016 7 -15403477.347 7  20121453.598 0  20121454.071 0
 88  2 24  7 29 59.0800000  0  4  6 13 11  9
  -2999311.413 8  -2337126.554 7  21183217.853 0  21183217.878 0
   -167064.685 7  55835181.584 6  21378874.195 0  21378876.851 0
  -8155816.063 8  -6133259.059 7  20846000.220 0  20846001.604 0
 -19992217.258 7 -15422997.800 6  20116687.272 0  20116688.239 0
 88  2 24  7 30 29.0800000  0  4  6 13 11  9
  -2938078.974 7  -2289412.972 7  21194869.772 0  21194871.202 0
   -221861.013 7  55792483.160 6  21368447.056 0  21368448.618 0
  -8120084.371 7  -6105416.182 6  20852799.341 0  20852800.691 0
 -20016685.743 6 -15442064.156 7  20112031.439 0  20112030.947 0
 88  2 24  7 30 59.0800000  0  4  6 13 11  9
  -2876306.736 8  -2241278.771 7  21206625.120 0  21206626.040 0
   -276211.439 7  55750132.184 6  21358103.938 0  21358105.282 0
  -8083995.026 7  -6077294.616 6  20859666.915 0  20859668.565 0
 -20040569.999 6 -15460675.259 6  20107486.709 0  20107486.385 0
 88  2 24  7 31 29.0800000  0  4  6 13 11  9
  -2813995.650 7  -2192724.676 6  21218482.554 0  21218481.734 0
   -330115.392 7  55708129.121 6  21347846.643 0  21347847.674 0
  -8047550.400 7  -6048896.213 6  20866602.426 0  20866604.208 0
 -20063867.987 7 -15478829.538 6  20103051.883 0  20103052.660 0
 88  2 24  7 31 59.0800000  0  4  6 13 11  9
  -2751146.789 7  -2143751.550 7  21230442.925 0  21230442.508 0
   -383573.116 7  55666473.754 7  21337673.105 0  21337675.469 0
  -8010752.566 7  -6020222.566 6  20873604.421 0  20873606.291 0
 -20086577.737 7 -15496525.449 6  20098730.938 0  20098730.938 0
 88  2 24  7 32 29.0800000  0  4  6 13 11  9
  -2687761.145 7  -2094360.157 6  21242504.662 0  21242505.547 0
   -436583.982 7  55625166.611 6  21327586.951 0  21327589.860 0
  -7973603.763 8  -5991275.443 6  20880674.078 0  20880675.662 0
 -20108697.206 7 -15513761.397 6  20094521.462 0  20094522.582 0
 88  2 24  7 32 59.0800000  0  4  6 13 11  9
  -2623840.154 8  -2044551.588 7  21254667.789 0  21254669.466 0
   -489147.523 7  55584208.002 7  21317583.118 0  21317586.082 0
  -7936106.058 7  -5962056.448 6  20887809.108 0  20887810.037 0
 -20130224.812 6 -15530536.168 6  20090425.400 0  20090424.706 0
 88  2 24  7 33 29.0800000  0  4  6 13 11  9
  -2559384.769 8  -1994326.626 6  21266933.376 0  21266934.493 0
   -541264.339 7  55543597.491 6  21307666.819 0  21307669.280 0
  -7898261.717 8  -5932567.356 7  20895010.921 0  20895012.208 0
 -20151158.816 6 -15546848.382 6  20086440.380 0  20086442.045 0
 88  2 24  7 33 59.0800000  0  4  6 13 11  9
  -2494396.148 7  -1943686.151 6  21279300.128 0  21279300.088 0
   -592933.664 7  55503335.705 6  21297834.159 0  21297835.927 0
  -7860072.487 8  -5902809.517 6  20902278.177 0  20902280.093 0
 -20171497.322 6 -15562696.581 6  20082570.673 0  20082571.168 0
 88  2 24  7 34 29.0800000  0  4  6 13 11  9
  -2428875.697 7  -1892631.267 7  21291768.504 0  21291769.443 0
   -644155.777 7  55463422.373 6  21288087.146 0  21288089.370 0
  -7821541.216 7  -5872785.134 6  20909610.347 0  20909611.282 0
 -20191238.335 7 -15578079.180 6  20078814.716 0  20078815.356 0
 88  2 24  7 34 59.0800000  0  4  6 13 11  9
  -2362824.507 7  -1841162.823 7  21304337.617 0  21304338.835 0
   -694930.365 7  55423857.750 7  21278424.620 0  21278427.275 0
  -7782669.617 7  -5842495.582 6  20917007.124 0  20917007.720 0
 -20210380.331 6 -15592995.020 6  20075171.404 0  20075171.757 0
 88  2 24  7 35 29.0800000  0  4  6 13 11  9
  -2296243.828 7  -1789281.769 6  21317008.496 0  21317008.251 0
   -745257.588 7  55384641.750 6  21268847.809 0  21268849.920 0
  -7743460.277 7  -5811942.840 6  20924468.188 0  20924470.405 0
 -20228921.213 7 -15607442.479 6  20071642.475 0  20071643.295 0
 88  2 24  7 35 59.0800000  0  4  6 13 11  9
  -2229135.059 7  -1736989.242 7  21329778.195 0  21329777.909 0
   -795137.443 7  55345774.325 6  21259356.083 0  21259357.761 0
  -7703915.411 7  -5781128.658 6  20931993.275 0  20931994.242 0
 -20246859.791 7 -15621420.582 6  20068229.732 0  20068230.826 0
 88  2 24  7 36 29.0800000  0  4  6 13 11  9
  -2161499.394 7  -1684286.140 7  21342648.142 0  21342649.889 0
   -844569.844 7  55307255.592 6  21249949.329 0  21249949.983 0
  -7664037.197 6  -5750054.721 6  20939582.325 0  20939583.356 0
 -20264194.026 7 -15634927.800 6  20064930.279 0  20064931.464 0
 88  2 24  7 36 59.0800000  0  4  6 13 11  9
  -2093338.268 7  -1631173.587 7  21355619.718 0  21355619.471 0
   -893554.549 7  55269085.688 6  21240628.007 0  21240629.843 0
  -7623827.661 7  -5718722.606 6  20947233.688 0  20947235.483 0
 -20280922.382 6 -15647962.883 6  20061747.617 0  20061749.074 0
 88  2 24  7 37 29.0800000  0  4  6 13 11  9
  -2024653.002 7  -1577652.613 7  21368689.591 0  21368691.150 0
   -942092.188 7  55231264.167 7  21231392.289 0  21231393.021 0
  -7583289.076 8  -5687134.117 7  20954946.869 0  20954948.968 0
 -20297043.281 6 -15660524.646 5  20058679.953 0  20058679.592 0
 88  2 24  7 37 59.0800000  0  4  6 13 11  9
  -1955444.977 7  -1523724.297 7  21381858.629 0  21381860.561 0
   -990182.422 6  55193791.262 7  21222240.927 0  21222242.839 0
  -7542423.654 7  -5655290.919 6  20962724.393 0  20962726.420 0
 -20312554.946 6 -15672611.648 6  20055728.750 0  20055728.977 0
 88  2 24  7 38 29.0800000  0  4  6 13 11  9
  -1885715.497 7  -1469389.644 7  21395128.578 0  21395130.110 0
  -1037825.195 8  55156667.037 7  21213173.864 0  21213176.299 0
  -7501233.501 7  -5623194.694 6  20970562.717 0  20970565.609 0
 -20327455.891 6 -15684222.779 6  20052892.199 0  20052893.369 0
 88  2 24  7 38 59.0800000  0  4  6 13 11  9
  -1815465.995 7  -1414649.769 7  21408497.234 0  21408496.285 0
  -1085020.791 7  55119891.253 6  21204193.000 0  21204195.278 0
  -7459721.276 7  -5590847.505 7  20978462.387 0  20978463.573 0
 -20341744.446 6 -15695356.720 6  20050174.436 0  20050174.427 0
 88  2 24  7 39 29.0800000  0  4  6 13 11  9
  -1744698.023 7  -1359505.914 7  21421963.186 0  21421964.889 0
  -1131768.687 7  55083464.327 7  21195296.541 0  21195298.280 0
  -7417889.083 7  -5558250.980 6  20986421.910 0  20986424.687 0
 -20355419.008 6 -15706012.226 6  20047572.494 0  20047571.794 0
 88  2 24  7 39 59.0800000  0  4  6 13 11  9
  -1673413.010 7  -1303959.161 7  21435528.218 0  21435529.565 0
  -1178069.150 7  55047386.028 6  21186486.751 0  21186487.945 0
  -7375738.995 7  -5525406.764 7  20994442.764 0  20994444.446 0
 -20368478.290 7 -15716188.300 6  20045085.724 0  20045086.610 0
 88  2 24  7 40 29.0800000  0  4  6 13 11  9
  -1601612.418 7  -1248010.647 7  21449191.323 0  21449192.825 0
  -1223922.838 8  55011655.900 7  21177760.155 0  21177763.119 0
  -7333273.358 7  -5492316.653 6  21002524.920 0  21002525.476 0
 -20380920.685 6 -15725883.682 6  20042718.917 0  20042720.897 0
 88  2 24  7 40 59.0800000  0  4  6 13 11  9
  -1529297.760 7  -1191661.581 7  21462952.706 0  21462954.255 0
  -1269329.737 7  54976273.904 6  21169120.586 0  21169121.645 0
  -7290494.105 7  -5458982.173 6  21010664.503 0  21010665.896 0
 -20392744.788 6 -15735097.274 6  20040468.250 0  20040468.381 0
 88  2 24  7 41 29.0800000  0  4  6 13 11  9
  -1456470.611 7  -1134913.161 7  21476810.160 0  21476812.106 0
  -1314290.098 7  54941239.875 7  21160565.037 0  21160565.988 0
  -7247403.877 7  -5425405.384 6  21018864.661 0  21018867.484 0
 -20403949.256 7 -15743828.021 6  20038336.521 0  20038335.125 0
 88  2 24  7 41 59.0800000  0  4  6 13 11  9
  -1383132.383 6  -1077766.508 7  21490767.325 0  21490767.852 0
  -1358803.550 8  54906554.067 6  21152094.076 0  21152096.106 0
  -7204004.606 7  -5391587.767 7  21027123.125 0  21027126.074 0
 -20414532.355 7 -15752074.601 6  20036321.934 0  20036323.823 0
 88  2 24  7 42 29.0800000  0  4  6 13 11  9
  -1309284.730 8  -1020222.882 6  21504819.726 0  21504821.300 0
  -1402870.561 7  54872216.143 6  21143707.592 0  21143710.249 0
  -7160298.852 7  -5357531.333 7  21035440.724 0  21035442.005 0
 -20424493.007 7 -15759836.142 6  20034426.994 0  20034427.718 0
 88  2 24  7 42 59.0800000  0  4  6 13 11  9
  -1234929.066 7   -962283.418 7  21518969.260 0  21518969.331 0
  -1446491.787 8  54838225.582 6  21135406.612 0  21135409.642 0
  -7116288.673 8  -5323237.690 7  21043814.887 0  21043816.345 0
 -20433829.760 6 -15767111.547 6  20032650.461 0  20032651.204 0
 88  2 24  7 43 29.0800000  0  4  6 13 11  9
  -1160067.315 7   -903949.588 7  21533214.463 0  21533215.142 0
  -1489667.239 8  54804582.374 7  21127191.390 0  21127192.728 0
  -7071976.167 7  -5288708.451 6  21052247.800 0  21052249.783 0
 -20442541.160 7 -15773899.676 6  20030992.620 0  20030995.060 0
 88  2 24  7 43 59.0800000  0  4  6 13 11  9
  -1084701.009 7   -845222.599 7  21547556.656 0  21547557.344 0
  -1532396.694 8  54771286.712 6  21119060.382 0  21119061.412 0
  -7027363.952 7  -5253945.698 7  21060736.482 0  21060737.383 0
 -20450625.811 6 -15780199.394 6  20029452.858 0  20029454.989 0
 88  2 24  7 44 29.0800000  0  4  6 13 11  9
  -1008831.745 7   -786103.709 7  21561994.379 0  21561994.507 0
  -1574680.807 7  54738338.055 7  21111012.871 0  21111015.716 0
  -6982453.934 7  -5218950.885 7  21069283.610 0  21069283.668 0
 -20458082.882 7 -15786010.094 6  20028035.403 0  20028035.515 0
 88  2 24  7 44 59.0800000  0  4  6 13 11  9
   -932461.159 7   -726594.168 6  21576526.714 0  21576528.212 0
  -1616520.086 7  54705736.041 6  21103052.765 0  21103052.615 0
  -6937248.499 7  -5183725.870 7  21077886.216 0  21077886.790 0
 -20464910.770 6 -15791330.540 6  20026736.339 0  20026736.972 0
 88  2 24  7 45 29.0800000  0  4  6 13 11  9
   -855590.943 7   -666695.298 6  21591154.685 0  21591156.417 0
  -1657913.971 7  54673481.064 7  21095174.964 0  21095176.251 0
  -6891750.095 8  -5148272.560 6  21086543.503 0  21086545.185 0
 -20471108.170 7 -15796159.689 6  20025555.721 0  20025557.979 0
 88  2 24  7 45 59.0800000  0  4  6 13 11  9
   -778222.763 7   -606408.410 7  21605876.990 0  21605878.090 0
  -1698863.031 7  54641572.713 6  21087382.798 0  21087384.806 0
  -6845960.663 7  -5112592.491 7  21095256.397 0  21095258.757 0
 -20476673.831 6 -15800496.595 6  20024497.399 0  20024497.819 0
 88  2 24  7 46 29.0800000  0  4  6 13 11  9
   -700358.430 7   -545734.907 8  21620694.734 0  21620695.364 0
  -1739367.880 8  54610010.506 6  21079674.910 0  21079676.368 0
  -6799882.485 7  -5076687.420 7  21104025.453 0  21104026.875 0
 -20481606.896 6 -15804340.530 6  20023559.464 0  20023560.308 0
 88  2 24  7 46 59.0800000  0  4  6 13 11  9
   -621999.689 7   -484676.159 7  21635605.859 0  21635606.371 0
  -1779429.416 8  54578793.739 7  21072051.106 0  21072053.317 0
  -6753517.888 7  -5040559.168 6  21112847.869 0  21112850.129 0
 -20485905.857 6 -15807690.367 5  20022741.006 0  20022740.063 0
 88  2 24  7 47 29.0800000  0  4  6 13 11  9
   -543148.308 7   -423233.533 7  21650610.220 0  21650611.793 0
  -1819047.483 8  54547922.528 6  21064512.659 0  21064514.443 0
  -6706869.110 7  -5004209.466 7  21121724.945 0  21121726.681 0
 -20489569.913 6 -15810545.511 6  20022044.510 0  20022045.178 0
 88  2 24  7 47 59.0800000  0  4  6 13 11  9
   -463806.108 7   -361408.459 7  21665708.455 0  21665710.777 0
  -1858222.539 7  54517396.527 7  21057058.297 0  21057058.489 0
  -6659938.189 7  -4967639.919 7  21130656.105 0  21130657.626 0
 -20492597.814 7 -15812904.889 6  20021465.735 0  20021468.085 0
 88  2 24  7 48 29.0800000  0  4  6 13 11  9
   -383974.796 7   -299202.263 7  21680900.904 0  21680901.598 0
  -1896955.025 7  54487215.371 6  21049686.867 0  21049689.576 0
  -6612727.634 7  -4930852.471 7  21139640.432 0  21139641.412 0
 -20494988.547 6 -15814767.803 6  20021012.484 0  20021011.794 0
 88  2 24  7 48 59.0800000  0  4  6 13 11  9
   -303656.374 7   -236616.499 7  21696183.722 0  21696185.380 0
  -1935244.663 7  54457379.299 6  21042400.526 0  21042402.916 0
  -6565239.740 7  -4893848.923 7  21148676.135 0  21148678.011 0
 -20496740.920 6 -15816133.303 7  20020679.147 0  20020678.310 0
 88  2 24  7 49 29.0800000  0  4  6 13 11  9
   -222852.707 8   -173652.601 7  21711560.470 0  21711561.369 0
  -1973092.852 8  54427887.224 6  21035199.196 0  21035200.470 0
  -6517476.724 7  -4856630.993 8  21157764.928 0  21157767.742 0
 -20497854.362 6 -15817000.923 5  20020466.590 0  20020466.590 0
 88  2 24  7 49 59.0800000  0  4  6 13 11  9
   -141565.671 7   -110312.055 7  21727028.677 0  21727030.013 0
  -2010500.068 8  54398738.744 6  21028080.249 0  21028082.801 0
  -6469440.962 8  -4819200.536 7  21166906.787 0  21166908.374 0
 -20498327.626 6 -15817369.700 6  20020377.291 0  20020377.732 0
 88  2 24  7 50 29.0800000  0  4  6 13 11  9
    -59797.350 8    -46596.492 7  21742588.986 0  21742590.148 0
  -2047466.613 7  54369933.658 7  21021046.413 0  21021047.594 0
  -6421134.786 7  -4781559.361 7  21176098.697 0  21176100.771 0
 -20498159.854 6 -15817238.987 6  20020408.753 0  20020409.566 0
 88  2 24  7 50 59.0800000  0  4  6 13 11  9
     22450.854 7     17492.996 7  21758240.813 0  21758241.487 0
  -2083992.426 7  54341471.992 6  21014095.109 0  21014096.926 0
  -6372559.875 7  -4743708.777 7  21185342.161 0  21185344.092 0
 -20497349.770 6 -15816607.759 6  20020562.659 0  20020564.657 0
 88  2 24  7 51 29.0800000  0  4  6 13 11  9
    105176.786 8     81954.762 7  21773983.247 0  21773983.659 0
  -2120077.888 7  54313353.454 6  21007228.107 0  21007229.843 0
  -6323718.851 7  -4705650.832 7  21194636.639 0  21194637.139 0
 -20495896.823 6 -15815475.588 6  20020838.572 0  20020841.429 0
 88  2 24  7 51 59.0800000  0  4  6 13 11  9
    188378.452 7    146787.219 7  21789815.371 0  21789816.818 0
  -2155724.063 8  54285577.221 6  21000445.053 0  21000447.299 0
  -6274613.921 7  -4667387.252 7  21203980.986 0  21203982.272 0
 -20493800.018 6 -15813841.714 6  20021239.634 0  20021240.270 0
 88  2 24  7 52 29.0800000  0  4  6 13 11  9
    272053.937 8    211988.873 7  21805738.698 0  21805739.584 0
  -2190931.388 7  54258142.952 6  20993745.191 0  20993747.591 0
  -6225247.419 7  -4628919.856 7  21213374.392 0  21213377.225 0
 -20491058.605 6 -15811705.558 5  20021761.100 0  20021760.122 0
 88  2 24  7 52 59.0800000  0  4  6 13 11  9
    356201.227 8    277558.193 7  21821751.087 0  21821751.663 0
  -2225700.249 7  54231050.344 6  20987128.491 0  20987129.673 0
  -6175621.495 8  -4590250.306 7  21222818.108 0  21222820.210 0
 -20487671.587 6 -15809066.332 6  20022405.437 0  20022407.201 0
 88  2 24  7 53 29.0800000  0  4  6 13 11  9
    440818.291 7    343493.561 7  21837852.448 0  21837853.712 0
  -2260031.464 7  54204298.764 6  20980596.030 0  20980597.317 0
  -6125737.946 7  -4551379.997 6  21232311.295 0  21232312.396 0
 -20483638.446 6 -15805923.623 6  20023172.259 0  20023172.103 0
 88  2 24  7 53 59.0800000  0  4  6 13 11  9
    525903.007 8    409793.320 7  21854044.854 0  21854045.094 0
  -2293925.456 7  54177887.860 6  20974145.749 0  20974146.564 0
  -6075599.449 7  -4512311.040 7  21241853.575 0  21241852.609 0
 -20478958.377 7 -15802276.833 6  20024063.603 0  20024062.898 0
 88  2 24  7 54 29.0800000  0  4  6 13 11  9
    611453.466 8    476456.008 7  21870323.191 0  21870325.739 0
  -2327382.969 7  54151817.071 6  20967778.676 0  20967781.231 0
  -6025208.087 8  -4473045.044 7  21251440.997 0  21251442.223 0
 -20473630.327 6 -15798125.108 6  20025076.194 0  20025077.663 0
 88  2 24  7 54 59.0800000  0  4  6 13 11  9
    697467.682 7    543480.069 7  21886692.222 0  21886693.929 0
  -2360404.562 7  54126085.978 6  20961495.305 0  20961496.685 0
  -5974566.055 8  -4433583.725 7  21261078.284 0  21261079.069 0
 -20467653.816 7 -15793468.095 6  20026213.364 0  20026214.933 0
 88  2 24  7 55 29.0800000  0  4  6 13 11  9
    783943.572 8    610863.870 7  21903147.282 0  21903148.387 0
  -2392990.821 7  54100694.093 6  20955294.542 0  20955296.015 0
  -5923675.800 7  -4393928.979 7  21270762.482 0  21270762.603 0
 -20461028.253 6 -15788305.331 6  20027475.948 0  20027476.317 0
 88  2 24  7 55 59.0800000  0  4  6 13 11  9
    870878.963 7    678605.729 7  21919691.520 0  21919692.234 0
  -2425142.454 7  54075640.885 7  20949175.958 0  20949177.122 0
  -5872539.423 7  -4354082.448 7  21280493.084 0  21280495.591 0
 -20453752.827 6 -15782636.170 6  20028859.814 0  20028860.548 0
 88  2 24  7 56 29.0800000  0  4  6 13 11  9
    958271.726 7    746703.977 7  21936320.975 0  21936322.577 0
  -2456860.381 7  54050925.613 6  20943141.247 0  20943142.656 0
  -5821159.243 7  -4314045.953 7  21290270.275 0  21290272.552 0
 -20445827.210 6 -15776460.362 6  20030369.046 0  20030368.482 0
 88  2 24  7 56 59.0800000  0  4  6 13 11  9
   1046119.818 8    815157.005 7  21953038.271 0  21953038.941 0
  -2488145.333 7  54026547.735 7  20937186.149 0  20937188.403 0
  -5769537.399 7  -4273821.143 7  21300093.848 0  21300095.406 0
 -20437250.716 6 -15769777.397 6  20031999.316 0  20032000.485 0
 88  2 24  7 57 29.0800000  0  4  6 13 11  9
   1134421.168 7    883963.254 7  21969842.126 0  21969842.613 0
  -2518997.321 7  54002507.238 7  20931316.521 0  20931317.383 0
  -5717676.028 7  -4233409.681 7  21309961.721 0  21309964.926 0
 -20428022.702 6 -15762586.744 6  20033756.383 0  20033756.670 0
 88  2 24  7 57 59.0800000  0  4  6 13 11  9
   1223173.543 7    953120.938 6  21986730.354 0  21986731.342 0
  -2549417.729 7  53978803.033 6  20925527.684 0  20925528.971 0
  -5665577.330 7  -4192813.301 6  21319876.246 0  21319877.756 0
 -20418142.701 6 -15754888.051 6  20035636.089 0  20035636.600 0
 88  2 24  7 58 29.0800000  0  4  6 13 11  9
   1312374.708 7   1022628.332 7  22003704.549 0  22003705.892 0
  -2579407.054 7  53955434.721 6  20919819.750 0  20919820.697 0
  -5613243.459 7  -4152033.662 7  21329835.922 0  21329836.611 0
 -20407610.145 6 -15746680.879 6  20037639.910 0  20037640.016 0
 88  2 24  7 58 59.0800000  0  4  6 13 11  9
   1402022.555 8   1092483.793 7  22020764.145 0  22020764.516 0
  -2608965.769 7  53932401.958 6  20914193.906 0  20914196.396 0
  -5560676.739 7  -4111072.581 7  21339838.843 0  21339839.658 0
 -20396424.657 7 -15737964.910 6  20039768.207 0  20039769.530 0
 88  2 24  7 59 29.0800000  0  4  6 13 11  9
   1492114.879 7   1162685.595 7  22037908.706 0  22037909.581 0
  -2638094.884 7  53909703.960 6  20908651.972 0  20908651.962 0
  -5507879.112 8  -4069931.565 7  21349885.748 0  21349886.393 0
 -20384585.696 7 -15728739.759 6  20042021.437 0  20042022.957 0
 88  2 24  7 59 59.0800000  0  4  6 13 11  9
   1582649.347 7   1233231.930 7  22055136.632 0  22055138.567 0
  -2666795.379 7  53887339.949 7  20903191.047 0  20903192.036 0
  -5454853.019 7  -4028612.537 7  21359975.915 0  21359977.963 0
 -20372093.067 6 -15719005.247 6  20044398.225 0  20044400.223 0
 88  2 24  8  0 29.0800000  0  4  6 13 11  9
   1673623.802 7   1304121.091 6  22072448.554 0  22072450.013 0
  -2695067.573 7  53865309.663 6  20897809.856 0  20897813.735 0
  -5401600.604 8  -3987117.159 7  21370109.024 0  21370110.765 0
 -20358946.279 6 -15708761.017 6  20046900.191 0  20046901.937 0
 88  2 24  8  0 59.0800000  0  4  6 13 11  9
   1765035.958 8   1375351.327 7  22089843.268 0  22089844.583 0
  -2722912.427 7  53843612.371 7  20892511.238 0  20892513.903 0
  -5348124.076 7  -3945447.137 7  21380286.500 0  21380286.604 0
 -20345144.875 7 -15698006.692 6  20049525.925 0  20049528.158 0
 88  2 24  8  1 29.0800000  0  4  6 13 11  9
   1856883.592 8   1446920.908 7  22107321.351 0  22107322.581 0
  -2750330.765 7  53822247.463 6  20887295.789 0  20887295.992 0
  -5294425.697 7  -3903604.255 7  21390505.063 0  21390505.686 0
 -20330688.847 6 -15686742.270 6  20052277.790 0  20052279.116 0
 88  2 24  8  1 59.0800000  0  4  6 13 11  9
   1949164.437 8   1518828.037 7  22124882.567 0  22124883.038 0
  -2777323.335 7  53801214.292 6  20882157.675 0  20882159.701 0
  -5240507.697 8  -3861590.239 7  21400765.049 0  21400766.584 0
 -20315577.556 7 -15674967.234 6  20055153.770 0  20055153.528 0
 88  2 24  8  2 29.0800000  0  4  6 13 11  9
   2041876.195 7   1591070.962 7  22142525.491 0  22142525.304 0
  -2803891.583 7  53780511.780 6  20877102.126 0  20877103.678 0
  -5186371.969 7  -3819406.551 7  21411066.829 0  21411068.207 0
 -20299810.935 7 -15662681.556 6  20058153.766 0  20058155.096 0
 88  2 24  8  2 59.0800000  0  4  6 13 11  9
   2135016.448 7   1663647.770 7  22160248.544 0  22160249.614 0
  -2830035.861 7  53760139.612 6  20872127.008 0  20872128.855 0
  -5132020.662 7  -3777054.878 7  21421409.135 0  21421410.708 0
 -20283388.947 7 -15649885.217 5  20061279.307 0  20061280.172 0
 88  2 24  8  3 29.0800000  0  4  6 13 11  9
   2228582.975 7   1736556.740 7  22178053.902 0  22178054.976 0
  -2855756.873 7  53740097.272 6  20867232.911 0  20867234.647 0
  -5077456.258 7  -3734537.161 7  21431792.426 0  21431793.441 0
 -20266311.015 6 -15636577.756 7  20064528.704 0  20064529.255 0
 88  2 24  8  3 59.0800000  0  4  6 13 11  9
   2322573.491 7   1809796.084 7  22195939.479 0  22195940.161 0
  -2881055.619 7  53720383.994 6  20862418.653 0  20862421.057 0
  -5022680.503 7  -3691854.761 7  21442216.158 0  21442218.054 0
 -20248577.179 6 -15622759.183 6  20067903.482 0  20067905.212 0
 88  2 24  8  4 29.0800000  0  4  6 13 11  9
   2416985.549 8   1883363.927 7  22213906.327 0  22213906.267 0
  -2905933.259 8  53700998.814 7  20857684.676 0  20857685.694 0
  -4967696.042 7  -3649009.725 6  21452678.890 0  21452680.740 0
 -20230187.240 6 -15608429.380 6  20071402.113 0  20071404.231 0
 88  2 24  8  4 59.0800000  0  4  6 13 11  9
   2511816.739 7   1957258.361 7  22231951.687 0  22231952.155 0
  -2930390.675 7  53681941.097 6  20853030.320 0  20853032.269 0
  -4912504.732 7  -3606003.515 7  21463181.458 0  21463182.639 0
 -20211141.286 6 -15593588.383 6  20075027.486 0  20075027.362 0
 88  2 24  8  5 29.0800000  0  4  6 13 11  9
   2607064.781 7   2031477.613 7  22250076.584 0  22250077.087 0
  -2954428.884 7  53663210.035 6  20848455.421 0  20848457.159 0
  -4857108.767 1  -3562837.828 1  21473724.553 0  21473724.241 0
 -20191439.123 6 -15578236.066 6  20078776.281 0  20078777.305 0
 88  2 24  8  5 59.0800000  0  4  6 13 11  9
   2702727.103 7   2106019.682 7  22268280.341 0  22268281.461 0
  -2978048.458 7  53644805.196 6  20843961.185 0  20843962.651 0
  -4801510.187 7  -3519514.262 6  21484303.719 0  21484303.186 0
 -20171080.791 1 -15562372.450 1  20082650.776 0  20082651.268 0
 88  2 24  8  6 29.0800000  0  4  6 13 11  9
   2798801.453 8   2180882.801 7  22286563.368 0  22286564.552 0
  -3001250.722 7  53626725.522 7  20839546.574 0  20839548.239 0
  -4745711.217 8  -3476034.541 7  21494921.582 0  21494923.446 0
 -20150066.175 7 -15545997.413 6  20086648.546 0  20086650.049 0
 88  2 24  8  6 59.0800000  0  4  6 13 11  9
   2895285.365 7   2256065.064 7  22304923.551 0  22304923.957 0
  -3024036.511 8  53608970.368 6  20835210.197 0  20835211.742 0
  -4689714.166 7  -3432400.473 7  21505577.923 0  21505579.365 0
 -20128395.160 7 -15529110.917 6  20090772.970 0  20090774.535 0
 88  2 24  8  7 29.0800000  0  4  6 13 11  9
   2992176.353 7   2331564.541 7  22323361.053 0  22323361.287 0
  -3046407.553 8  53591538.396 6  20830953.216 0  20830954.924 0
  -4633520.844 7  -3388613.472 7  21516270.874 0  21516271.868 0
 -20106068.117 6 -15511713.250 6  20095023.177 0  20095023.408 0
 88  2 24  8  7 59.0800000  0  4  6 13 11  9
   3089471.892 8   2407379.224 7  22341875.739 0  22341875.651 0
  -3068363.739 7  53574429.703 6  20826775.237 0  20826777.272 0
  -4577133.530 8  -3344675.302 7  21527000.921 0  21527001.802 0
 -20083085.118 7 -15493804.421 6  20099395.751 0  20099395.496 0
 88  2 24  8  8 29.0800000  0  4  6 13 11  9
   3187169.627 7   2483507.329 6  22360466.213 0  22360467.764 0
  -3089906.231 7  53557643.348 6  20822674.998 0  20822678.094 0
  -4520554.337 7  -3300587.625 7  21537767.913 0  21537769.520 0
 -20059446.134 7 -15475384.434 6  20103893.017 0  20103894.552 0
 88  2 24  8  8 59.0800000  0  4  6 13 11  9
   3285267.022 8   2559946.842 6  22379133.987 0  22379135.130 0
  -3111036.679 7  53541178.077 6  20818654.185 0  20818656.038 0
  -4463785.343 8  -3256352.040 7  21548570.065 0  21548572.337 0
 -20035151.267 7 -15456453.377 6  20108517.723 0  20108517.208 0
 88  2 24  8  9 29.0800000  0  4  6 13 11  9
   3383761.587 7   2636695.832 7  22397877.114 0  22397877.404 0
  -3131755.719 8  53525033.381 6  20814712.006 0  20814713.913 0
  -4406828.741 7  -3211970.276 6  21559408.646 0  21559410.655 0
 -20010200.704 7 -15437011.370 6  20113266.059 0  20113265.045 0
 88  2 24  8  9 59.0800000  0  4  6 13 11  9
   3482650.858 7   2713752.384 7  22416694.640 0  22416695.952 0
  -3152064.518 7  53509208.359 6  20810847.701 0  20810848.313 0
  -4349686.517 7  -3167443.876 7  21570282.169 0  21570283.926 0
 -19984594.848 7 -15417058.790 6  20118137.310 0  20118138.626 0
 88  2 24  8 10 29.0800000  0  4  6 13 11  9
   3581932.319 7   2791114.567 6  22435587.826 0  22435589.333 0
  -3171964.110 7  53493702.196 6  20807060.908 0  20807061.489 0
  -4292360.838 7  -3122774.507 7  21581190.925 0  21581192.107 0
 -19958333.820 6 -15396595.648 6  20123134.625 0  20123135.313 0
 88  2 24  8 10 59.0800000  0  4  6 13 11  9
   3681603.369 8   2868780.308 7  22454554.667 0  22454555.751 0
  -3191455.188 8  53478514.350 7  20803351.768 0  20803353.788 0
  -4234853.413 7  -3077963.520 7  21592135.132 0  21592135.775 0
 -19931417.842 6 -15375622.167 6  20128257.088 0  20128258.436 0
 88  2 24  8 11 29.0800000  0  4  6 13 11  9
   3781661.548 7   2946747.719 6  22473595.274 0  22473595.987 0
  -3210539.255 7  53463643.656 6  20799721.100 0  20799721.636 0
  -4177166.617 8  -3033012.772 6  21603112.222 0  21603112.709 0
 -19903847.133 7 -15354138.511 6  20133503.641 0  20133504.544 0
 88  2 24  8 11 59.0800000  0  4  6 13 11  9
   3882104.357 7   3025014.841 7  22492708.621 0  22492708.940 0
  -3229217.562 7  53449089.134 6  20796165.375 0  20796167.371 0
  -4119302.587 7  -2987923.919 7  21614123.794 0  21614124.740 0
 -19875622.174 7 -15332145.026 6  20138875.344 0  20138874.415 0
 88  2 24  8 12 29.0800000  0  4  6 13 11  9
   3982928.896 7   3103579.414 7  22511894.917 0  22511896.074 0
  -3247491.267 7  53434849.906 7  20792688.535 0  20792689.548 0
  -4061263.254 8  -2942698.461 7  21625167.994 0  21625168.826 0
 -19846743.359 7 -15309642.078 5  20144370.762 0  20144371.050 0
 88  2 24  8 12 59.0800000  0  4  6 13 11  9
   4084132.840 7   3182439.624 7  22531152.995 0  22531154.321 0
  -3265361.145 7  53420925.336 7  20789287.506 0  20789289.527 0
  -4003050.550 7  -2897337.921 7  21636244.682 0  21636246.630 0
 -19817211.069 7 -15286629.923 6  20149990.041 0  20149990.286 0
 88  2 24  8 13 29.0800000  0  4  6 13 11  9
   4185713.594 7   3261593.461 6  22550482.639 0  22550484.347 0
  -3282828.579 8  53407314.357 6  20785963.295 0  20785966.337 0
  -3944666.897 8  -2851844.156 7  21647355.420 0  21647357.436 0
 -19787025.451 6 -15263108.659 6  20155734.468 0  20155733.797 0
 88  2 24  8 13 59.0800000  0  4  6 13 11  9
   4287668.494 7   3341038.817 7  22569885.575 0  22569885.523 0
  -3299894.834 7  53394015.983 6  20782715.913 0  20782717.731 0
  -3886114.169 7  -2806218.656 7  21658497.072 0  21658499.658 0
 -19756187.308 7 -15239078.942 6  20161602.812 0  20161601.497 0
 88  2 24  8 14 29.0800000  0  4  6 13 11  9
   4389994.957 7   3420773.717 7  22589357.197 0  22589357.422 0
  -3316560.733 7  53381029.581 6  20779544.845 0  20779546.271 0
  -3827394.339 7  -2760462.951 7  21669671.858 0  21669672.718 0
 -19724697.202 6 -15214541.200 6  20167594.588 0  20167594.405 0
 88  2 24  8 14 59.0800000  0  4  6 13 11  9
   4492690.472 7   3500796.183 7  22608899.054 0  22608900.232 0
  -3332827.639 7  53368354.084 6  20776449.778 0  20776450.789 0
  -3768509.291 7  -2714578.490 7  21680876.671 0  21680878.108 0
 -19692555.228 6 -15189495.530 6  20173711.112 0  20173710.413 0
 88  2 24  8 15 29.0800000  0  4  6 13 11  9
   4595752.191 7   3581104.007 7  22628511.734 0  22628511.837 0
  -3348696.739 7  53355988.554 6  20773429.246 0  20773431.945 0
  -3709461.280 7  -2668567.056 6  21692113.390 0  21692114.698 0
 -19659761.991 7 -15163942.360 6  20179951.352 0  20179952.743 0
 88  2 24  8 15 59.0800000  0  4  6 13 11  9
   4699177.396 8   3661695.067 7  22648192.206 0  22648193.211 0
  -3364169.577 7  53343931.803 6  20770484.937 0  20770486.713 0
  -3650252.489 7  -2622430.342 7  21703380.670 0  21703381.567 0
 -19626318.450 7 -15137882.476 6  20186315.911 0  20186315.097 0
 88  2 24  8 16 29.0800000  0  4  3 13 11  9
          .160 7          .067 7  24068452.411 0          .000 0
  -3379246.780 7  53332183.336 6  20767615.683 0  20767617.998 0
  -3590884.778 7  -2576169.784 7  21714677.889 0  21714679.043 0
 -19592225.053 6 -15111316.204 6  20192804.261 0  20192803.725 0
 88  2 24  8 16 59.0800000  0  4  3 13 11  9
    -78794.242 7  84657583.068 7  24053479.668 0  24053481.254 0
  -3393930.166 8  53320741.750 6  20764821.843 0  20764823.856 0
  -3531360.070 7  -2529786.896 7  21726005.027 0  21726005.510 0
 -19557482.372 6 -15084243.986 7  20199415.383 0  20199415.216 0
 88  2 24  8 17 29.0800000  0  4  3 13 11  9
   -157364.504 7  84596359.497 7  24038527.622 0  24038529.324 0
  -3408220.536 5  53309606.418 4  20762102.498 0  20762104.257 0
  -3471680.116 7  -2483283.034 7  21737361.506 0  21737362.677 0
 -19522091.041 6 -15056666.345 6  20206148.154 0  20206150.373 0
 88  2 24  8 17 59.0800000  0  4  3 13 11  9
   -235709.786 7  84535311.237 6  24023620.035 0  24023621.576 0
  -3422119.282 4  53298776.234 4  20759456.265 0  20759460.032 0
  -3411847.021 8  -2436659.849 7  21748747.759 0  21748748.558 0
 -19486051.770 7 -15028583.816 7  20213007.701 0  20213007.974 0
 88  2 24  8 18 29.0800000  0  4  3 13 11  9
   -313829.358 7  84474438.805 6  24008754.357 0  24008755.072 0
  -3435627.577 8  53288250.289 6  20756887.259 0  20756887.904 0
  -3351862.915 7  -2389918.996 7  21760162.359 0  21760163.687 0
 -19449365.081 1 -14800583.816 7  20219988.465 0          .000 0
 88  2 24  8 18 59.0800000  0  4  3 13 11  9
   -391723.108 7  84413742.382 6  23993930.968 0  23993932.644 0
  -3448746.659 7  53278027.634 6  20754389.660 0  20754393.006 0
  -3291729.870 1  -2343062.076 1  21771609.057 0  21771607.558 0
 -19456065.060 7 -14889457.140 6  20227092.734 0  20227093.679 0
 88  2 24  8 19 29.0800000  0  4  3 13 11  9
   -469390.283 6  84353222.508 6  23979151.382 0  23979153.716 0
  -3461478.515 7  53268106.715 6  20751967.136 0  20751969.852 0
  -3231449.440 7  -2296090.311 7  21783076.487 0  21783077.179 0
 -19418086.347 6 -14859863.340 6  20234320.708 0  20234320.250 0
 88  2 24  8 19 59.0800000  0  4  3 13 11  9
   -546830.929 7  84292879.166 7  23964415.067 0  23964416.844 0
  -3473823.830 7  53258486.995 7  20749618.806 0  20749620.095 0
  -3171023.821 8  -2249005.420 7  21794574.456 0  21794575.689 0
 -19379462.945 7 -14829767.191 6  20241669.336 0  20241670.594 0
 88  2 24  8 20 29.0800000  0  4  3 13 11  9
   -624044.310 7  84232712.890 6  23949722.546 0  23949722.977 0
  -3485783.560 7  53249167.732 7  20747342.081 0  20747344.490 0
  -3110455.188 7  -2201809.084 7  21806100.063 0  21806101.266 0
 -19340195.378 7 -14799169.113 6  20249142.153 0  20249143.226 0
 88  2 24  8 20 59.0800000  0  4  3 13 11  9
   -701030.394 6  84172723.711 6  23935072.523 0  23935074.435 0
  -3497359.174 7  53240147.770 7  20745139.754 0  20745140.931 0
  -3049745.237 7  -2154502.630 7  21817652.457 0  21817654.726 0
 -19300284.720 7 -14768069.909 6  20256737.643 0  20256738.230 0
 88  2 24  8 21 29.0800000  0  4  3 13 11  9
   -777789.100 6  84112911.704 7  23920464.641 0  23920467.061 0
  -3508552.707 7  53231425.547 6  20743009.908 0  20743010.915 0
  -2988895.940 7  -2107087.590 7  21829232.070 0  21829233.892 0
 -19259731.689 7 -14736470.149 6  20264453.517 0  20264454.776 0
 88  2 24  8 21 59.0800000  0  4  3 13 11  9
   -854319.635 7  84053277.519 6  23905901.617 0  23905903.021 0
  -3519365.294 7  53223000.169 6  20740952.833 0  20740954.511 0
  -2927909.197 7  -2059565.451 7  21840837.029 0  21840838.884 0
 -19218537.343 7 -14704370.680 6  20272292.921 0  20272294.294 0
 88  2 24  8 22 29.0800000  0  4  3 13 11  9
   -930621.569 7  83993821.458 6  23891382.344 0  23891383.799 0
  -3529797.926 7  53214870.844 7  20738966.985 0  20738968.331 0
  -2866787.206 7  -2011937.930 7  21852468.900 0  21852470.918 0
 -19176702.802 7 -14671772.334 6  20280253.511 0  20280254.670 0
 88  2 24  8 22 59.0800000  0  4  3 13 11  9
  -1006694.931 7  83934543.517 6  23876906.435 0  23876908.233 0
  -3539851.851 7  53207036.628 6  20737053.245 0  20737055.670 0
  -2805531.394 7  -1964206.141 7  21864125.582 0  21864126.871 0
 -19134228.891 7 -14638675.794 7  20288336.687 0  20288337.503 0
 88  2 24  8 23 29.0800000  0  4  3 13 11  9
  -1082539.331 7  83875443.980 7  23862473.318 0  23862475.295 0
  -3549529.248 7  53199495.815 6  20735212.972 0  20735213.823 0
  -2744144.063 7  -1916371.842 7  21875807.692 0  21875808.556 0
 -19091116.626 7 -14605081.837 6  20296539.803 0  20296541.505 0
 88  2 24  8 23 59.0800000  0  4  3 13 11  9
  -1158154.097 7  83816523.384 7  23848084.409 0  23848085.113 0
  -3558830.499 8  53192248.076 6  20733442.176 0  20733444.123 0
  -2682627.010 7  -1868436.478 7  21887512.969 0  21887514.624 0
 -19047367.226 7 -14570991.424 7  20304866.707 0  20304866.049 0
 88  2 24  8 24 29.0800000  0  4  3 13 11  9
  -1233538.926 7  83757781.962 6  23833739.930 0  23833739.475 0
  -3567757.756 8  53185291.777 7  20731742.129 0  20731745.293 0
  -2620982.190 8  -1820401.551 8  21899243.914 0  21899245.710 0
 -19002981.529 6 -14536405.168 6  20313312.063 0  20313313.251 0
 88  2 24  8 24 59.0800000  0  4  3 13 11  9
  -1308694.008 7  83699219.553 6  23819437.198 0  23819439.233 0
  -3576312.083 7  53178626.072 7  20730115.867 0  20730117.508 0
  -2559210.775 7  -1772267.991 7  21910999.147 0  21910999.796 0
 -18957960.714 7 -14501324.020 6  20321878.847 0  20321880.336 0
 88  2 24  8 25 29.0800000  0  4  3 13 11  9
  -1383619.167 7  83640836.311 7  23805180.299 0  23805181.274 0
  -3584494.385 7  53172250.258 7  20728558.207 0  20728559.586 0
  -2497315.132 7  -1724037.621 7  21922776.967 0  21922778.200 0
 -18912305.954 6 -14465748.892 6  20330567.831 0  20330568.161 0
 88  2 24  8 25 59.0800000  0  4  3 13 11  9
  -1458313.776 7  83582632.719 7  23790965.648 0  23790966.687 0
  -3592306.526 7  53166162.888 6  20727071.464 0  20727073.251 0
  -2435297.270 7  -1675712.019 7  21934579.318 0  21934580.382 0
 -18866018.374 7 -14429680.654 6  20339374.938 0  20339375.066 0
 88  2 24  8 26 29.0800000  0  4  3 13 11  9
  -1532777.732 8  83524608.841 7  23776796.234 0  23776797.467 0
  -3599750.020 7  53160362.776 6  20725654.825 0  20725656.741 0
  -2373158.903 8  -1627292.517 7  21946402.839 0  21946404.901 0
 -18819099.109 7 -14393120.215 6  20348303.645 0  20348304.488 0
 88  2 24  8 26 59.0800000  0  4  3 13 11  9
  -1607010.142 7  83466765.414 7  23762670.035 0  23762670.695 0
  -3606826.231 7  53154848.857 7  20724308.022 0  20724310.452 0
  -2310901.942 7  -1578780.600 7  21958249.977 0  21958252.006 0
 -18771549.631 7 -14356068.674 6  20357352.663 0  20357353.306 0
 88  2 24  8 27 29.0800000  0  4  3 13 11  9
  -1681011.278 7  83409102.198 7  23748587.722 0  23748589.528 0
  -3613536.789 7  53149619.855 6  20723031.152 0  20723033.615 0
  -2248527.985 8  -1530177.527 7  21970119.913 0  21970121.567 0
 -18723370.904 7 -14318526.830 6  20366521.005 0  20366521.663 0
 88  2 24  8 27 59.0800000  0  4  3 13 11  9
  -1754781.123 7  83351619.207 6  23734549.438 0  23734552.596 0
  -3619883.057 6  53144674.701 6  20721823.949 0  20721825.281 0
  -2186038.971 7  -1481484.778 7  21982010.941 0  21982012.484 0
 -18674564.358 7 -14280495.753 6  20375807.484 0  20375808.900 0
 88  2 24  8 28 29.0800000  0  4  3 13 11  9
  -1828319.085 7  83294316.887 7  23720557.052 0  23720558.048 0
  -3625866.594 7  53140012.209 6  20720686.332 0  20720687.457 0
  -2123436.865 7  -1432703.914 7  21993923.790 0  21993925.366 0
 -18625131.525 7 -14241976.682 6  20385214.532 0  20385214.962 0
 88  2 24  8 28 59.0800000  0  4  3 13 11  9
  -1901625.289 7  83237195.173 7  23706607.406 0  23706607.895 0
  -3631488.635 7  53135631.409 6  20719615.539 0  20719616.113 0
  -2060723.591 7  -1383836.421 7  22005857.067 0  22005858.764 0
 -18575073.418 7 -14202970.361 7  20394740.632 0  20394739.532 0
 88  2 24  8 29 29.0800000  0  4  3 13 11  9
  -1974699.166 7  83180254.482 7  23692700.917 0  23692702.579 0
  -3636750.153 7  53131531.529 6  20718614.715 0  20718615.213 0
  -1997900.580 7  -1334883.434 7  22017812.526 0  22017813.565 0
 -18524391.486 7 -14163477.965 6  20404385.815 0  20404385.386 0
 88  2 24  8 29 59.0800000  0  4  3 13 11  9
  -2047541.159 7  83123494.497 7  23678838.958 0  23678842.496 0
  -3641653.387 7  53127710.824 6  20717680.202 0  20717683.076 0
  -1934969.690 7  -1285846.369 7  22029788.010 0  22029788.870 0
 -18473086.860 7 -14123500.329 6  20414148.046 0  20414147.803 0
 88  2 24  8 30 29.0800000  0  4  3 13 11  9
  -2120151.006 7  83066915.400 7  23665023.097 0  23665024.781 0
  -3646199.584 7  53124168.342 6  20716815.662 0  20716817.956 0
  -1871932.804 8  -1236726.714 7  22041782.976 0  22041784.419 0
 -18421161.501 7 -14083039.030 6  20424028.801 0  20424029.729 0
 88  2 24  8 30 59.0800000  0  4  3 13 11  9
  -2192528.148 7  83010517.632 7  23651249.583 0  23651250.438 0
  -3650390.281 7  53120902.890 6  20716019.058 0  20716020.469 0
  -1808791.636 7  -1187525.804 7  22053798.043 0  22053800.453 0
 -18368616.487 7 -14042094.874 6  20434027.762 0  20434028.964 0
 88  2 24  8 31 29.0800000  0  4  3 13 11  9
  -2264672.661 7  82954301.151 7  23637520.693 0  23637523.435 0
  -3654227.042 7  53117913.216 6  20715288.874 0  20715289.658 0
  -1745547.990 7  -1138245.029 7  22065834.199 0  22065834.680 0
 -18315453.418 7 -14000669.109 6  20444143.559 0  20444146.048 0
 88  2 24  8 31 59.0800000  0  4  3 13 11  9
  -2336584.539 6  82898265.952 7  23623836.397 0  23623838.259 0
  -3657711.459 7  53115198.088 6  20714625.221 0  20714626.370 0
  -1682203.558 7  -1088885.742 7  22077887.941 0  22077889.717 0
 -18261673.932 6 -13958763.051 5  20454378.194 0  20454379.639 0
 88  2 24  8 32 29.0800000  0  4  3 13 11  9
  -2408262.988 7  82842412.616 7  23610196.932 0  23610197.908 0
  -3660844.819 8  53112756.499 7  20714028.824 0  20714031.131 0
  -1618760.183 7  -1039449.343 7  22089961.085 0  22089962.031 0
 -18207279.327 7 -13916377.641 6  20464730.192 0  20464730.250 0
 88  2 24  8 32 59.0800000  0  4  3 13 11  9
  -2479708.679 6  82786740.666 7  23596600.739 0  23596601.964 0
  -3663628.599 7  53110587.338 7  20713499.330 0  20713500.722 0
  -1555219.415 7   -989937.052 7  22102051.859 0  22102053.488 0
 -18152270.979 7 -13873514.003 6  20475197.981 0  20475196.622 0
 88  2 24  8 33 29.0800000  0  4  3 13 11  9
  -2550920.919 6  82731250.618 7  23583049.125 0  23583051.266 0
  -3666064.329 7  53108689.362 7  20713036.201 0  20713037.398 0
  -1491583.116 7   -940350.321 6  22114161.653 0  22114163.017 0
 -18096650.948 7 -13830173.723 6  20485782.204 0  20485782.247 0
 88  2 24  8 33 59.0800000  0  4  3 13 11  9
  -2621899.906 7  82675942.335 7  23569542.993 0  23569544.548 0
  -3668154.038 7  53107061.031 6  20712638.259 0  20712640.098 0
  -1427852.899 7   -890690.410 7  22126289.244 0  22126289.865 0
 -18040420.709 7 -13786357.962 6  20496481.572 0  20496481.315 0
 88  2 24  8 34 29.0800000  0  4  3 13 11  9
  -2692645.377 7  82620816.028 7  23556081.083 0  23556082.165 0
  -3669898.925 7  53105701.384 6  20712306.031 0  20712307.449 0
  -1364030.419 7   -840958.611 7  22138434.032 0  22138435.933 0
 -17983581.612 7 -13742067.770 6  20507297.418 0  20507297.748 0
 88  2 24  8 34 59.0800000  0  4  3 13 11  9
  -2763157.313 7  82565871.680 7  23542663.403 0  23542663.749 0
  -3671300.818 7  53104608.996 6  20712039.250 0  20712041.287 0
  -1300117.795 7   -791156.578 7  22150596.133 0  22150597.079 0
 -17926135.576 7 -13697304.614 6  20518229.597 0  20518229.712 0
 88  2 24  8 35 29.0800000  0  4  3 13 11  9
  -2833435.745 7  82511109.276 7  23529288.143 0  23529289.970 0
  -3672360.716 7  53103783.114 6  20711838.638 0  20711838.929 0
  -1236116.228 7   -741285.237 7  22162775.470 0  22162776.323 0
 -17868084.018 8 -13652069.657 6  20529276.122 0  20529275.893 0
 88  2 24  8 35 59.0800000  0  4  3 13 11  9
  -2903480.603 7  82456528.870 7  23515960.862 0  23515961.344 0
  -3673080.099 7  53103222.560 7  20711701.409 0  20711702.284 0
  -1172027.405 7   -691345.901 7  22174971.752 0  22174972.469 0
 -17809429.253 7 -13606364.644 6  20540437.577 0  20540439.152 0
 88  2 24  8 36 29.0800000  0  4  3 13 11  9
  -2973291.628 7  82402130.672 7  23502675.171 0  23502677.512 0
  -3673460.670 7  53102926.015 7  20711628.146 0  20711629.728 0
  -1107853.384 7   -641340.173 7  22187182.777 0  22187184.484 0
 -17750172.333 7 -13560190.417 6  20551713.792 0  20551714.765 0
 88  2 24  8 36 59.0800000  0  4  3 13 11  9
  -3042868.662 7  82347914.818 7  23489434.638 0  23489436.987 0
  -3673504.305 6  53102892.026 6  20711620.182 0  20711621.596 0
  -1043595.129 7   -591268.802 7  22199410.274 0  22199412.043 0
 -17690315.362 7 -13513548.631 6  20563104.423 0  20563105.540 0
 88  2 24  8 37 29.0800000  0  4  3 13 11  9
  -3112212.211 7  82293880.872 7  23476239.746 0  23476240.199 0
  -3673212.413 7  53103119.476 7  20711675.648 0  20711678.357 0
   -979254.597 8   -541133.347 7  22211653.731 0  22211655.575 0
 -17629860.131 7 -13466440.668 6  20574608.354 0  20574608.956 0
 88  2 24  8 37 59.0800000  0  4  3 13 11  9
  -3181321.741 6  82240029.304 7  23463088.646 0  23463090.823 0
  -3672587.040 7  53103606.774 6  20711794.453 0  20711797.341 0
   -914833.446 8   -490935.049 7  22223913.042 0  22223914.038 0
 -17568808.580 7 -13418868.035 6  20586227.318 0  20586227.160 0
 88  2 24  8 38 29.0800000  0  4  3 13 11  9
  -3250197.373 7  82186359.993 7  23449982.699 0  23449983.260 0
  -3671629.868 7  53104352.623 6  20711977.314 0  20711978.863 0
   -850333.607 7   -440675.435 7  22236187.259 0  22236188.817 0
 -17507162.291 7 -13370831.974 6  20597958.265 0  20597957.865 0
 88  2 24  8 38 59.0800000  0  4  3 13 11  9
  -3318839.526 7  82132872.604 7  23436919.781 0  23436920.684 0
  -3670342.121 7  53105356.070 6  20712222.515 0  20712222.886 0
   -785756.525 7   -390355.630 7  22248475.936 0  22248477.386 0
 -17444923.266 7 -13322334.045 6  20609801.282 0  20609801.553 0
 88  2 24  8 39 29.0800000  0  4  3 13 11  9
  -3387248.154 7  82079567.183 7  23423901.435 0  23423902.818 0
  -3668725.224 7  53106615.989 6  20712529.458 0  20712531.269 0
   -721103.591 7   -339976.728 7  22260778.955 0  22260780.699 0
 -17382093.559 6 -13273375.832 6  20621757.613 0  20621757.427 0
 88  2 24  8 39 59.0800000  0  4  3 13 11  9
  -3455423.035 7  82026443.908 7  23410928.621 0  23410930.469 0
  -3666780.696 7  53108131.207 5  20712900.806 0  20712901.981 0
   -656376.612 7   -289540.128 7  22273096.490 0  22273098.437 0
 -17318674.520 7 -13223958.419 5  20633825.426 0  20633823.881 0
 88  2 24  8 40 29.0800000  0  4  3 13 11  9
  -3523363.642 7  81973503.184 7  23397999.693 0  23398001.870 0
  -3664510.519 7  53109900.178 6  20713331.841 0  20713332.140 0
   -591576.980 7   -239046.904 7  22285426.141 0  22285428.818 0
 -17254668.877 6 -13174083.890 6  20646005.454 0  20646005.525 0
 88  2 24  8 40 59.0800000  0  4  3 13 11  9
  -3591070.498 7  81920744.601 7  23385116.025 0  23385116.936 0
  -3661915.841 7  53111922.024 6  20713825.390 0  20713826.626 0
   -526706.267 7   -188498.307 7  22297771.933 0  22297773.616 0
 -17190077.894 7 -13123753.263 6  20658296.549 0  20658297.579 0
 88  2 24  8 41 29.0800000  0  4  3 13 11  9
  -3658542.997 7  81868168.635 7  23372275.485 0  23372277.791 0
  -3658998.342 7  53114195.406 6  20714381.063 0  20714381.568 0
   -461766.084 7   -137895.557 7  22310129.670 0  22310130.829 0
 -17124903.620 6 -13072968.140 6  20670698.124 0  20670699.955 0
 88  2 24  8 41 59.0800000  0  4  3 13 11  9
  -3725782.150 7  81815774.489 7  23359480.928 0  23359482.053 0
  -3655760.269 7  53116718.581 7  20714995.810 0  20714998.230 0
   -396758.131 7    -87240.029 6  22322500.267 0  22322501.717 0
 -17059148.456 7 -13021730.355 6  20683211.012 0  20683212.342 0
 88  2 24  8 42 29.0800000  0  4  3 13 11  9
  -3792788.057 7  81763562.101 6  23346730.407 0  23346732.863 0
  -3652202.848 7  53119490.606 7  20715673.492 0  20715674.471 0
   -331684.082 7    -36532.970 7  22334882.425 0  22334884.159 0
 -16992814.196 7 -12970041.339 6  20695833.793 0  20695834.652 0
 88  2 24  8 42 59.0800000  0  4  3 13 11  9
  -3859560.398 7  81711531.692 7  23334023.623 0  23334025.292 0
  -3648327.875 7  53122510.069 6  20716410.342 0  20716412.792 0
   -266545.189 7     14224.609 7  22347278.060 0  22347279.571 0
 -16925903.172 7 -12917902.887 7  20708567.614 0  20708568.544 0
 88  2 24  8 43 29.0800000  0  4  3 13 11  9
  -3926099.275 7  81659683.225 7  23321362.977 0  23321363.365 0
  -3644137.141 7  53125775.562 7  20717209.120 0  20717209.522 0
   -201343.245 7     65031.319 7  22359685.839 0  22359687.480 0
 -16858417.200 6 -12865316.429 6  20721409.297 0  20721409.355 0
 88  2 24  8 43 59.0800000  0  4  3 13 11  9
  -3992404.649 7  81608016.708 6  23308745.483 0  23308745.885 0
  -3639632.323 7  53129285.830 7  20718066.000 0  20718066.584 0
   -136079.390 7    115886.269 7  22372104.477 0  22372106.961 0
 -16790358.307 7 -12812283.526 6  20734361.018 0  20734359.746 0
 88  2 24  8 44 29.0800000  0  4  3 13 11  9
  -4058476.772 7  81556531.935 7  23296170.092 0  23296171.775 0
  -3634813.776 7  53133040.541 6  20718982.614 0  20718983.475 0
    -70754.980 7    166788.409 6  22384536.446 0  22384537.277 0
 -16721728.978 7 -12758806.139 7  20747419.645 0  20747420.862 0
 88  2 24  8 44 59.0800000  0  4  3 13 11  9
  -4124316.097 6  81505228.568 7  23283643.675 0  23283644.978 0
  -3629684.769 7  53137037.162 7  20719958.945 0  20719960.072 0
     -5372.009 7    217736.174 7  22396978.016 0  22396980.078 0
 -16652530.957 6 -12704885.620 6  20760588.365 0  20760589.209 0
 88  2 24  8 45 29.0800000  0  4  3 13 11  9
  -4189922.076 6  81454107.029 7  23271157.573 0  23271160.995 0
  -3624246.328 7  53141274.921 6  20720993.044 0  20720994.870 0
     60068.303 7    268728.617 7  22409430.670 0  22409431.969 0
 -16582766.714 7 -12650523.887 6  20773863.646 0  20773864.104 0
 88  2 24  8 45 59.0800000  0  4  3 13 11  9
  -4255294.810 7  81403167.233 7  23258718.348 0  23258719.660 0
  -3618500.214 7  53145752.415 6  20722087.665 0  20722088.250 0
    125564.534 7    319764.648 7  22421894.308 0  22421895.730 0
 -16512438.374 7 -12595722.613 6  20787247.133 0  20787247.491 0
 88  2 24  8 46 29.0800000  0  4  3 13 11  9
  -4320434.971 7  81352408.682 7  23246321.752 0  23246324.186 0
  -3612447.825 7  53150468.564 6  20723238.513 0  20723241.655 0
    191115.455 7    370843.283 7  22434368.718 0  22434370.738 0
 -16441548.161 8 -12540483.489 6  20800736.808 0  20800735.879 0
 88  2 24  8 46 59.0800000  0  4  3 13 11  9
  -4385342.580 6  81301831.319 7  23233972.124 0  23233970.810 0
  -3606091.185 7  53155421.784 6  20724448.970 0  20724450.103 0
    256719.333 7    421963.187 7  22446852.763 0  22446853.361 0
 -16370098.297 7 -12484808.279 7  20814333.502 0  20814334.276 0
 88  2 24  8 47 29.0800000  0  4  3 13 11  9
  -4450017.818 6  81251435.026 7  23221663.357 0  23221665.091 0
  -3599431.726 7  53160610.970 7  20725715.982 0  20725716.841 0
    322374.596 7    473123.131 7  22459345.950 0  22459347.848 0
 -16298090.956 7 -12428698.676 6  20828034.982 0  20828036.928 0
 88  2 24  8 47 59.0800000  0  4  3 13 11  9
  -4514460.496 7  81201219.962 7  23209400.508 0  23209401.862 0
  -3592471.247 7  53166034.726 7  20727040.086 0  20727041.511 0
    388080.184 7    524322.290 7  22471849.708 0  22471851.545 0
 -16225528.695 7 -12372156.664 6  20841843.925 0  20841845.270 0
 88  2 24  8 48 29.0800000  0  4  3 13 11  9
  -4578670.511 6  81151186.190 7  23197181.345 0  23197182.649 0
  -3585211.384 7  53171691.756 7  20728422.281 0  20728422.522 0
    453834.494 7    575559.430 6  22484361.605 0  22484363.424 0
 -16152413.554 7 -12315183.844 7  20855758.240 0  20855758.727 0
 88  2 24  8 48 59.0800000  0  4  3 13 11  9
  -4642648.798 7  81101333.001 7  23185007.091 0  23185008.446 0
  -3577653.801 6  53177580.782 6  20729859.450 0  20729861.318 0
    519635.930 7    626833.275 7  22496883.569 0  22496884.987 0
 -16078747.951 7 -12257782.080 7  20869774.737 0  20869775.094 0
 88  2 24  8 49 29.0800000  0  4  3 13 11  9
  -4706395.180 7  81051660.509 7  23172877.031 0  23172878.170 0
  -3569799.916 7  53183700.693 7  20731353.717 0  20731355.233 0
    585483.293 7    678142.905 7  22509413.785 0  22509415.489 0
 -16004534.139 8 -12199953.166 6  20883897.937 0  20883898.467 0
 88  2 24  8 49 59.0800000  0  4  3 13 11  9
  -4769910.031 7  81002168.417 7  23160790.378 0  23160791.339 0
  -3561651.701 7  53190049.955 6  20732904.418 0  20732906.830 0
    651374.913 7    729487.029 7  22521952.504 0  22521953.737 0
 -15929774.425 7 -12141698.845 6  20898123.835 0  20898124.522 0
 88  2 24  8 50 29.0800000  0  4  3 13 11  9
  -4833193.551 6  80952856.595 7  23148746.875 0  23148749.574 0
  -3553210.867 7  53196627.231 6  20734510.645 0  20734512.241 0
    717309.708 7    780864.795 7  22534499.251 0  22534501.838 0
 -15854471.556 7 -12083021.298 6  20912453.690 0  20912456.322 0
 88  2 24  8 50 59.0800000  0  4  3 13 11  9
  -4896245.961 7  80903724.860 7  23136749.526 0  23136750.729 0
  -3544479.027 7  53203431.275 6  20736172.357 0  20736174.397 0
    783286.275 7    832275.117 7  22547054.386 0  22547056.499 0
 -15778627.691 7 -12023922.182 6  20926887.457 0  20926887.514 0
 88  2 24  8 51 29.0800000  0  4  3 13 11  9
  -4959067.280 7  80854773.184 7  23124795.060 0  23124796.179 0
  -3535458.012 7  53210460.634 6  20737888.687 0  20737891.207 0
    849303.457 7    883717.068 7  22559617.217 0  22559618.889 0
 -15702245.207 7 -11964403.389 6  20941421.074 0  20941422.820 0
 88  2 24  8 51 59.0800000  0  4  3 13 11  9
  -5021657.914 7  80806001.266 7  23112883.688 0  23112885.607 0
  -3526149.120 7  53217714.334 6  20739661.388 0  20739662.706 0
    915359.678 7    935189.451 7  22572187.420 0  22572189.335 0
 -15625326.739 7 -11904466.932 6  20956058.990 0  20956059.147 0
 88  2 24  8 52 29.0800000  0  4  3 13 11  9
  -5084017.994 7  80757408.993 7  23101017.003 0  23101018.679 0
  -3516554.234 7  53225190.862 7  20741487.026 0  20741488.233 0
    981453.777 7    986691.353 7  22584764.327 0  22584766.064 0
 -15547874.409 7 -11844114.479 6  20970798.459 0  20970797.472 0
 88  2 24  8 52 59.0800000  0  4  3 13 11  9
  -5146147.636 7  80708996.282 6  23089194.791 0  23089194.815 0
  -3506675.336 7  53232888.707 6  20743366.939 0  20743369.050 0
   1047584.428 7   1038221.712 8  22597349.240 0  22597351.106 0
 -15469891.198 8 -11783348.337 6  20985636.705 0  20985637.679 0
 88  2 24  8 53 29.0800000  0  4  3 13 11  9
  -5208047.251 7  80660762.815 7  23077415.822 0  23077416.868 0
  -3496513.668 7  53240806.894 7  20745300.132 0  20745300.827 0
   1113750.339 7   1089779.575 7  22609940.932 0  22609942.203 0
 -15391379.378 7 -11722170.321 6  21000577.905 0  21000578.734 0
 88  2 24  8 53 59.0800000  0  4  3 13 11  9
  -5269716.954 6  80612708.516 7  23065680.903 0  23065681.563 0
  -3486070.765 7  53248944.216 6  20747286.891 0  20747288.878 0
   1179949.994 7   1141363.717 7  22622537.207 0  22622538.764 0
 -15312341.327 7 -11660582.238 6  21015618.168 0  21015618.954 0
 88  2 24  8 54 29.0800000  0  4  3 13 11  9
  -5331157.432 7  80564832.813 7  23053988.661 0  23053989.608 0
  -3475348.925 6  53257298.903 6  20749328.272 0  20749329.157 0
   1246182.403 7   1192973.390 7  22635141.141 0  22635143.346 0
 -15232779.860 8 -11598586.299 7  21030757.793 0  21030758.337 0
 88  2 24  8 54 59.0800000  0  4  3 13 11  9
  -5392368.567 7  80517135.824 7  23042340.556 0  23042342.283 0
  -3464349.612 7  53265869.810 6  20751421.815 0  20751423.100 0
   1312445.815 7   1244607.211 7  22647750.604 0  22647751.982 0
 -15152697.391 7 -11536184.373 6  21045997.139 0  21045996.825 0
 88  2 24  8 55 29.0800000  0  4  3 13 11  9
  -5453350.383 7  80469617.524 7  23030735.415 0  23030736.734 0
  -3453074.597 7  53274655.542 6  20753566.798 0  20753568.280 0
   1378739.019 7   1296264.245 7  22660365.546 0  22660367.511 0
 -15072096.715 8 -11473378.671 6  21061334.604 0  21061336.192 0
 88  2 24  8 55 59.0800000  0  4  3 13 11  9
  -5514103.681 7  80422277.291 6  23019174.811 0  23019176.130 0
  -3441525.469 7  53283654.851 6  20755764.392 0  20755765.778 0
   1445061.112 7   1347943.794 7  22672986.338 0  22672988.139 0
 -14990980.267 7 -11410171.050 7  21076770.931 0  21076771.003 0
 88  2 24  8 56 29.0800000  0  4  3 13 11  9
  -5574628.865 7  80375114.803 7  23007657.091 0  23007657.952 0
  -3429703.902 6  53292866.451 6  20758014.162 0  20758016.220 0
   1511411.012 6   1399645.010 7  22685612.512 0  22685613.715 0
 -14909350.472 7 -11346563.419 6  21092304.775 0  21092306.120 0
 88  2 24  8 56 59.0800000  0  4  3 13 11  9
  -5634926.062 7  80328129.990 7  22996183.065 0  22996183.647 0
  -3417611.295 7  53302289.275 7  20760314.458 0  20760316.266 0
   1577787.326 7   1451366.815 7  22698243.236 0  22698244.354 0
 -14827210.330 8 -11282558.127 6  21107935.592 0  21107934.704 0
 88  2 24  8 57 29.0800000  0  4  3 13 11  9
  -5694995.263 7  80281322.784 7  22984752.996 0  22984753.314 0
  -3405249.763 7  53311921.637 6  20762668.194 0  20762668.818 0
   1644188.858 7   1503108.267 7  22710877.899 0  22710880.433 0
 -14744562.286 8 -11218157.075 6  21123662.195 0  21123662.996 0
 88  2 24  8 57 59.0800000  0  4  3 13 11  9
  -5754837.226 7  80234692.677 7  22973364.188 0  22973365.472 0
  -3392620.800 7  53321762.415 6  20765071.197 0  20765072.683 0
   1710614.175 7   1554868.244 7  22723518.632 0  22723521.670 0
 -14661409.111 7 -11153362.395 6  21139487.274 0  21139487.158 0
 88  2 24  8 58 29.0800000  0  4  3 13 11  9
  -5814452.155 7  80188239.477 6  22962019.854 0  22962020.851 0
  -3379725.928 7  53331810.357 7  20767524.275 0  20767525.965 0
   1777062.089 7   1606645.836 7  22736163.822 0  22736165.119 0
 -14577753.189 7 -11088175.990 6  21155405.563 0  21155406.679 0
 88  2 24  8 58 59.0800000  0  4  3 13 11  9
  -5873840.120 7  80141963.134 7  22950719.233 0  22950720.252 0
  -3366567.249 7  53342063.867 6  20770028.841 0  20770029.040 0
   1843531.403 7   1658440.102 7  22748812.672 0  22748813.909 0
 -14493597.652 8 -11022600.241 6  21171420.066 0  21171420.896 0
 88  2 24  8 59 29.0800000  0  4  3 13 11  9
  -5933001.627 7  80095863.251 7  22939461.104 0  22939461.850 0
  -3353146.434 7  53352521.647 7  20772582.031 0  20772582.687 0
   1910021.132 7   1710250.281 7  22761464.553 0  22761466.715 0
 -14408944.960 7 -10956637.114 7  21187528.710 0  21187529.584 0
 88  2 24  8 59 59.0800000  0  4  3 13 11  9
  -5991937.452 7  80049939.221 7  22928246.074 0  22928247.564 0
  -3339465.002 7  53363182.501 7  20775185.949 0  20775187.564 0
   1976529.940 7   1762075.320 7  22774121.005 0  22774122.776 0
 -14323797.944 7 -10890288.801 7  21203731.867 0  21203732.539 0
 88  2 24  9  0 29.0800000  0  4  3 13 11  9
  -6050647.636 6  80004191.022 6  22917072.791 0  22917075.426 0
  -3325524.646 7  53374045.117 7  20777838.769 0  20777839.150 0
   2043057.024 7   1813914.594 7  22786780.368 0  22786783.639 0
 -14238159.383 7 -10823557.452 6  21220028.105 0  21220028.820 0
 88  2 24  9  0 59.0800000  0  4  3 13 11  9
  -6109132.291 7  79958618.561 6  22905945.405 0  22905944.928 0
  -3311326.608 7  53385108.530 6  20780540.449 0  20780540.957 0
   2109601.040 7   1865767.072 7  22799443.270 0  22799447.009 0
 -14152031.923 7 -10756445.161 6  21236417.409 0  21236418.424 0
 88  2 24  9  1 29.0800000  0  4  3 13 11  9
  -6167391.881 7  79913221.455 7  22894857.927 0  22894859.918 0
  -3296873.556 7  53396370.650 7  20783289.920 0  20783292.601 0
   2176160.916 7   1917631.889 7  22812109.538 0  22812111.743 0
 -14065418.477 7 -10688954.180 6  21252899.938 0  21252899.438 0
 88  2 24  9  1 59.0800000  0  4  3 13 11  9
  -6225427.330 7  79867999.017 7  22883813.828 0  22883817.099 0
  -3282167.176 7  53407830.169 6  20786089.756 0  20786090.606 0
   2242735.435 7   1969508.132 7  22824778.704 0  22824780.476 0
 -13978321.875 7 -10621086.712 6  21269474.017 0  21269474.690 0
 88  2 24  9  2 29.0800000  0  4  3 13 11  9
  -6283238.714 7  79822951.183 7  22872812.843 0  22872815.649 0
  -3267208.635 7  53419486.174 6  20788935.551 0  20788938.217 0
   2309323.382 7   2021394.837 7  22837450.562 0  22837451.845 0
 -13890745.073 7 -10552845.060 6  21286138.745 0  21286139.146 0
 88  2 24  9  2 59.0800000  0  4  3 13 11  9
  -6340826.179 6  79778077.844 6  22861854.683 0  22861856.260 0
  -3251999.304 7  53431337.592 6  20791830.103 0  20791832.322 0
   2375923.864 8   2073291.324 7  22850124.249 0  22850124.942 0
 -13802690.613 7 -10484231.202 7  21302895.396 0  21302896.612 0
 88  2 24  9  3 29.0800000  0  4  3 13 11  9
  -6398190.161 7  79733378.625 7  22850939.718 0  22850938.932 0
  -3236541.066 7  53443382.978 6  20794770.695 0  20794772.564 0
   2442535.821 7   2125196.729 7  22862800.187 0  22862801.377 0
 -13714161.504 7 -10415247.493 6  21319741.951 0  21319742.795 0
 88  2 24  9  3 59.0800000  0  4  3 13 11  9
  -6455331.286 6  79688853.073 7  22840064.724 0  22840066.242 0
  -3220835.997 7  53455620.692 7  20797759.546 0  20797761.714 0
   2509158.165 7   2177110.252 7  22875477.767 0  22875479.381 0
 -13625160.808 7 -10345896.316 6  21336678.166 0  21336678.696 0
 88  2 24  9  4 29.0800000  0  4  3 13 11  9
  -6512250.149 6  79644500.704 6  22829234.132 0  22829235.222 0
  -3204885.746 7  53468049.453 6  20800794.725 0  20800796.944 0
   2575789.755 7   2229030.958 7  22888157.264 0  22888158.585 0
 -13535691.143 8 -10276179.703 6  21353704.416 0  21353705.346 0
 88  2 24  9  4 59.0800000  0  4  3 13 11  9
  -6568946.932 6  79600321.406 7  22818444.707 0  22818446.498 0
  -3188692.110 7  53480667.878 7  20803876.514 0  20803877.906 0
   2642429.746 7   2280958.215 7  22900838.188 0  22900839.638 0
 -13445755.437 7 -10206099.941 7  21370817.537 0  21370817.766 0
 88  2 24  9  5 29.0800000  0  4  3 13 11  9
  -6625422.177 7  79556314.711 7  22807697.359 0  22807698.785 0
  -3172256.302 7  53493474.985 6  20807005.215 0  20807006.271 0
   2709076.429 6   2332890.691 7  22913520.822 0  22913521.814 0
 -13355356.695 7 -10135659.378 7  21388020.777 0  21388020.963 0
 88  2 24  9  5 59.0800000  0  4  3 13 11  9
  -6681676.328 7  79512480.287 7  22796993.740 0  22796995.258 0
  -3155580.080 7  53506469.463 6  20810178.352 0  20810179.742 0
   2775729.317 6   2384827.990 7  22926203.933 0  22926206.047 0
 -13264497.743 7 -10064860.200 7  21405309.743 0  21405309.758 0
 88  2 24  9  6 29.0800000  0  4  3 13 11  9
  -6737709.766 7  79468817.859 7  22786330.693 0  22786332.227 0
  -3138665.172 7  53519649.903 6  20813396.794 0  20813398.251 0
   2842387.508 7   2436769.443 7  22938888.455 0  22938890.646 0
 -13173181.503 7  -9993704.703 7  21422686.970 0  21422687.384 0
 88  2 24  9  6 59.0800000  0  4  3 13 11  9
  -6793522.755 6  79425327.220 7  22775708.909 0  22775710.635 0
  -3121513.060 7  53533015.186 6  20816659.933 0  20816661.201 0
   2909049.579 7   2488713.916 7  22951575.009 0  22951575.544 0
 -13081411.020 7  -9922195.251 6  21440150.780 0  21440151.038 0
 88  2 24  9  7 29.0800000  0  4  3 13 11  9
  -6849115.776 7  79382007.995 7  22765130.580 0  22765132.529 0
  -3104125.822 7  53546563.697 7  20819969.144 0  20819970.051 0
   2975714.903 7   2540660.907 7  22964260.949 0  22964262.003 0
 -12989189.095 7  -9850334.020 7  21457699.430 0  21457700.489 0
 88  2 24  9  7 59.0800000  0  4  3 13 11  9
  -6904489.469 8  79338859.650 7  22754592.690 0  22754594.559 0
  -3086505.247 7  53560294.013 6  20823322.443 0  20823323.975 0
   3042382.373 7   2592609.589 7  22976946.678 0  22976948.238 0
 -12896518.954 7  -9778123.523 7  21475333.619 0  21475335.164 0
 88  2 24  9  8 29.0800000  0  4  3 13 11  9
  -6959644.334 7  79295881.833 7  22744097.964 0  22744099.153 0
  -3068652.463 7  53574205.289 7  20826719.402 0  20826721.478 0
   3109050.908 7   2644559.092 7  22989633.328 0  22989634.096 0
 -12803403.312 7  -9705565.886 6  21493052.964 0  21493054.896 0
 88  2 24  9  8 59.0800000  0  4  3 13 11  9
  -7014580.773 7  79253074.215 7  22733644.054 0  22733644.878 0
  -3050568.917 7  53588296.360 6  20830160.848 0  20830162.231 0
   3175719.857 7   2696508.920 7  23002319.881 0  23002321.152 0
 -12709845.449 7  -9632663.658 6  21510856.746 0  21510858.020 0
 88  2 24  9  9 29.0800000  0  4  3 13 11  9
  -7069299.336 7  79210436.369 7  22723231.534 0  22723231.486 0
  -3032256.885 8  53602565.484 7  20833644.901 0  20833647.416 0
   3242388.015 7   2748458.122 7  23015006.388 0  23015008.229 0
 -12615848.233 8  -9559419.086 6  21528744.352 0  21528745.570 0
 88  2 24  9  9 59.0800000  0  4  3 13 11  9
  -7123800.594 7  79167967.845 7  22712860.138 0  22712860.762 0
  -3013717.862 7  53617011.484 6  20837173.711 0  20837176.048 0
   3309054.419 7   2800405.974 7  23027692.382 0  23027694.257 0
 -12521414.634 7  -9485834.462 6  21546713.836 0  21546715.624 0
 88  2 24  9 10 29.0800000  0  4  3 13 11  9
  -7178084.962 7  79125668.330 7  22702529.810 0  22702531.078 0
  -2994953.581 7  53631632.995 6  20840744.155 0  20840746.145 0
   3375718.065 6   2852351.654 7  23040377.309 0  23040379.671 0
 -12426547.824 7  -9411912.276 7  21564766.155 0  21564767.985 0
 88  2 24  9 10 59.0800000  0  4  3 13 11  9
  -7232152.991 7  79083537.404 7  22692240.806 0  22692241.874 0
  -2975965.312 7  53646429.063 6  20844358.084 0  20844358.129 0
   3442378.049 7   2904294.493 7  23053063.427 0  23053065.092 0
 -12331250.748 7  -9337654.820 7  21582900.909 0  21582901.538 0
 88  2 24  9 11 29.0800000  0  4  3 13 11  9
  -7286005.090 7  79041574.710 7  22681993.829 0  22681994.174 0
  -2956755.251 6  53661397.941 6  20848013.596 0  20848014.753 0
   3509033.677 7   2956233.932 7  23065747.135 0  23065749.214 0
 -12235526.399 7  -9263064.429 6  21601116.896 0  21601117.483 0
 88  2 24  9 11 59.0800000  0  4  3 13 11  9
  -7339641.635 7  78999779.994 7  22671786.744 0  22671788.114 0
  -2937324.979 7  53676538.431 6  20851710.791 0  20851710.989 0
   3575684.020 7   3008169.259 7  23078430.745 0  23078432.123 0
 -12139378.163 7  -9188143.741 6  21619413.688 0  21619413.874 0
 88  2 24  9 12 29.0800000  0  4  3 13 11  9
  -7393063.670 7  78958152.436 7  22661621.666 0  22661621.683 0
  -2917675.660 7  53691849.587 6  20855449.897 0  20855451.912 0
   3642328.398 7   3060099.929 7  23091112.574 0  23091114.139 0
 -12042808.930 7  -9112894.986 7  21637789.252 0  21637790.739 0
 88  2 24  9 12 59.0800000  0  4  3 13 11  9
  -7446271.190 7  78916692.028 7  22651496.267 0  22651496.757 0
  -2897809.573 7  53707329.646 7  20859229.774 0  20859231.084 0
   3708965.706 7   3112025.090 7  23103792.869 0  23103794.480 0
 -11945821.900 7  -9037320.689 7  21656245.490 0  21656246.220 0
 88  2 24  9 13 29.0800000  0  4  3 13 11  9
  -7499264.788 7  78875398.306 7  22641411.835 0  22641412.110 0
  -2877727.555 7  53722977.978 7  20863051.200 0  20863052.672 0
   3775595.100 7   3163944.093 7  23116472.026 0  23116473.887 0
 -11848419.897 7  -8961423.031 6  21674780.587 0  21674781.173 0
 88  2 24  9 13 59.0800000  0  4  3 13 11  9
  -7552045.216 6  78834270.696 7  22631368.427 0  22631369.438 0
  -2857431.552 7  53738793.040 7  20866913.076 0  20866914.819 0
   3842215.544 7   3215856.129 7  23129149.992 0  23129151.517 0
 -11750606.299 7  -8885204.644 7  21693393.440 0  21693394.799 0
 88  2 24  9 14 29.0800000  0  4  3 13 11  9
  -7604613.376 7  78793308.477 7  22621364.049 0  22621365.074 0
  -2836923.162 7  53754773.604 7  20870816.477 0  20870817.071 0
   3908826.254 7   3267760.559 7  23141825.965 0  23141826.643 0
 -11652384.135 7  -8808667.901 7  21712085.208 0  21712086.067 0
 88  2 24  9 14 59.0800000  0  4  3 13 11  9
  -7656969.632 7  78752511.393 7  22611401.259 0  22611403.515 0
  -2816204.062 7  53770918.345 6  20874758.616 0  20874760.689 0
   3975426.617 7   3319656.944 7  23154499.852 0  23154500.495 0
 -11553756.769 7  -8731815.432 6  21730852.543 0  21730854.574 0
 88  2 24  9 15 29.0800000  0  4  3 13 11  9
  -7709114.389 7  78711879.104 7  22601477.619 0  22601480.519 0
  -2795276.106 7  53787225.862 6  20878741.708 0  20878742.674 0
   4042015.767 7   3371544.585 7  23167170.628 0  23167172.303 0
 -11454727.000 7  -8654649.367 6  21749697.763 0  21749698.521 0
 88  2 24  9 15 59.0800000  0  4  3 13 11  9
  -7761048.049 7  78671411.330 7  22591594.833 0  22591597.488 0
  -2774140.882 7  53803694.852 6  20882763.940 0  20882764.459 0
   4108592.819 7   3423422.808 7  23179839.690 0  23179840.586 0
 -11355298.279 7  -8577172.445 6  21768618.579 0  21768619.165 0
 88  2 24  9 16 29.0800000  0  4  3 13 11  9
  -7812771.343 7  78631107.465 7  22581753.592 0  22581752.808 0
  -2752800.261 7  53820323.911 6  20886824.062 0  20886825.809 0
   4175156.975 7   3475290.994 7  23192506.434 0  23192508.149 0
 -11255473.472 7  -8499386.901 6  21787614.031 0  21787614.990 0
 88  2 24  9 16 59.0800000  0  4  3 13 11  9
  -7864284.981 7  78590966.982 7  22571949.756 0  22571950.824 0
  -2731255.381 7  53837112.131 6  20890924.389 0  20890925.106 0
   4241707.561 7   3527148.594 7  23205170.720 0  23205171.437 0
 -11155256.122 8  -8421295.464 7  21806684.936 0  21806686.566 0
 88  2 24  9 17 29.0800000  0  4  3 13 11  9
  -7915589.403 7  78550989.507 7  22562186.895 0  22562188.271 0
  -2709507.726 7  53854058.355 7  20895062.625 0  20895063.360 0
   4308243.788 7   3578995.000 7  23217832.774 0  23217834.078 0
 -11054649.125 7  -8342900.403 6  21825829.032 0  21825830.233 0
 88  2 24  9 17 59.0800000  0  4  3 13 11  9
  -7966684.836 7  78511174.888 7  22552463.412 0  22552465.031 0
  -2687559.147 7  53871161.133 7  20899238.927 0  20899240.967 0
   4374764.750 7   3630829.514 7  23230490.199 0  23230492.078 0
 -10953655.921 7  -8264204.403 7  21845048.409 0  21845048.737 0
 88  2 24  9 18 29.0800000  0  4  3 13 11  9
  -8017572.072 6  78471522.489 6  22542781.076 0  22542782.287 0
  -2665410.748 7  53888419.614 7  20903454.554 0  20903455.511 0
   4441269.561 7   3682651.453 7  23243145.323 0  23243147.932 0
 -10852279.642 8  -8185209.900 6  21864339.875 0  21864341.362 0
 88  2 24  9 18 59.0800000  0  4  3 13 11  9
  -8068251.875 7  78432031.705 6  22533137.145 0  22533137.761 0
  -2643064.576 7  53905832.227 7  20907707.110 0  20907708.159 0
   4507757.795 7   3734460.457 6  23255798.194 0  23255799.948 0
 -10750523.255 8  -8105919.217 7  21883703.574 0  21883704.991 0
 88  2 24  9 19 29.0800000  0  4  3 13 11  9
  -8118724.880 6  78392702.091 7  22523531.305 0  22523533.310 0
  -2620522.216 7  53923397.685 6  20911996.157 0  20911997.383 0
   4574228.636 7   3786255.930 6  23268447.599 0  23268448.491 0
 -10648390.195 7  -8026335.018 6  21903139.034 0  21903138.791 0
 88  2 24  9 19 59.0800000  0  4  3 13 11  9
  -8168991.754 6  78353533.115 6  22513966.296 0  22513968.445 0
  -2597785.202 7  53941114.829 6  20916323.047 0  20916323.409 0
   4640680.954 6   3838036.968 6  23281092.579 0  23281093.975 0
 -10545883.885 8  -7946459.978 6  21922645.009 0  21922646.025 0
 88  2 24  9 20 29.0800000  0  4  3 13 11  9
  -8219053.152 7  78314524.240 6  22504441.089 0  22504441.091 0
  -2574855.302 7  53958982.303 6  20920686.498 0  20920687.487 0
   4707114.478 7   3889803.345 6  23293734.556 0  23293735.560 0
 -10443007.136 7  -7866296.272 7  21942221.930 0  21942222.660 0
 88  2 24  9 20 59.0800000  0  4  3 13 11  9
  -8268909.515 7  78275675.115 7  22494954.109 0  22494954.390 0
  -2551733.829 8  53976999.030 6  20925086.296 0  20925087.288 0
   4773528.714 6   3941554.695 7  23306372.821 0  23306374.164 0
 -10339763.462 7  -7785846.660 7  21961868.580 0  21961869.180 0
 88  2 24  9 21 29.0800000  0  4  3 13 11  9
  -8318561.304 7  78236985.409 7  22485504.912 0  22485506.130 0
  -2528422.210 7  53995163.920 7  20929521.812 0  20929522.911 0
   4839922.698 7   3993290.256 6  23319007.992 0  23319009.329 0
 -10236156.186 7  -7705113.730 7  21981584.485 0  21981584.814 0
 88  2 24  9 21 59.0800000  0  4  3 13 11  9
  -8368009.339 7  78198454.491 6  22476094.779 0  22476095.539 0
  -2504921.984 7  54013475.778 7  20933994.687 0  20933995.761 0
   4906295.784 7   4045009.559 7  23331637.088 0  23331639.540 0
 -10132188.266 7  -7624099.772 7  22001369.233 0  22001369.647 0
 88  2 24  9 22 29.0800000  0  4  3 13 11  9
  -8417254.063 7  78160081.962 6  22466722.944 0  22466725.487 0
  -2481235.315 8  54031932.929 7  20938501.266 0  20938503.565 0
   4972647.147 7   4096711.924 7  23344263.452 0  23344265.596 0
 -10027863.310 7  -7542807.604 6  22021221.262 0  22021221.563 0
 88  2 24  9 22 59.0800000  0  4  3 13 11  9
  -8466296.515 7  78121867.060 7  22457390.876 0  22457392.459 0
  -2457363.759 8  54050534.141 7  20943044.213 0  20943046.307 0
   5038976.515 7   4148397.154 7  23356886.048 0  23356887.813 0
  -9923184.514 7  -7461239.711 6  22041140.172 0  22041140.987 0
 88  2 24  9 23 29.0800000  0  4  3 13 11  9
  -8515137.219 7  78083809.378 7  22448097.120 0  22448099.011 0
  -2433308.044 7  54069278.851 7  20947621.301 0  20947623.296 0
   5105283.022 7   4200064.561 7  23369502.387 0  23369505.330 0
  -9818155.127 7  -7379398.637 6  22061127.680 0  22061127.551 0
 88  2 24  9 23 59.0800000  0  4  3 13 11  9
  -8563776.490 7  78045908.674 7  22438842.299 0  22438842.473 0
  -2409069.887 7  54088165.723 6  20952234.756 0  20952234.972 0
   5171565.853 6   4251713.498 7  23382116.685 0  23382118.890 0
  -9712778.371 8  -7297286.881 6  22081180.840 0  22081180.424 0
 88  2 24  9 24 29.0800000  0  4  3 13 11  9
  -8612215.064 6  78008164.337 6  22429625.318 0  22429624.341 0
  -2384650.915 7  54107193.483 7  20956880.486 0  20956882.240 0
   5237824.801 6   4303343.840 7  23394725.484 0  23394727.244 0
  -9607057.455 7  -7214906.949 7  22101298.919 0  22101299.234 0
 88  2 24  9 24 59.0800000  0  4  3 13 11  9
  -8660453.596 7  77970575.872 7  22420444.921 0  22420445.416 0
  -2360053.080 7  54126360.630 6  20961562.282 0  20961563.206 0
   5304059.179 6   4354955.026 7  23407328.641 0  23407330.989 0
  -9500995.897 7  -7132261.597 7  22121480.747 0  22121481.033 0
 88  2 24  9 25 29.0800000  0  4  3 13 11  9
  -8708492.678 7  77933142.819 7  22411302.526 0  22411303.258 0
  -2335277.488 7  54145666.277 7  20966276.689 0  20966277.966 0
   5370268.190 7   4406546.458 8  23419928.472 0  23419930.411 0
  -9394596.769 7  -7049353.189 6  22141726.866 0  22141729.312 0
 88  2 24  9 25 59.0800000  0  4  3 13 11  9
  -8756333.390 7  77895864.351 7  22402198.854 0  22402200.087 0
  -2310325.948 7  54165109.042 6  20971024.303 0  20971025.732 0
   5436451.418 6   4458117.781 7  23432522.775 0  23432523.767 0
  -9287863.789 7  -6966184.642 7  22162038.620 0  22162039.778 0
 88  2 24  9 26 29.0800000  0  4  3 13 11  9
  -8803976.153 7  77858740.135 6  22393132.185 0  22393134.426 0
  -2285199.541 7  54184688.067 6  20975805.562 0  20975807.451 0
   5502608.086 6   4509668.427 7  23445110.149 0  23445114.029 0
  -9180799.771 7  -6882758.142 6  22182412.262 0  22182412.605 0
 88  2 24  9 26 59.0800000  0  4  3 13 11  9
  -8851421.935 6  77821769.416 7  22384105.073 0  22384106.062 0
  -2259899.609 7  54204402.302 7  20980619.868 0  20980620.889 0
   5568737.825 6   4561198.069 7  23457696.042 0  23457698.708 0
  -9073408.330 7  -6799076.507 7  22202848.135 0  22202848.508 0
 88  2 24  9 27 29.0800000  0  4  3 13 11  9
  -8898671.073 7  77784951.911 7  22375113.441 0  22375113.822 0
  -2234428.270 8  54224250.093 7  20985466.616 0  20985469.712 0
   5634839.685 7   4612706.019 7  23470274.992 0  23470276.171 0
  -8965692.973 7  -6715142.475 6  22223345.652 0  22223346.597 0
 88  2 24  9 27 59.0800000  0  4  3 13 11  9
  -8945724.288 7  77748287.062 6  22366160.350 0  22366160.031 0
  -2208786.591 7  54244230.629 7  20990346.040 0  20990347.837 0
   5700913.584 7   4664192.186 7  23482847.613 0  23482849.589 0
  -8857656.750 7  -6630958.421 6  22243904.226 0  22243905.185 0
 88  2 24  9 28 29.0800000  0  4  3 13 11  9
  -8992582.181 7  77711774.396 6  22357242.882 0  22357244.416 0
  -2182975.842 8  54264342.890 7  20995258.295 0  20995259.528 0
   5766958.779 8   4715655.983 7  23495415.971 0  23495418.745 0
  -8749303.237 8  -6546527.122 7  22264522.326 0  22264523.614 0
 88  2 24  9 28 59.0800000  0  4  3 13 11  9
  -9039245.678 7  77675413.231 6  22348362.348 0  22348363.273 0
  -2156997.892 7  54284585.443 6  21000201.714 0  21000202.982 0
   5832974.713 7   4767096.991 7  23507979.152 0  23507980.262 0
  -8640635.360 7  -6461850.853 6  22285201.327 0  22285201.743 0
 88  2 24  9 29 29.0800000  0  4  3 13 11  9
  -9085715.479 7  77639202.998 6  22339520.576 0  22339521.180 0
  -2130854.010 8  54304957.307 6  21005177.084 0  21005178.041 0
   5898961.069 7   4818514.930 7  23520534.953 0  23520537.211 0
  -8531656.880 7  -6376932.549 6  22305940.555 0  22305941.027 0
 88  2 24  9 29 59.0800000  0  4  3 13 11  9
  -9131992.061 7  77603143.317 6  22330714.407 0  22330715.016 0
  -2104545.403 7  54325457.529 6  21010183.187 0  21010185.234 0
   5964917.133 8   4869909.287 7  23533086.755 0  23533087.608 0
  -8422370.928 7  -6291774.666 6  22326735.989 0  22326737.119 0
 88  2 24  9 30 29.0800000  0  4  3 13 11  9
  -9178075.865 7  77567233.850 7  22321944.739 0  22321944.740 0
  -2078074.244 7  54346084.400 7  21015220.710 0  21015221.812 0
   6030842.432 8   4921279.663 6  23545631.631 0  23545633.799 0
  -8312780.911 8  -6206379.859 7  22347590.477 0  22347591.679 0
 88  2 24  9 30 59.0800000  0  4  3 13 11  9
  -9223967.534 7  77531474.098 6  22313211.688 0  22313212.548 0
  -2051441.699 8  54366837.035 7  21020287.773 0  21020290.637 0
   6096736.436 7   4972625.654 7  23558170.855 0  23558172.337 0
  -8202890.320 7  -6120750.829 6  22368501.616 0  22368502.416 0
 88  2 24  9 31 29.0800000  0  4  3 13 11  9
  -9269668.111 6  77495863.255 6  22304514.310 0  22304515.093 0
  -2024649.042 7  54387714.430 7  21025387.637 0  21025388.726 0
   6162598.985 7   5023947.128 6  23570704.530 0  23570706.381 0
  -8092702.345 7  -6034890.099 7  22389470.091 0  22389471.421 0
 88  2 24  9 31 59.0800000  0  4  3 13 11  9
  -9315178.331 7  77460400.745 7  22295854.387 0  22295855.834 0
  -1997697.161 7  54408715.896 6  21030515.654 0  21030515.860 0
   6228429.500 7   5075243.664 7  23583231.151 0  23583232.852 0
  -7982220.564 7  -5948800.388 6  22410494.558 0  22410493.456 0
 88  2 24  9 32 29.0800000  0  4  3 13 11  9
  -9360499.078 7  77425085.882 7  22287229.271 0  22287232.464 0
  -1970588.019 7  54429839.904 7  21035675.155 0  21035675.768 0
   6294227.661 7   5126514.978 7  23595752.445 0  23595753.208 0
  -7871448.046 7  -5862484.154 7  22431573.257 0  22431574.788 0
 88  2 24  9 32 59.0800000  0  4  3 13 11  9
  -9405630.781 7  77389918.320 6  22278640.885 0  22278643.550 0
  -1943323.775 7  54451084.768 6  21040863.951 0  21040863.230 0
   6359992.894 7   5177760.615 7  23608266.478 0  23608268.000 0
  -7760388.371 7  -5775944.153 6  22452707.675 0  22452707.976 0
 88  2 24  9 33 29.0800000  0  4  3 13 11  9
  -9450574.002 7  77354897.643 7  22270090.020 0  22270091.260 0
  -1915905.220 8  54472449.886 6  21046080.324 0  21046080.954 0
   6425724.730 5   5228980.227 7  23620774.221 0  23620776.122 0
  -7649045.079 7  -5689183.172 7  22473895.453 0  22473896.112 0
 88  2 24  9 33 59.0800000  0  4  3 13 11  9
  -9495329.878 7  77320022.941 6  22261573.117 0  22261573.227 0
  -1888333.722 7  54493934.156 6  21051327.579 0  21051327.989 0
   6491422.728 6   5280173.436 7  23633276.885 0  23633279.037 0
  -7537421.514 7  -5602203.792 7  22495136.934 0  22495137.993 0
 88  2 24  9 34 29.0800000  0  4  3 13 11  9
  -9539898.524 7  77285294.137 6  22253091.937 0  22253092.963 0
  -1860610.253 7  54515536.855 7  21056602.570 0  21056603.491 0
   6557086.432 5   5331339.930 7  23645771.080 0  23645774.618 0
  -7425520.708 7  -5515008.348 7  22516430.958 0  22516431.702 0
 88  2 24  9 34 59.0800000  0  4  3 13 11  9
  -9584280.998 7  77250710.400 7  22244647.039 0  22244647.234 0
  -1832736.410 7  54537256.739 7  21061906.883 0  21061907.264 0
   6622715.450 7   5382479.410 7  23658261.085 0  23658263.355 0
  -7313346.254 7  -5427599.695 6  22537776.924 0  22537777.611 0
 88  2 24  9 35 29.0800000  0  4  3 13 11  9
  -9628477.984 8  77216271.192 6  22236235.737 0  22236236.684 0
  -1804713.742 7  54559092.578 6  21067238.188 0  21067240.728 0
   6688309.733 7   5433591.847 7  23670743.813 0  23670744.894 0
  -7200901.361 7  -5339980.298 7  22559174.385 0  22559175.229 0
 88  2 24  9 35 59.0800000  0  4  3 13 11  9
  -9672490.216 7  77181975.956 7  22227859.108 0  22227862.136 0
  -1776543.819 7  54581043.170 7  21072599.527 0  21072602.068 0
   6753868.143 6   5484676.325 7  23683219.364 0  23683220.185 0
  -7088189.934 8  -5252153.229 6  22580622.659 0  22580622.631 0
 88  2 24  9 36 29.0800000  0  4  3 13 11  9
  -9716318.233 7  77147824.277 6  22219519.974 0  22219520.935 0
  -1748227.878 7  54603107.531 6  21077988.312 0  21077989.565 0
   6819390.827 6   5535732.936 7  23695686.324 0  23695688.585 0
  -6975214.780 8  -5164120.638 7  22602121.644 0  22602121.615 0
 88  2 24  9 36 59.0800000  0  4  3 13 11  9
  -9759963.226 7  77113815.192 7  22211214.290 0  22211215.265 0
  -1719767.067 8  54625284.781 6  21083404.154 0  21083405.623 0
   6884877.445 7   5586761.459 7  23708148.807 0  23708151.570 0
  -6861979.505 8  -5075885.364 7  22623668.629 0  22623669.945 0
 88  2 24  9 37 29.0800000  0  4  3 13 11  9
  -9803425.697 7  77079948.318 7  22202943.447 0  22202945.031 0
  -1691162.889 7  54647573.779 6  21088847.557 0  21088848.468 0
   6950327.472 7   5637761.487 7  23720603.760 0  23720605.866 0
  -6748487.857 7  -4987450.325 7  22645266.058 0  22645265.668 0
 88  2 24  9 37 59.0800000  0  4  3 13 11  9
  -9846706.211 7  77046223.249 7  22194707.098 0  22194709.446 0
  -1662416.433 7  54669973.615 7  21094318.119 0  21094318.642 0
   7015740.722 7   5688732.871 7  23733051.641 0  23733053.063 0
  -6634742.972 8  -4898817.962 6  22666911.003 0  22666911.200 0
 88  2 24  9 38 29.0800000  0  4  3 13 11  9
  -9889805.653 7  77012639.295 7  22186505.599 0  22186508.455 0
  -1633529.128 8  54692483.208 7  21099814.637 0  21099816.148 0
   7081116.971 7   5739675.426 6  23745492.647 0  23745493.851 0
  -6520748.177 7  -4809990.835 6  22688602.694 0  22688603.785 0
 88  2 24  9 38 59.0800000  0  4  3 13 11  9
  -9932724.588 7  76979195.995 6  22178340.000 0  22178341.577 0
  -1604502.243 7  54715101.568 7  21105338.014 0  21105339.267 0
   7146455.637 7   5790588.676 7  23757925.669 0  23757927.215 0
  -6406506.754 7  -4720971.570 6  22710342.274 0  22710343.136 0
 88  2 24  9 39 29.0800000  0  4  3 13 11  9
  -9975463.930 8  76945892.607 7  22170205.840 0  22170205.663 0
  -1575337.072 7  54737827.687 6  21110887.447 0  21110889.316 0
   7211756.734 8   5841472.669 7  23770352.675 0  23770353.628 0
  -6292022.599 7  -4631763.159 7  22732127.757 0  22732128.741 0
 88  2 24  9 39 59.0800000  0  4  3 13 11  9
 -10018024.529 7  76912728.501 7  22162106.064 0  22162108.055 0
  -1546035.320 8  54760660.222 7  21116464.612 0  21116465.064 0
   7277019.599 7   5892326.828 7  23782771.556 0  23782772.363 0
  -6177298.760 7  -4542367.963 6  22753960.283 0  22753960.441 0
 88  2 24  9 40 29.0800000  0  4  3 13 11  9
 -10060406.885 7  76879703.300 7  22154041.911 0  22154044.574 0
  -1516597.864 8  54783598.504 7  21122066.975 0  21122067.085 0
   7342244.050 7   5943151.092 7  23795183.249 0  23795185.082 0
  -6062338.668 7  -4452788.677 6  22775836.365 0  22775837.012 0
 88  2 24  9 40 59.0800000  0  4  3 13 11  9
 -10102611.809 7  76846816.360 7  22146010.647 0  22146011.873 0
  -1487025.530 7  54806641.887 7  21127693.808 0  21127694.518 0
   7407430.135 7   5993945.430 6  23807586.375 0  23807588.493 0
  -5947145.632 7  -4363027.888 7  22797756.241 0  22797756.605 0
 88  2 24  9 41 29.0800000  0  4  3 13 11  9
 -10144639.692 7  76814067.369 6  22138012.924 0  22138013.678 0
  -1457320.339 8  54829788.797 7  21133346.940 0  21133347.449 0
   7472577.371 7   6044709.519 6  23819984.393 0  23819986.862 0
  -5831723.491 7  -4273088.557 6  22819719.799 0  22819722.231 0
 88  2 24  9 41 59.0800000  0  4  3 13 11  9
 -10186491.758 7  76781455.388 7  22130049.380 0  22130050.484 0
  -1427483.590 8  54853038.212 6  21139024.069 0  21139025.881 0
   7537685.521 7   6095443.150 6  23832374.561 0  23832374.934 0
  -5716075.252 7  -4182973.056 6  22841727.318 0  22841727.860 0
 88  2 24  9 42 29.0800000  0  4  3 13 11  9
 -10228168.585 7  76748979.959 6  22122118.911 0  22122118.848 0
  -1397516.073 7  54876389.527 7  21144727.055 0  21144727.378 0
   7602754.245 6   6146146.079 6  23844756.594 0  23844757.278 0
  -5600204.247 7  -4092683.967 7  22863777.164 0  22863777.458 0
 88  2 24  9 42 59.0800000  0  4  3 13 11  9
 -10269670.756 7  76716640.612 7  22114220.409 0  22114223.337 0
  -1367419.666 7  54899841.269 6  21150454.409 0  21150455.004 0
   7667783.409 7   6196818.133 7  23857130.611 0  23857133.263 0
  -5484114.609 7  -4002224.503 6  22885867.623 0  22885870.006 0
 88  2 24  9 43 29.0800000  0  4  3 13 11  9
 -10310999.419 8  76684436.458 6  22106355.389 0  22106357.366 0
  -1337195.044 8  54923392.926 6  21156205.616 0  21156206.784 0
   7732772.875 6   6247459.258 7  23869498.812 0  23869499.429 0
  -5367809.206 7  -3911596.908 6  22908000.352 0  22908000.881 0
 88  2 24  9 43 59.0800000  0  4  3 13 11  9
 -10352155.101 7  76652367.111 7  22098524.054 0  22098524.764 0
  -1306843.837 7  54947043.236 7  21161982.094 0  21161982.918 0
   7797722.081 6   6298068.990 7  23881857.543 0  23881858.994 0
  -5251291.272 8  -3820803.712 6  22930173.061 0  22930174.133 0
 88  2 24  9 44 29.0800000  0  4  3 13 11  9
 -10393138.530 7  76620431.985 7  22090725.808 0  22090726.076 0
  -1276367.185 7  54970791.256 7  21167780.937 0  21167781.919 0
   7862630.999 6   6348647.356 7  23894209.395 0  23894210.742 0
  -5134564.625 7  -3729847.891 6  22952386.246 0  22952386.417 0
 88  2 24  9 44 59.0800000  0  4  3 13 11  9
 -10433950.161 7  76588630.719 7  22082958.779 0  22082960.842 0
  -1245765.804 7  54994636.485 7  21173603.762 0  21173604.845 0
   7927499.619 6   6399194.309 7  23906552.670 0  23906555.214 0
  -5017632.473 8  -3638731.947 7  22974636.900 0  22974638.259 0
 88  2 24  9 45 29.0800000  0  4  3 13 11  9
 -10474591.501 7  76556962.143 7  22075224.732 0  22075226.752 0
  -1215041.444 7  55018577.545 7  21179450.341 0  21179451.208 0
   7992327.562 7   6449709.559 7  23918889.608 0  23918891.122 0
  -4900498.168 7  -3547458.470 6  22996926.403 0  22996927.383 0
 88  2 24  9 45 59.0800000  0  4  3 13 11  9
 -10515062.902 7  76525425.994 6  22067523.775 0  22067525.787 0
  -1184195.041 7  55042613.700 7  21185320.143 0  21185321.468 0
   8057114.758 7   6500193.083 7  23931218.443 0  23931219.572 0
  -4783165.295 7  -3456030.257 7  23019254.785 0  23019255.887 0
 88  2 24  9 46 29.0800000  0  4  3 13 11  9
 -10555365.224 8  76494021.597 7  22059854.477 0  22059856.554 0
  -1153227.549 7  55066744.213 6  21191212.926 0  21191215.195 0
   8121860.979 7   6550644.673 7  23943538.915 0  23943541.246 0
  -4665636.966 7  -3364449.743 7  23041619.837 0  23041620.468 0
 88  2 24  9 46 59.0800000  0  4  3 13 11  9
 -10595499.045 7  76462748.505 7  22052217.618 0  22052218.508 0
  -1122140.814 8  55090967.633 7  21197128.489 0  21197130.414 0
   8186565.963 7   6601064.129 8  23955852.372 0  23955853.315 0
  -4547917.051 8  -3272719.953 7  23064021.296 0  23064021.339 0
 88  2 24  9 47 29.0800000  0  4  3 13 11  9
 -10635464.881 7  76431606.316 7  22044611.109 0  22044613.322 0
  -1090935.890 7  55115283.166 7  21203066.932 0  21203067.928 0
   8251229.731 7   6651451.474 7  23968157.419 0  23968159.044 0
  -4430008.980 7  -3180843.542 6  23086457.276 0  23086458.918 0
 88  2 24  9 47 59.0800000  0  4  3 13 11  9
 -10675263.596 7  76400594.330 7  22037038.655 0  22037039.574 0
  -1059613.584 7  55139690.154 7  21209027.483 0  21209029.051 0
   8315851.965 7   6701806.458 7  23980454.739 0  23980456.461 0
  -4311915.858 7  -3088822.944 7  23108929.544 0  23108930.857 0
 88  2 24  9 48 29.0800000  0  4  3 13 11  9
 -10714896.364 7  76369711.652 6  22029496.509 0  22029498.722 0
  -1028175.496 8  55164187.361 7  21215010.571 0  21215011.696 0
   8380432.464 7   6752128.933 8  23992744.285 0  23992745.771 0
  -4193641.163 7  -2996660.834 7  23131436.754 0  23131437.576 0
 88  2 24  9 48 59.0800000  0  4  3 13 11  9
 -10754363.684 7  76338957.923 6  22021986.558 0  22021987.605 0
   -996622.054 7  55188774.448 7  21221014.093 0  21221015.003 0
   8444971.117 7   6802418.795 7  24005025.374 0  24005027.076 0
  -4075188.046 7  -2904359.733 7  23153977.599 0  23153978.944 0
 88  2 24  9 49 29.0800000  0  4  3 13 11  9
 -10793666.306 7  76308332.513 7  22014507.379 0  22014508.162 0
   -964955.082 7  55213450.016 7  21227040.237 0  21227041.033 0
   8509467.975 8   6852676.088 7  24017298.508 0  24017300.746 0
  -3956560.180 7  -2811922.454 7  23176551.598 0  23176553.952 0
 88  2 24  9 49 59.0800000  0  4  3 13 11  9
 -10832805.138 7  76277834.721 7  22007058.571 0  22007060.899 0
   -933175.422 7  55238213.381 7  21233087.430 0  21233088.755 0
   8573922.948 7   6902900.739 7  24029563.762 0  24029565.841 0
  -3837761.034 7  -2719351.712 7  23199159.406 0  23199159.653 0
 88  2 24  9 50 29.0800000  0  4  3 13 11  9
 -10871780.609 7  76247464.244 6  21999642.511 0  21999644.345 0
   -901283.957 7  55263063.871 7  21239156.031 0  21239157.942 0
   8638335.844 7   6953092.620 7  24041820.869 0  24041822.186 0
  -3718793.956 7  -2626650.111 6  23221797.103 0  23221798.837 0
 88  2 24  9 50 59.0800000  0  4  3 13 11  9
 -10910593.337 7  76217220.578 6  21992258.453 0  21992258.648 0
   -869282.319 7  55288000.214 7  21245245.451 0  21245246.103 0
   8702706.753 7   7003251.763 7  24054070.514 0  24054071.778 0
  -3599662.524 7  -2533820.419 7  23244467.102 0  23244468.003 0
 88  2 24  9 51 29.0800000  0  4  3 13 11  9
 -10949244.362 7  76187102.903 7  21984902.676 0  21984903.121 0
   -837171.571 7  55313021.576 7  21251356.219 0  21251357.244 0
   8767035.476 7   7053378.028 7  24066311.358 0  24066312.584 0
  -3480370.023 7  -2440865.238 6  23267167.579 0  23267168.557 0
 88  2 24  9 51 59.0800000  0  4  3 13 11  9
 -10987734.267 7  76157110.777 7  21977578.809 0  21977578.969 0
   -804952.567 7  55338127.293 7  21257487.536 0  21257489.333 0
   8831321.809 7   7103471.282 7  24078545.231 0  24078547.054 0
  -3360919.600 7  -2347786.980 6  23289899.105 0  23289898.093 0
 88  2 24  9 52 29.0800000  0  4  3 13 12  9
 -11026064.025 7  76127243.429 7  21970283.907 0  21970283.456 0
   -772626.126 8  55363316.729 7  21263638.596 0  21263640.050 0
          .258 6         -.218 7  20975614.680 0          .000 0
  -3241314.859 3  -2254588.493 3  23312657.733 0  23312659.572 0
 88  2 24  9 52 59.0800000  0  4  3 13 12  9
 -11064234.278 8  76097500.394 6  21963019.865 0  21963020.241 0
   -740193.493 7  55388588.919 6  21269810.764 0  21269811.661 0
     47900.350 5 120484846.070 5  20984759.115 0  20984759.610 0
  -3121559.178 2  -2161272.361 1  23335447.457 0  23335450.867 0
 88  2 24  9 53 29.0800000  0  4  3 13 12  9
 -11102245.700 7  76067881.110 6  21955786.606 0  21955787.381 0
   -707655.974 7  55413942.825 6  21276001.741 0  21276003.672 0
     96384.062 5 120522625.583 4  20993986.523 0  20993987.175 0
  -3001655.944 1  -2067841.292 1  23358263.726 0  23358264.212 0
 88  2 24  9 53 59.0800000  0  4  3 13 12  9
 -11140099.343 7  76038384.772 6  21948582.970 0  21948584.592 0
   -675014.504 7  55439377.736 6  21282214.213 0  21282215.795 0
    145449.445 5 120560858.319 5  21003321.376 0  21003324.339 0
  -2881608.561 1  -1974297.868 1  23381110.144 0  23381112.405 0
 88  2 24  9 54 29.0800000  0  4  3 13 12  9
 -11177795.352 7  76009011.265 6  21941409.890 0  21941410.862 0
   -642270.201 7  55464892.789 7  21288444.756 0  21288445.802 0
    195094.518 5 120599542.779 5  21012769.566 0  21012771.635 0
  -2761420.230 1  -1853425.477 1  23403980.144 0  23404075.086 0
 88  2 24  9 54 59.0800000  0  4  3 13 12  9
 -11215335.055 7  75979759.570 7  21934266.970 0  21934267.259 0
   -609423.520 7  55490487.615 6  21294695.752 0  21294696.973 0
    245317.700 6 120638677.696 5  21022326.206 0  21022327.319 0
  -2641094.463 1  -1732466.810 1  23426876.049 0  23426861.381 0
 88  2 24  9 55 29.0800000  0  4  3 13 12  9
 -11252718.823 7  75950629.367 6  21927153.286 0  21927153.771 0
   -576475.804 7  55516161.174 6  21300964.658 0  21300966.036 0
    296117.594 5 120678262.021 5  21031994.348 0  21031995.281 0
  -2520634.782 1  -1638601.598 1  23449800.150 0  23449797.842 0
 88  2 24  9 55 59.0800000  0  4  3 13 12  9
 -11289947.459 7  75921620.054 6  21920067.548 0  21920068.873 0
   -543428.787 7  55541912.091 7  21307253.213 0  21307255.040 0
    347491.065 5 120718293.292 5  21041768.861 0  21041770.893 0
  -2400052.903 5  -1410601.598 1  23472747.037 0          .000 0
 88  2 24  9 56 29.0800000  0  4  3 13 12  9
 -11327021.392 7  75892731.309 6  21913013.175 0  21913014.035 0
   -510282.848 7  55567740.097 6  21313561.068 0  21313562.711 0
    399436.673 7 120758770.384 6  21051654.690 0  21051656.164 0
-102160244.047 7  -1182601.598 1          .000 0          .000 0
 88  2 24  9 56 59.0800000  0  4  3 13 12  9
 -11363941.875 7  75863962.093 6  21905987.934 0  21905987.735 0
   -477038.583 8  55593644.739 7  21319887.128 0  21319889.104 0
    451952.076 7 120799691.453 6  21061647.499 0  21061650.620 0
-102039402.370 7   -954601.598 1          .000 0          .000 0
 88  2 24  9 57 29.0800000  0  4  3 13 12  9
 -11400709.632 7  75835311.903 7  21898991.818 0  21898992.200 0
   -443697.402 7  55619624.888 6  21326232.573 0  21326233.462 0
    505035.205 7 120841054.909 6  21071748.699 0  21071750.414 0
-101918440.865 7 129922234.181 7  23541733.305 0  23541733.377 0
 88  2 24  9 57 59.0800000  0  4  3 13 12  9
 -11437325.391 8  75806780.160 7  21892024.055 0  21892024.708 0
   -410260.120 7  55645679.914 6  21332594.796 0  21332595.323 0
    558684.042 7 120882859.176 6  21081957.645 0  21081959.961 0
-101797361.477 6 130016581.760 6  23564772.716 0  23564774.425 0
 88  2 24  9 58 29.0800000  0  4  3 13 12  9
 -11473789.551 7  75778366.536 6  21885084.015 0  21885084.805 0
   -376727.441 7  55671809.295 6  21338975.722 0  21338977.777 0
    612896.587 7 120925102.717 6  21092274.821 0  21092276.524 0
-101676168.066 6 130111018.160 7  23587836.417 0  23587837.456 0
 88  2 24  9 58 59.0800000  0  4  3 13 12  9
 -11510102.836 7  75750070.493 7  21878175.488 0  21878175.107 0
   -343100.753 7  55698011.885 6  21345374.872 0  21345376.674 0
    667670.117 8 120967783.370 7  21102697.233 0  21102699.288 0
-101554864.365 7 130205540.497 7  23610919.556 0  23610920.349 0
 88  2 24  9 59 29.0800000  0  4  3 13 12  9
 -11546266.321 7  75721891.181 6  21871292.394 0  21871293.483 0
   -309380.605 8  55724287.346 6  21351791.881 0  21351792.710 0
    723002.810 7 121010899.745 6  21113227.017 0  21113228.606 0
-101433453.541 7 130300146.329 6  23634023.131 0  23634024.171 0
 88  2 24  9 59 59.0800000  0  4  3 13 12  9
 -11582280.582 7  75693828.133 6  21864439.350 0  21864439.585 0
   -275568.682 7  55750634.308 6  21358225.666 0  21358227.246 0
    778892.731 8 121054450.318 6  21123862.352 0  21123864.532 0
-101311939.016 7 130394832.968 7  23657145.822 0  23657147.773 0
 88  2 24 10  0 29.0800000  0  4  3 13 12  9
 -11618146.524 7  75665880.659 7  21857614.651 0  21857615.073 0
   -241665.257 7  55777052.560 7  21364677.028 0  21364677.981 0
    835336.810 8 121098432.690 6  21134603.624 0  21134604.563 0
-101190323.828 7 130489598.037 6  23680289.282 0  23680290.463 0
 88  2 24 10  0 59.0800000  0  4  3 13 12  9
 -11653864.722 7  75638048.314 7  21850816.496 0  21850817.266 0
   -207671.709 7  55803541.046 6  21371145.109 0  21371147.947 0
    892333.279 8 121142845.521 6  21145449.758 0  21145451.488 0
-101068611.780 7 130584438.588 7  23703450.016 0  23703450.121 0
 88  2 24 10  1 29.0800000  0  4  3 13 12  9
 -11689435.625 7  75610330.747 7  21844047.803 0  21844048.027 0
   -173588.989 7  55830099.029 7  21377631.717 0  21377632.324 0
    949879.858 8 121187686.987 6  21156400.008 0  21156402.467 0
-100946806.066 7 130679352.146 6  23726628.932 0  23726628.942 0
 88  2 24 10  1 59.0800000  0  4  3 13 12  9
 -11724860.139 7  75582727.232 6  21837306.599 0  21837306.241 0
   -139417.573 8  55856726.096 7  21384134.684 0  21384134.994 0
   1007974.112 8 121232955.230 7  21167455.025 0  21167456.840 0
-100824909.838 8 130774336.219 7  23749824.838 0  23749825.124 0
 88  2 24 10  2 29.0800000  0  4  3 13 12  9
 -11760139.012 8  75555237.228 6  21830592.207 0  21830594.165 0
   -105158.288 7  55883421.640 7  21390652.949 0  21390654.293 0
   1066613.721 8 121278648.413 7  21178614.473 0  21178615.754 0
-100702926.467 8 130869388.200 6  23773037.354 0  23773038.155 0
 88  2 24 10  2 59.0800000  0  4  3 13 12  9
 -11795273.012 7  75527860.098 6  21823907.782 0  21823907.673 0
    -70812.233 7  55910184.805 7  21397188.977 0  21397190.563 0
   1125796.310 8 121324764.702 7  21189875.663 0  21189878.218 0
-100580859.432 7 130964505.375 6  23796266.906 0  23796265.417 0
 88  2 24 10  3 29.0800000  0  4  3 13 12  9
 -11830262.999 7  75500595.174 6  21817249.102 0  21817250.868 0
    -36380.176 7  55937014.997 7  21403741.744 0  21403743.579 0
   1185519.451 8 121371302.197 6  21201241.132 0  21201243.383 0
-100458711.999 7 131059685.192 6  23819509.975 0  23819509.584 0
 88  2 24 10  3 59.0800000  0  4  3 13 12  9
 -11865109.425 7  75473442.139 6  21810618.251 0  21810619.101 0
     -1862.922 7  55963911.540 7  21410309.973 0  21410312.703 0
   1245780.802 8 121418259.076 6  21212708.742 0  21212710.981 0
-100336487.459 7 131154925.094 6  23842768.071 0  23842768.719 0
 88  2 24 10  4 29.0800000  0  4  3 13 12  9
 -11899812.990 7  75446400.405 6  21804014.563 0  21804015.055 0
     32738.647 7  55990873.830 7  21416894.320 0  21416896.708 0
   1306578.286 8 121465633.728 6  21224277.634 0  21224279.747 0
-100214189.074 7 131250222.552 6  23866041.165 0  23866042.381 0
 88  2 24 10  4 59.0800000  0  4  3 13 12  9
 -11934374.699 7  75419469.221 6  21797437.187 0  21797438.401 0
     67423.604 7  56017901.061 7  21423495.360 0  21423496.966 0
   1367909.507 7 121513424.273 7  21235948.460 0  21235950.422 0
-100091820.145 6 131345574.956 6  23889326.573 0  23889327.684 0
 88  2 24 10  5 29.0800000  0  4  3 13 12  9
 -11968795.138 7  75392648.103 6  21790887.484 0  21790888.838 0
    102191.315 7  56044992.788 6  21430110.430 0  21430112.578 0
   1429771.306 6 121561628.260 5  21247720.880 0  21247723.016 0
 -99969384.053 7 131440979.683 6  23912625.500 0  23912627.648 0
 88  2 24 10  5 59.0800000  0  4  3 13 12  9
 -12003074.970 7  75365936.555 6  21784364.431 0  21784364.024 0
    137040.575 8  56072148.063 7  21436742.942 0  21436745.040 0
   1492161.731 7 121610244.154 7  21259593.101 0  21259595.336 0
 -99846883.943 6 131536434.285 7  23935936.955 0  23935939.140 0
 88  2 24 10  6 29.0800000  0  4  3 13 12  9
 -12037214.702 8  75339334.192 6  21777867.968 0  21777869.283 0
    171970.973 7  56099366.548 6  21443390.082 0  21443391.404 0
   1555078.181 7 121659269.945 7  21271565.739 0  21271569.009 0
 -99724323.241 6 131631936.113 7  23959259.879 0  23959261.219 0
 88  2 24 10  6 59.0800000  0  4  3 13 12  9
 -12071215.317 7  75312840.205 7  21771397.956 0  21771399.305 0
    206981.655 7  56126647.603 6  21450052.463 0  21450054.178 0
   1618518.054 7 121708703.593 6  21283638.033 0  21283640.069 0
 -99601705.383 2 131727482.482 2  23982589.461 0  23982593.349 0
 88  2 24 10  7 29.0800000  0  4  3 13 12  9
 -12105077.213 7  75286454.322 6  21764953.595 0  21764954.683 0
    242071.636 7  56153990.445 6  21456730.045 0  21456729.971 0
   1682478.788 7 121758543.110 6  21295809.229 0  21295811.127 0
 -99479033.167 2 131823071.198 3  24005935.365 0  24005936.955 0
 88  2 24 10  7 59.0800000  0  4  3 13 12  9
 -12138801.056 7  75260176.005 6  21758537.236 0  21758537.460 0
    277240.385 8  56181394.673 6  21463422.647 0  21463422.796 0
   1746957.544 7 121808786.291 6  21308078.611 0  21308080.493 0
 -99356310.471 3 131918699.264 3  24029289.560 0  24029292.344 0
 88  2 24 10  8 29.0800000  0  4  3 13 12  9
 -12172387.716 7  75234004.583 7  21752145.112 0  21752146.028 0
    312487.257 7  56208859.766 7  21470130.053 0  21470130.008 0
   1811951.837 7 121859431.170 6  21320446.750 0  21320450.303 0
 -99233540.066 3 132014364.498 3  24052652.508 0  24052653.117 0
 88  2 24 10  8 59.0800000  0  4  3 13 12  9
 -12205838.129 7  75207939.318 7  21745779.988 0  21745780.393 0
    347811.307 7  56236384.992 7  21476849.707 0  21476852.706 0
   1877459.326 7 121910475.946 6  21332912.742 0  21332914.648 0
 -99110725.626 3 132110064.054 4  24076023.095 0  24076024.208 0
 88  2 24 10  9 29.0800000  0  4  3 13 12  9
 -12239152.722 7  75181979.906 6  21739440.475 0  21739440.700 0
    383211.411 7  56263969.485 6  21483587.604 0  21483589.696 0
   1943477.819 7 121961918.899 6  21345475.736 0  21345478.050 0
 -98987870.134 3 132205795.611 4  24099403.645 0  24099402.032 0
 88  2 24 10  9 59.0800000  0  4  3 13 12  9
 -12272332.084 8  75156125.863 6  21733126.552 0  21733127.877 0
    418687.148 7  56291612.920 6  21490338.250 0  21490339.522 0
   2010003.750 7 122013757.292 6  21358135.592 0  21358136.977 0
 -98864976.985 7 132301556.509 7  24122788.101 0  24122788.739 0
 88  2 24 10 10 29.0800000  0  4  3 13 12  9
 -12305376.833 7  75130376.715 6  21726839.090 0  21726839.292 0
    454238.325 8  56319315.131 7  21497103.048 0  21497104.772 0
   2077034.728 8 122065989.210 6  21370890.827 0  21370892.048 0
 -98742049.336 7 132397344.277 7  24146180.124 0  24146181.950 0
 88  2 24 10 10 59.0800000  0  4  3 13 12  9
 -12338287.717 7  75104731.863 6  21720575.434 0  21720576.611 0
    489863.791 7  56347075.237 7  21503882.655 0  21503883.195 0
   2144568.260 7 122118612.717 6  21383742.009 0  21383742.742 0
 -98619090.519 7 132493156.357 7  24169578.796 0  24169579.726 0
 88  2 24 10 11 29.0800000  0  4  3 13 12  9
 -12371065.501 7  75079190.746 6  21714337.565 0  21714339.088 0
    525562.957 7  56374892.769 6  21510676.602 0  21510676.936 0
   2212601.514 7 122171625.631 6  21396688.309 0  21396690.828 0
 -98496103.678 7 132588990.271 7  24192982.286 0  24192983.021 0
 88  2 24 10 11 59.0800000  0  4  3 13 12  9
 -12403710.719 7  75053752.920 6  21708126.255 0  21708126.609 0
    561334.878 7  56402767.001 7  21517484.247 0  21517485.614 0
   2281131.897 7 122225025.909 6  21409729.208 0  21409732.147 0
 -98373091.957 7 132684843.546 7  24216390.887 0  24216391.761 0
 88  2 24 10 12 29.0800000  0  4  3 13 12  9
 -12436223.847 8  75028418.018 7  21701938.560 0  21701939.094 0
    597178.882 7  56430697.395 6  21524304.018 0  21524304.888 0
   2350156.498 8 122278811.301 6  21422864.178 0  21422866.957 0
 -98250058.672 6 132780713.638 7  24239803.158 0  24239804.603 0
 88  2 24 10 12 59.0800000  0  4  3 13 12  9
 -12468605.573 7  75003185.501 7  21695776.945 0  21695778.949 0
    633094.736 7  56458683.780 6  21531139.202 0  21531140.908 0
   2419672.678 7 122332979.752 6  21436092.820 0  21436094.835 0
 -98127007.000 6 132876598.037 6  24263219.776 0  24263219.645 0
 88  2 24 10 13 29.0800000  0  4  3 13 12  9
 -12500856.772 7  74978054.718 7  21689639.747 0  21689640.707 0
    669081.426 7  56486725.353 7  21537986.243 0  21537988.090 0
   2489677.789 7 122387529.174 6  21449414.327 0  21449415.643 0
 -98003940.090 6 132972494.291 6  24286637.296 0  24286639.460 0
 88  2 24 10 13 59.0800000  0  4  3 13 12  9
 -12532977.893 7  74953025.269 7  21683527.981 0  21683527.447 0
    705138.500 8  56514821.776 7  21544848.243 0  21544849.577 0
   2560168.990 7 122442457.364 6  21462828.047 0  21462829.689 0
 -97880861.127 5 133068399.973 6  24310058.121 0  24310059.618 0
 88  2 24 10 14 29.0800000  0  4  3 13 12  9
 -12564969.570 8  74928096.685 7  21677439.361 0  21677440.098 0
    741265.342 7  56542972.566 7  21551723.347 0  21551723.905 0
   2631143.572 7 122497762.229 6  21476334.768 0  21476336.324 0
 -97757773.529 6 133164312.370 5  24333481.204 0  24333482.495 0
 88  2 24 10 14 59.0800000  0  4  3 13 12  9
 -12596832.883 7  74903268.135 6  21671375.760 0  21671377.951 0
    777461.237 7  56571177.159 7  21558611.081 0  21558612.153 0
   2702598.305 7 122553441.234 6  21489932.619 0  21489932.374 0
 -97634680.417 6 133260229.078 6  24356905.017 0  24356906.791 0
 88  2 24 10 15 29.0800000  0  4  3 13 12  9
 -12628567.936 7  74878539.531 6  21665336.951 0  21665337.802 0
    813725.643 7  56599435.133 7  21565511.605 0  21565512.320 0
   2774530.530 7 122609492.301 6  21503619.300 0  21503621.956 0
 -97511585.124 6 133356147.496 6  24380329.711 0  24380330.819 0
 88  2 24 10 15 59.0800000  0  4  3 13 12  9
 -12660175.419 8  74853910.325 6  21659322.348 0  21659323.132 0
    850057.530 8  56627745.709 7  21572425.267 0  21572425.893 0
   2846937.703 7 122665913.471 7  21517398.814 0  21517399.688 0
 -97388490.625 7 133452065.253 6  24403754.311 0  24403754.549 0
 88  2 24 10 16 29.0800000  0  4  3 13 12  9
 -12691655.695 7  74829380.242 7  21653332.182 0  21653332.830 0
    886456.682 7  56656108.672 7  21579352.896 0  21579352.903 0
   2919816.678 8 122722702.269 6  21531267.394 0  21531269.868 0
 -97265399.970 7 133547980.073 7  24427177.082 0  24427177.758 0
 88  2 24 10 16 59.0800000  0  4  3 13 12  9
 -12723009.877 7  74804948.413 6  21647364.516 0  21647364.825 0
    922922.509 7  56684523.605 7  21586290.734 0  21586293.176 0
   2993164.497 8 122779856.410 6  21545225.572 0  21545226.129 0
 -97142316.479 7 133643889.290 7  24450599.496 0  24450600.457 0
 88  2 24 10 17 29.0800000  0  4  3 13 12  9
 -12754238.591 7  74780614.343 6  21641422.255 0  21641423.574 0
    959454.027 6  56712989.726 7  21593243.145 0  21593243.801 0
   3066978.335 7 122837373.690 6  21559270.929 0  21559272.086 0
 -97019243.415 7 133739790.373 7  24474018.761 0  24474020.054 0
 88  2 24 10 17 59.0800000  0  4  3 13 12  9
 -12785342.360 7  74756377.650 6  21635503.509 0  21635505.004 0
    996050.844 7  56741506.725 6  21600206.714 0  21600207.798 0
   3141255.274 8 122895251.811 6  21573405.919 0  21573407.341 0
 -96896183.778 7 133835681.018 7  24497436.507 0  24497437.820 0
 88  2 24 10 18 29.0800000  0  4  3 13 12  9
 -12816321.855 7  74732237.783 7  21629608.078 0  21629609.312 0
   1032712.902 7  56770074.547 7  21607183.512 0  21607185.042 0
   3215992.045 8 122953488.242 6  21587628.217 0  21587628.839 0
 -96773140.818 7 133931558.644 6  24520851.305 0  24520852.661 0
 88  2 24 10 18 59.0800000  0  4  3 13 12  9
 -12847177.688 7  74708194.289 7  21623736.607 0  21623738.498 0
   1069439.305 7  56798692.524 7  21614172.214 0  21614173.798 0
   3291185.876 8 123012080.826 7  21601937.528 0  21601937.425 0
 -96650117.651 7 134027420.852 7  24544261.481 0  24544261.881 0
 88  2 24 10 19 29.0800000  0  4  3 13 12  9
 -12877910.063 7  74684246.979 7  21617889.065 0  21617888.823 0
   1106229.798 7  56827360.437 6  21621172.962 0  21621174.714 0
   3366833.977 7 123071027.393 7  21616331.776 0  21616334.120 0
 -96527117.289 7 134123265.277 7  24567667.985 0  24567669.001 0
 88  2 24 10 19 59.0800000  0  4  3 13 12  9
 -12908519.641 7  74660395.369 6  21612063.254 0  21612065.248 0
   1143083.809 7  56856077.836 6  21628186.230 0  21628187.083 0
   3442933.850 7 123130325.988 7  21630813.513 0  21630815.044 0
 -96404142.971 6 134219089.427 7  24591069.932 0  24591069.668 0
 88  2 24 10 20 29.0800000  0  4  3 13 12  9
 -12939007.082 7  74636638.913 7  21606261.648 0  21606263.443 0
   1180000.553 7  56884844.132 6  21635211.363 0  21635212.553 0
   3519481.606 7 123189973.567 7  21645379.898 0  21645380.602 0
 -96281197.653 7 134314890.958 7  24614465.318 0  24614465.289 0
 88  2 24 10 20 59.0800000  0  4  3 13 12  9
 -12969373.125 7  74612977.062 6  21600483.490 0  21600483.398 0
   1216979.457 7  56913658.885 6  21642247.423 0  21642248.780 0
   3596474.286 8 123249967.834 6  21660030.965 0  21660032.994 0
 -96158284.618 6 134410667.346 7  24637854.821 0  24637855.410 0
 88  2 24 10 21 29.0800000  0  4  3 13 12  9
 -12999618.386 7  74589409.340 6  21594727.742 0  21594728.060 0
   1254020.880 7  56942522.324 6  21649296.364 0  21649298.063 0
   3673909.290 7 123310306.801 6  21674766.995 0  21674767.980 0
 -96035406.696 6 134506416.356 7  24661237.186 0  24661238.886 0
 88  2 24 10 21 59.0800000  0  4  3 13 12  9
 -13029743.046 7  74565935.579 6  21588995.394 0  21588997.133 0
   1291123.139 8  56971433.174 7  21656356.970 0  21656358.830 0
   3751783.886 8 123370988.306 6  21689585.348 0  21689586.733 0
 -95912567.476 6 134602135.177 7  24684610.111 0  24684613.447 0
 88  2 24 10 22 29.0800000  0  4  3 13 12  9
 -13059747.736 8  74542555.298 6  21583286.130 0  21583286.668 0
   1328286.380 8  57000391.555 7  21663428.914 0  21663430.668 0
   3830094.487 7 123432009.523 6  21704488.045 0  21704488.798 0
 -95789769.644 6 134697821.763 7  24707980.533 0  24707981.890 0
 88  2 24 10 22 59.0800000  0  4  3 13 12  9
 -13089633.304 7  74519267.853 6  21577598.323 0  21577600.089 0
   1365509.952 7  57029396.930 6  21670512.678 0  21670514.239 0
   3908838.137 7 123493368.214 7  21719472.145 0  21719473.370 0
 -95667016.407 6 134793473.610 6  24731340.883 0  24731339.701 0
 88  2 24 10 23 29.0800000  0  4  3 13 12  9
 -13119400.003 7  74496073.018 7  21571934.568 0  21571934.850 0
   1402793.609 7  57058449.151 6  21677607.321 0  21677608.565 0
   3988011.720 7 123555061.897 7  21734538.287 0  21734539.839 0
 -95544310.863 6 134889088.302 6  24754690.520 0  24754689.647 0
 88  2 24 10 23 59.0800000  0  4  3 13 12  9
 -13149048.490 7  74472970.315 6  21566292.157 0  21566293.567 0
   1440137.420 7  57087548.229 6  21684714.126 0  21684714.567 0
   4067612.372 7 123617088.367 6  21749684.911 0  21749687.724 0
 -95421656.056 7 134984663.458 6  24778031.237 0  24778031.728 0
 88  2 24 10 24 29.0800000  0  4  3 13 12  9
 -13178579.129 7  74449959.436 6  21560672.998 0  21560674.023 0
   1477540.442 7  57116693.436 6  21691831.433 0  21691833.000 0
   4147636.382 7 123679444.724 6  21764913.949 0  21764915.323 0
 -95299054.994 7 135080196.754 6  24801359.632 0  24801361.058 0
 88  2 24 10 24 59.0800000  0  4  3 13 12  9
 -13207992.944 8  74427039.593 6  21555076.577 0  21555077.563 0
   1515001.824 8  57145884.127 7  21698959.987 0  21698960.596 0
   4228081.565 7 123742129.270 7  21780221.951 0  21780222.218 0
 -95176510.715 7 135175685.803 5  24824679.976 0  24824680.121 0
 88  2 24 10 25 29.0800000  0  4  3 13 12  9
 -13237289.982 7  74404210.739 6  21549501.777 0  21549501.985 0
   1552521.741 7  57175120.424 7  21706099.721 0  21706101.159 0
   4308944.393 7 123805139.267 6  21795610.119 0  21795611.616 0
 -95054026.366 7 135271128.189 5  24847987.197 0  24847989.294 0
 88  2 24 10 25 59.0800000  0  4  3 13 12  9
 -13266470.754 8  74381472.480 7  21543948.203 0  21543948.519 0
   1590099.811 7  57204402.041 6  21713250.825 0  21713251.610 0
   4390221.210 7 123868471.835 6  21811075.649 0  21811077.887 0
 -94931604.919 7 135366521.565 5  24871284.439 0  24871284.809 0
 88  2 24 10 26 29.0800000  0  4  3 13 12  9
 -13295536.041 7  74358824.210 6  21538416.761 0  21538419.181 0
   1627735.408 7  57233728.482 6  21720412.800 0  21720413.223 0
   4471908.924 7 123932124.592 6  21826621.292 0  21826622.420 0
 -94809249.343 8 135461863.607 5  24894566.917 0  24894567.208 0
 88  2 24 10 26 59.0800000  0  4  3 13 12  9
 -13324486.400 7  74336265.493 7  21532908.061 0  21532908.434 0
   1665428.100 7  57263099.425 6  21727584.801 0  21727586.780 0
   4554004.543 8 123996095.196 7  21842241.756 0  21842245.254 0
 -94686962.835 8 135557151.826 5  24917837.682 0  24917838.604 0
 88  2 24 10 27 29.0800000  0  4  3 13 12  9
 -13353321.902 7  74313796.278 7  21527420.862 0  21527421.040 0
   1703177.936 7  57292514.873 7  21734768.042 0  21734770.504 0
   4636505.180 8 124060381.412 7  21857943.038 0  21857943.965 0
 -94564748.290 8 135652383.980 5  24941095.324 0  24941094.032 0
 88  2 24 10 27 59.0800000  0  3  3 13 12
 -13382043.523 7  74291415.801 7  21521954.618 0  21521956.288 0
   1740983.987 7  57321974.142 6  21741963.053 0  21741964.872 0
   4719407.501 8 124124980.623 6  21873718.381 0  21873720.839 0
 88  2 24 10 28 29.0800000  0  3  3 13 12
 -13410651.347 7  74269123.989 6  21516511.970 0  21516513.427 0
   1778846.709 7  57351477.558 7  21749168.238 0  21749169.268 0
   4802708.998 7 124189890.874 6  21889569.550 0  21889571.601 0
 88  2 24 10 28 59.0800000  0  3  3 13 12
 -13439145.826 7  74246920.521 6  21511089.878 0  21511089.160 0
   1816765.148 7  57381024.403 7  21756384.281 0  21756385.029 0
   4886405.484 7 124255108.923 6  21905496.606 0  21905499.208 0
 88  2 24 10 29 29.0800000  0  3  3 13 12
 -13467527.722 7  74224804.774 6  21505688.906 0  21505687.441 0
   1854739.288 7  57410614.638 7  21763610.049 0  21763610.830 0
   4970493.791 7 124320632.261 6  21921498.074 0  21921500.633 0
 88  2 24 10 29 59.0800000  0  3  3 13 12
 -13495797.180 7  74202776.624 6  21500308.828 0  21500309.326 0
   1892768.953 8  57440248.144 7  21770846.631 0  21770848.770 0
   5054971.051 7 124386458.693 7  21937574.173 0  21937575.835 0
 88  2 24 10 30 29.0800000  0  3  3 13 12
 -13523954.990 7  74180835.483 7  21494950.108 0  21494951.143 0
   1930853.283 8  57469924.241 6  21778094.073 0  21778095.838 0
   5139833.613 7 124452585.360 7  21953722.906 0  21953725.229 0
 88  2 24 10 30 59.0800000  0  3  3 13 12
 -13552002.120 7  74158980.575 7  21489612.962 0  21489613.463 0
   1968991.634 7  57499642.443 6  21785351.546 0  21785352.990 0
   5225078.531 7 124519009.959 7  21969943.982 0  21969945.163 0
 88  2 24 10 31 29.0800000  0  3  3 13 12
 -13579938.529 7  74137211.963 6  21484297.214 0  21484299.045 0
   2007184.231 7  57529402.895 7  21792619.388 0  21792620.733 0
   5310702.313 7 124585729.788 7  21986237.085 0  21986240.032 0
 88  2 24 10 31 59.0800000  0  3  3 13 12
 -13607764.188 7  74115529.625 6  21479002.245 0  21479004.362 0
   2045430.929 8  57559205.526 6  21799897.126 0  21799898.100 0
   5396702.322 7 124652742.766 7  22002603.127 0  22002604.911 0
 88  2 24 10 32 29.0800000  0  3  3 13 12
 -13635479.926 7  74093932.956 7  21473727.995 0  21473728.158 0
   2083731.526 7  57589050.140 6  21807185.686 0  21807187.362 0
   5483074.374 8 124720045.639 6  22019039.032 0  22019041.621 0
 88  2 24 10 32 59.0800000  0  3  3 13 12
 -13663086.371 7  74072421.439 6  21468474.505 0  21468476.554 0
   2122085.195 7  57618936.107 7  21814484.144 0  21814484.772 0
   5569815.427 7 124787636.066 7  22035545.849 0  22035548.303 0
 88  2 24 10 33 29.0800000  0  3  3 13 12
 -13690583.578 7  74050995.052 6  21463241.865 0  21463242.848 0
   2160492.298 7  57648863.733 7  21821792.934 0  21821793.568 0
   5656922.183 7 124855511.460 7  22052121.196 0  22052123.736 0
 88  2 24 10 33 59.0800000  0  3  3 13 12
 -13717971.831 7  74029653.554 7  21458029.556 0  21458031.200 0
   2198952.791 7  57678832.943 7  21829111.458 0  21829112.550 0
   5744391.749 7 124923669.543 6  22068765.576 0  22068768.675 0
 88  2 24 10 34 29.0800000  0  3  3 13 12
 -13745251.941 7  74008396.326 6  21452838.153 0  21452840.139 0
   2237465.864 7  57708843.120 7  21836440.565 0  21836441.363 0
   5832220.673 8 124992107.663 7  22085479.332 0  22085482.145 0
 88  2 24 10 34 59.0800000  0  3  3 13 12
 -13772424.399 7  73987222.984 7  21447668.064 0  21447669.313 0
   2276031.460 7  57738894.235 7  21843778.864 0  21843780.640 0
   5920405.486 7 125060823.074 7  22102259.592 0  22102262.772 0
 88  2 24 10 35 29.0800000  0  3  3 13 12
 -13799489.377 6  73966133.396 6  21442518.398 0  21442520.182 0
   2314649.792 7  57768986.427 7  21851128.464 0  21851128.452 0
   6008942.652 8 125129813.075 7  22119108.265 0  22119110.318 0
 88  2 24 10 35 59.0800000  0  3  3 13 12
 -13826447.104 7  73945127.360 6  21437387.483 0  21437388.963 0
   2353320.407 8  57799119.371 7  21858487.082 0  21858488.127 0
   6097829.215 8 125199075.324 7  22136023.098 0  22136025.443 0
 88  2 24 10 36 29.0800000  0  3  3 13 12
 -13853298.361 7  73924204.312 7  21432278.309 0  21432278.586 0
   2392042.697 8  57829292.577 7  21865855.945 0  21865856.846 0
   6187061.362 7 125268606.878 7  22153003.776 0  22153005.320 0
 88  2 24 10 36 59.0800000  0  3  3 13 12
 -13880043.145 8  73903364.224 6  21427189.343 0  21427189.412 0
   2430816.643 7  57859506.048 7  21873234.027 0  21873234.774 0
   6276635.969 8 125338405.271 7  22170048.791 0  22170051.153 0
 88  2 24 10 37 29.0800000  0  3  3 13 12
 -13906681.898 7  73882606.744 6  21422120.906 0  21422120.116 0
   2469642.725 8  57889760.136 7  21880621.715 0  21880624.403 0
   6366549.903 8 125408468.077 7  22187159.230 0  22187161.590 0
 88  2 24 10 37 59.0800000  0  3  3 13 12
 -13933215.164 7  73861931.484 6  21417071.089 0  21417070.949 0
   2508520.224 8  57920054.281 7  21888019.991 0  21888021.727 0
   6456799.438 8 125478792.388 7  22204333.331 0  22204334.729 0
 88  2 24 10 38 29.0800000  0  3  3 13 12
 -13959643.246 7  73841338.193 7  21412041.571 0  21412042.046 0
   2547449.043 8  57950388.425 7  21895428.179 0  21895428.989 0
   6547381.174 7 125549375.557 7  22221570.660 0  22221571.808 0
 88  2 24 10 38 59.0800000  0  3  3 13 12
 -13985966.133 7  73820826.846 6  21407032.374 0  21407033.227 0
   2586428.956 7  57980762.383 7  21902846.003 0  21902847.260 0
   6638292.028 7 125620215.176 7  22238870.311 0  22238871.365 0
 88  2 24 10 39 29.0800000  0  3  3 13 12
 -14012184.515 7  73800396.944 6  21402042.794 0  21402044.282 0
   2625460.250 7  58011176.367 7  21910273.531 0  21910274.945 0
   6729528.294 7 125691308.378 7  22256231.096 0  22256234.165 0
 88  2 24 10 39 59.0800000  0  3  3 13 12
 -14038298.714 7  73780048.228 6  21397073.702 0  21397075.730 0
   2664542.165 7  58041629.812 7  21917711.250 0  21917711.680 0
   6821086.381 7 125762652.335 7  22273654.459 0  22273657.277 0
 88  2 24 10 40 29.0800000  0  3  3 13 12
 -14064309.044 8  73759780.456 7  21392124.018 0  21392125.784 0
   2703674.819 7  58072122.780 7  21925157.121 0  21925158.651 0
   6912963.010 8 125834244.522 6  22291137.724 0  22291139.806 0
 88  2 24 10 40 59.0800000  0  3  3 13 12
 -14090215.799 7  73739593.378 6  21387194.054 0  21387195.425 0
   2742858.333 7  58102655.400 7  21932613.329 0  21932614.729 0
   7005155.073 7 125906082.506 6  22308681.789 0  22308683.104 0
 88  2 24 10 41 29.0800000  0  3  3 13 12
 -14116018.881 7  73719487.080 6  21382284.159 0  21382284.927 0
   2782092.943 7  58133227.814 7  21940079.583 0  21940081.425 0
   7097659.282 7 125978163.704 7  22326284.260 0  22326285.662 0
 88  2 24 10 41 59.0800000  0  3  3 13 12
 -14141719.033 7  73699460.988 6  21377394.679 0  21377394.074 0
   2821378.456 8  58163839.892 7  21947555.559 0  21947556.000 0
   7190472.053 7 126050485.340 7  22343946.030 0  22343948.261 0
 88  2 24 10 42 29.0800000  0  3  3 13 12
 -14167316.645 7  73679514.816 7  21372523.088 0  21372522.633 0
   2860713.950 8  58194490.935 7  21955040.408 0  21955041.943 0
   7283590.054 7 126123044.830 6  22361665.859 0  22361667.752 0
 88  2 24 10 42 59.0800000  0  3  3 13 12
 -14192811.790 7  73659648.455 6  21367670.515 0  21367671.154 0
   2900099.927 7  58225181.294 6  21962535.366 0  21962537.651 0
   7377009.544 8 126195839.223 6  22379442.832 0  22379445.730 0
 88  2 24 10 43 29.0800000  0  3  3 13 12
 -14218204.651 8  73639861.807 6  21362838.889 0  21362839.729 0
   2939536.811 7  58255911.323 8  21970039.394 0  21970041.035 0
   7470726.881 7 126268865.725 6  22397276.920 0  22397279.046 0
 88  2 24 10 43 59.0800000  0  3  3 13 12
 -14243495.968 7  73620154.287 6  21358026.205 0  21358026.031 0
   2979023.909 7  58286680.489 7  21977554.173 0  21977555.650 0
   7564738.761 7 126342121.718 7  22415166.277 0  22415169.227 0
 88  2 24 10 44 29.0800000  0  3  3 13 12
 -14268685.576 7  73600526.015 7  21353232.133 0  21353233.412 0
   3018561.232 7  58317488.787 7  21985077.746 0  21985079.943 0
   7659042.112 7 126415604.839 7  22433111.683 0  22433113.554 0
 88  2 24 10 44 59.0800000  0  3  3 13 12
 -14293773.470 7  73580977.003 6  21348458.535 0  21348458.271 0
   3058148.838 7  58348336.274 7  21992611.161 0  21992613.077 0
   7753633.298 8 126489312.247 7  22451112.163 0  22451113.984 0
 88  2 24 10 45 29.0800000  0  3  3 13 12
 -14318760.341 7  73561506.719 7  21343704.165 0  21343705.465 0
   3097786.976 7  58379223.129 6  22000154.598 0  22000156.098 0
   7848508.352 7 126563240.861 7  22469166.175 0  22469168.788 0
 88  2 24 10 45 59.0800000  0  3  3 13 12
 -14343646.479 7  73542114.931 7  21338967.565 0  21338967.675 0
   3137475.097 7  58410148.922 7  22007706.353 0  22007708.461 0
   7943664.275 7 126637388.327 7  22487274.143 0  22487276.212 0
 88  2 24 10 46 29.0800000  0  3  3 13 12
 -14368432.046 7  73522801.493 7  21334252.290 0  21334251.153 0
   3177213.597 7  58441113.977 7  22015268.256 0  22015269.701 0
   8039097.584 8 126711751.955 7  22505434.348 0  22505436.235 0
 88  2 24 10 46 59.0800000  0  3  3 13 12
 -14393117.006 7  73503566.455 6  21329554.177 0  21329553.944 0
   3217002.754 7  58472118.506 7  22022839.703 0  22022842.175 0
   8134805.076 8 126786329.207 6  22523646.329 0  22523649.157 0
 88  2 24 10 47 29.0800000  0  3  3 13 12
 -14417701.745 7  73484409.512 6  21324876.225 0  21324875.599 0
   3256841.838 7  58503161.957 7  22030421.225 0  22030423.468 0
   8230782.895 7 126861117.123 7  22541911.444 0  22541913.523 0
 88  2 24 10 47 59.0800000  0  3  3 13 12
 -14442186.135 7  73465330.770 6  21320217.350 0  21320217.303 0
   3296731.039 7  58534244.437 7  22038011.857 0  22038013.527 0
   8327027.580 7 126936112.982 7  22560225.302 0  22560227.609 0
 88  2 24 10 48 29.0800000  0  3  3 13 12
 -14466570.504 7  73446329.973 6  21315576.962 0  21315576.390 0
   3336671.213 7  58565366.653 6  22045613.201 0  22045614.564 0
   8423535.905 7 127011314.248 6  22578589.910 0  22578593.248 0
 88  2 24 10 48 59.0800000  0  3  3 13 12
 -14490854.867 7  73427407.069 6  21310954.574 0  21310957.399 0
   3376662.081 7  58596528.368 6  22053222.771 0  22053224.263 0
   8520304.112 7 127086718.046 7  22597005.172 0  22597005.931 0
 88  2 24 10 49 29.0800000  0  3  3 13 12
 -14515039.764 7  73408561.702 6  21306352.432 0  21306354.263 0
   3416703.591 7  58627729.537 7  22060841.738 0  22060843.481 0
   8617328.799 7 127162321.687 7  22615467.353 0  22615469.970 0
 88  2 24 10 49 59.0800000  0  3  3 13 12
 -14539125.537 7  73389793.559 7  21301769.232 0  21301771.049 0
   3456795.892 7  58658970.282 7  22068470.745 0  22068472.958 0
   8714606.279 7 127238122.307 7  22633978.625 0  22633981.552 0
 88  2 24 10 50 29.0800000  0  3  3 13 12
 -14563111.832 7  73371102.938 6  21297206.143 0  21297206.151 0
   3496938.687 7  58690250.379 6  22076110.501 0  22076111.389 0
   8812133.317 8 127314117.398 6  22652537.805 0  22652540.581 0
 88  2 24 10 50 59.0800000  0  3  3 13 12
 -14586999.163 7  73352489.435 6  21292659.052 0  21292659.246 0
   3537132.236 7  58721570.023 6  22083759.046 0  22083760.997 0
   8909906.327 8 127390304.151 7  22671144.070 0  22671146.167 0
 88  2 24 10 51 29.0800000  0  3  3 13 12
 -14610787.738 7  73333952.870 6  21288132.114 0  21288132.697 0
   3577376.765 7  58752929.393 6  22091416.820 0  22091418.915 0
   9007921.865 7 127466679.896 7  22689795.863 0  22689797.083 0
 88  2 24 10 51 59.0800000  0  3  3 13 12
 -14634477.642 7  73315493.217 6  21283624.986 0  21283625.481 0
   3617671.995 7  58784328.271 7  22099085.110 0  22099086.826 0
   9106176.200 8 127543241.716 7  22708492.763 0  22708494.351 0
 88  2 24 10 52 29.0800000  0  3  3 13 12
 -14658068.551 7  73297110.679 6  21279136.072 0  21279135.755 0
   3658018.358 7  58815767.013 6  22106763.045 0  22106764.462 0
   9204666.436 8 127619987.355 6  22727235.009 0  22727237.473 0
 88  2 24 10 52 59.0800000  0  3  3 13 12
 -14681561.058 7  73278804.826 6  21274664.362 0  21274665.225 0
   3698416.005 7  58847245.684 7  22114450.342 0  22114450.768 0
   9303388.299 8 127696913.492 6  22746020.694 0  22746021.540 0
 88  2 24 10 53 29.0800000  0  3  3 13 12
 -14704955.290 8  73260575.564 7  21270213.676 0  21270213.893 0
   3738864.880 7  58878764.277 7  22122147.035 0  22122149.976 0
   9402338.729 7 127774017.702 7  22764850.408 0  22764853.038 0
 88  2 24 10 53 59.0800000  0  3  3 13 12
 -14728251.065 7  73242423.001 7  21265780.510 0  21265781.240 0
   3779365.485 7  58910323.187 7  22129855.508 0  22129856.489 0
   9501513.815 7 127851296.985 6  22783723.340 0  22783724.802 0
 88  2 24 10 54 29.0800000  0  3  3 13 12
 -14751448.283 7  73224347.258 7  21261365.810 0  21261367.193 0
   3819917.710 7  58941922.331 7  22137570.392 0  22137572.426 0
   9600910.795 7 127928749.171 7  22802637.486 0  22802639.245 0
 88  2 24 10 54 59.0800000  0  3  3 13 12
 -14774547.022 7  73206348.254 6  21256970.204 0  21256971.103 0
   3860521.653 7  58973561.768 6  22145297.735 0  22145299.116 0
   9700525.807 7 128006371.263 7  22821593.521 0  22821595.471 0
 88  2 24 10 55 29.0800000  0  3  3 13 12
 -14797547.599 7  73188425.733 6  21252594.087 0  21252594.628 0
   3901177.534 8  59005241.678 7  22153034.478 0  22153035.209 0
   9800354.981 7 128084160.212 7  22840589.970 0  22840593.031 0
 88  2 24 10 55 59.0800000  0  3  3 13 12
 -14820450.211 7  73170579.540 7  21248235.076 0  21248236.154 0
   3941885.618 7  59036962.257 7  22160781.081 0  22160782.454 0
   9900394.749 7 128162113.272 7  22859628.327 0  22859629.225 0
 88  2 24 10 56 29.0800000  0  3  3 13 12
 -14843254.844 7  73152809.709 7  21243895.069 0  21243896.856 0
   3982646.244 7  59068723.796 7  22168537.195 0  22168538.485 0
  10000641.982 7 128240227.990 7  22878702.712 0  22878705.400 0
 88  2 24 10 56 59.0800000  0  3  3 13 12
 -14865961.689 7  73135116.061 6  21239574.697 0  21239574.989 0
   4023459.076 7  59100525.979 7  22176303.634 0  22176304.869 0
  10101093.096 7 128318501.565 7  22897818.877 0  22897822.540 0
 88  2 24 10 57 29.0800000  0  3  3 13 12
 -14888570.673 7  73117498.693 6  21235272.465 0  21235274.590 0
   4064324.239 7  59132368.961 7  22184080.501 0  22184081.829 0
  10201744.551 7 128396931.256 6  22916972.361 0  22916973.676 0
 88  2 24 10 57 59.0800000  0  3  3 13 12
 -14911081.489 7  73099957.799 7  21230988.330 0  21230989.646 0
   4105242.797 7  59164253.566 7  22191867.447 0  22191867.525 0
  10302592.850 7 128475514.330 7  22936162.460 0  22936164.697 0
 88  2 24 10 58 29.0800000  0  3  3 13 12
 -14933494.497 7  73082493.141 6  21226723.037 0  21226724.300 0
   4146214.686 6  59196179.718 6  22199664.327 0  22199664.979 0
  10403634.715 7 128554248.237 7  22955390.799 0  22955393.435 0
 88  2 24 10 58 59.0800000  0  3  3 13 12
 -14955809.592 7  73065104.753 7  21222476.456 0  21222478.056 0
   4187239.787 7  59228147.324 6  22207470.103 0  22207470.992 0
  10504866.200 7 128633129.905 7  22974653.923 0  22974656.346 0
 88  2 24 10 59 29.0800000  0  3  3 13 12
 -14978026.602 7  73047792.787 6  21218248.714 0  21218251.583 0
   4228318.367 7  59260156.605 7  22215286.676 0  22215288.235 0
  10606283.762 7 128712156.568 7  22993953.803 0  22993954.552 0
 88  2 24 10 59 59.0800000  0  3  3 13 12
 -15000145.737 7  73030557.121 6  21214039.232 0  21214041.602 0
   4269450.579 7  59292207.668 7  22223113.772 0  22223116.119 0
  10707884.340 7 128791325.838 7  23013287.626 0  23013289.436 0
 88  2 24 11  0 29.0800000  0  3  3 13 12
 -15022167.328 6  73013397.443 6  21209849.450 0  21209850.840 0
   4310636.795 7  59324300.809 7  22230951.689 0  22230953.071 0
  10809664.037 8 128870634.667 7  23032656.214 0  23032658.121 0
 88  2 24 11  0 59.0800000  0  3  3 13 12
 -15044091.165 7  72996313.962 6  21205677.272 0  21205679.297 0
   4351877.628 7  59356436.529 7  22238799.451 0  22238801.936 0
  10911619.296 8 128950080.328 7  23052057.189 0  23052058.990 0
 88  2 24 11  1 29.0800000  0  3  3 13 12
 -15065916.834 7  72979306.937 6  21201524.390 0  21201525.053 0
   4393172.827 8  59388614.604 7  22246657.885 0  22246658.417 0
  11013746.903 7 129029660.296 7  23071491.132 0  23071494.201 0
 88  2 24 11  1 59.0800000  0  3  3 13 12
 -15087644.115 7  72962376.616 7  21197391.424 0  21197389.925 0
   4434522.827 7  59420835.368 7  22254526.647 0  22254527.611 0
  11116043.146 8 129109371.634 6  23090958.206 0  23090959.015 0
 88  2 24 11  2 29.0800000  0  3  3 13 12
 -15109273.124 8  72945522.842 7  21193274.034 0  21193273.731 0
   4475927.797 7  59453098.970 7  22262405.859 0  22262407.699 0
  11218504.587 7 129189211.731 6  23110455.300 0  23110458.322 0
 88  2 24 11  2 59.0800000  0  3  3 13 12
 -15130804.179 7  72928745.400 6  21189177.708 0  21189177.018 0
   4517388.246 7  59485405.816 7  22270295.499 0  22270295.963 0
  11321127.354 8 129269177.539 6  23129983.960 0  23129985.286 0
 88  2 24 11  3 29.0800000  0  3  3 13 12
 -15152236.675 7  72912044.786 7  21185098.080 0  21185098.190 0
   4558904.456 8  59517756.104 7  22278195.051 0  22278196.821 0
  11423908.293 7 129349266.565 6  23149542.680 0  23149544.376 0
 88  2 24 11  3 59.0800000  0  3  3 13 12
 -15173570.737 7  72895420.835 6  21181039.500 0  21181039.478 0
   4600476.857 7  59550150.177 7  22286106.290 0  22286107.795 0
  11526844.185 7 129429476.362 6  23169130.523 0  23169131.904 0
 88  2 24 11  4 29.0800000  0  3  3 13 12
 -15194806.607 7  72878873.424 6  21176997.330 0  21176998.693 0
   4642105.491 7  59582588.061 7  22294028.345 0  22294030.562 0
  11629930.787 7 129509803.584 7  23188747.437 0  23188749.778 0
 88  2 24 11  4 59.0800000  0  3  3 13 12
 -15215943.933 7  72862402.788 6  21172975.570 0  21172976.396 0
   4683790.176 7  59615069.642 7  22301961.538 0  22301962.145 0
  11733165.115 7 129590245.909 6  23208392.913 0  23208394.190 0
 88  2 24 11  5 29.0800000  0  3  3 13 12
 -15236982.342 7  72846009.223 6  21168972.459 0  21168972.643 0
   4725531.951 7  59647595.694 7  22309903.849 0  22309905.969 0
  11836543.880 8 129670800.792 6  23228064.488 0  23228066.295 0
 88  2 24 11  5 59.0800000  0  3  3 13 12
 -15257921.561 7  72829692.951 7  21164988.751 0  21164987.709 0
   4767331.587 7  59680166.842 7  22317857.958 0  22317859.108 0
  11940063.290 8 129751465.265 6  23247763.349 0  23247765.340 0
 88  2 24 11  6 29.0800000  0  3  3 13 12
 -15278762.234 7  72813453.451 6  21161021.420 0  21161021.360 0
   4809188.339 7  59712782.484 7  22325822.533 0  22325824.538 0
  12043719.462 7 129832236.297 6  23267489.047 0  23267490.620 0
 88  2 24 11  6 59.0800000  0  3  3 13 12
 -15299503.929 7  72797291.102 7  21157074.132 0  21157074.713 0
   4851103.158 7  59745443.375 7  22333798.570 0  22333801.169 0
  12147509.295 6 129913111.471 7  23287239.560 0  23287241.864 0
 88  2 24 11  7 29.0800000  0  3  3 13 12
 -15320146.124 7  72781206.266 6  21153146.681 0  21153147.862 0
   4893076.108 7  59778149.564 6  22341786.043 0  22341788.313 0
  12251429.664 6 129994088.368 7  23307015.183 0  23307016.517 0
 88  2 24 11  7 59.0800000  0  3  3 13 12
 -15340689.173 7  72765198.709 7  21149236.591 0  21149237.544 0
   4935107.555 7  59810901.349 6  22349784.591 0  22349786.304 0
  12355476.519 7 130075163.836 7  23326815.070 0  23326816.309 0
 88  2 24 11  8 29.0800000  0  3  3 13 12
 -15361132.933 6  72749268.500 6  21145346.129 0  21145347.991 0
   4977197.832 7  59843698.964 7  22357793.932 0  22357795.064 0
  12459646.871 7 130156335.517 7  23346636.231 0  23346639.234 0
 88  2 24 11  8 59.0800000  0  3  3 13 12
 -15381476.672 7  72733416.236 7  21141475.435 0  21141477.400 0
   5019347.773 8  59876543.063 7  22365814.975 0  22365817.316 0
  12563937.120 7 130237600.646 7  23366482.828 0  23366484.805 0
 88  2 24 11  9 29.0800000  0  3  3 13 12
 -15401720.334 7  72717641.962 6  21137622.467 0  21137623.971 0
   5061557.846 7  59909434.040 7  22373846.792 0  22373848.665 0
  12668343.725 8 130318956.436 7  23386350.401 0  23386354.710 0
 88  2 24 11  9 59.0800000  0  3  3 13 12
 -15421863.906 7  72701945.670 6  21133790.181 0  21133790.989 0
   5103827.807 7  59942371.676 7  22381890.702 0  22381891.611 0
  12772862.446 7 130400399.585 7  23406239.657 0  23406242.570 0
 88  2 24 11 10 29.0800000  0  3  3 13 12
 -15441907.165 7  72686327.559 6  21129975.203 0  21129975.998 0
   5146158.150 7  59975356.333 6  22389945.348 0  22389947.403 0
  12877490.402 7 130481927.859 7  23426150.284 0  23426151.797 0
 88  2 24 11 10 59.0800000  0  3  3 13 12
 -15461849.587 7  72670788.035 6  21126180.068 0  21126182.030 0
   5188549.469 7  60008388.520 7  22398013.525 0  22398014.070 0
  12982224.199 8 130563538.611 7  23446080.408 0  23446082.242 0
 88  2 24 11 11 29.0800000  0  3  3 13 12
 -15481691.387 8  72655326.896 7  21122405.035 0  21122407.604 0
   5231002.242 7  60041468.604 7  22406092.202 0  22406092.837 0
  13087060.203 8 130645229.008 6  23466030.316 0  23466032.232 0
 88  2 24 11 11 59.0800000  0  3  3 13 12
 -15501432.261 7  72639944.409 7  21118648.823 0  21118650.036 0
   5273516.801 7  60074596.831 7  22414181.622 0  22414184.125 0
  13191994.949 8 130726996.346 7  23485998.741 0  23486000.471 0
 88  2 24 11 12 29.0800000  0  3  3 13 12
 -15521071.882 7  72624640.812 7  21114911.623 0  21114912.887 0
   5316093.145 7  60107773.208 7  22422283.454 0  22422285.794 0
  13297025.195 7 130808838.111 6  23505985.940 0  23505988.141 0
 88  2 24 11 12 59.0800000  0  3  3 13 12
 -15540609.782 7  72609416.482 6  21111193.875 0  21111194.607 0
   5358732.155 7  60140998.412 7  22430398.627 0  22430398.510 0
  13402147.576 7 130890751.654 6  23525988.250 0  23525990.667 0
 88  2 24 11 13 29.0800000  0  3  3 13 12
 -15560045.589 7  72594271.700 6  21107495.675 0  21107495.465 0
   5401434.163 7  60174272.708 6  22438523.411 0  22438524.617 0
  13507358.161 7 130972733.956 7  23546009.399 0  23546012.422 0
 88  2 24 11 13 59.0800000  0  3  3 13 12
 -15579379.716 7  72579206.157 6  21103815.635 0  21103817.716 0
   5444199.233 7  60207596.127 6  22446661.505 0  22446662.507 0
  13612653.406 7 131054782.201 7  23566046.894 0  23566049.544 0
 88  2 24 11 14 29.0800000  0  3  3 13 12
 -15598611.312 7  72564220.518 6  21100156.752 0  21100156.112 0
   5487028.709 7  60240969.745 7  22454811.967 0  22454813.879 0
  13718030.399 7 131136894.140 6  23586098.993 0  23586101.979 0
 88  2 24 11 14 59.0800000  0  3  3 13 12
 -15617740.333 7  72549314.783 7  21096516.782 0  21096516.725 0
   5529922.358 7  60274393.361 7  22462974.211 0  22462976.592 0
  13823485.308 6 131219066.792 6  23606167.085 0  23606169.247 0
 88  2 24 11 15 29.0800000  0  3  3 13 12
 -15636766.373 7  72534489.291 7  21092896.499 0  21092896.013 0
   5572880.650 7  60307867.360 7  22471149.108 0  22471150.218 0
  13929014.866 6 131301297.583 6  23626247.640 0  23626250.987 0
 88  2 24 11 15 59.0800000  0  3  3 13 12
 -15655689.111 7  72519744.308 7  21089294.684 0  21089294.573 0
   5615903.979 8  60341392.012 7  22479335.806 0  22479338.060 0
  14034615.704 7 131383583.923 6  23646343.296 0  23646345.976 0
 88  2 24 11 16 29.0800000  0  3  3 13 12
 -15674508.134 7  72505080.141 7  21085713.487 0  21085713.387 0
   5658993.393 7  60374968.168 6  22487536.341 0  22487537.481 0
  14140284.535 7 131465923.261 6  23666452.324 0  23666453.701 0
 88  2 24 11 16 59.0800000  0  3  3 13 12
 -15693222.801 7  72490497.283 7  21082151.786 0  21082152.540 0
   5702149.105 7  60408595.993 7  22495746.865 0  22495749.685 0
  14246018.100 8 131548313.070 6  23686572.126 0  23686573.923 0
 88  2 24 11 17 29.0800000  0  3  3 13 12
 -15711833.422 7  72475995.493 6  21078610.866 0  21078612.192 0
   5745371.224 7  60442275.574 6  22503972.335 0  22503973.156 0
  14351812.179 7 131630750.001 7  23706704.014 0  23706705.859 0
 88  2 24 11 17 59.0800000  0  3  3 13 12
 -15730339.354 7  72461575.281 7  21075089.092 0  21075089.724 0
   5788660.637 7  60476007.559 7  22512210.396 0  22512211.826 0
  14457663.754 7 131713231.744 7  23726846.960 0  23726849.825 0
 88  2 24 11 18 29.0800000  0  3  3 13 12
 -15748739.773 7  72447237.295 7  21071586.917 0  21071587.508 0
   5832017.962 7  60509792.488 7  22520461.020 0  22520463.044 0
  14563569.642 7 131795755.811 6  23747000.092 0  23747001.670 0
 88  2 24 11 18 59.0800000  0  3  3 13 12
 -15767034.687 7  72432981.513 6  21068105.579 0  21068106.200 0
   5875443.345 7  60543630.428 6  22528724.769 0  22528725.977 0
  14669526.283 7 131878319.404 7  23767163.367 0  23767165.592 0
 88  2 24 11 19 29.0800000  0  3  3 13 12
 -15785223.983 7  72418808.036 7  21064643.697 0  21064645.963 0
   5918937.452 7  60577521.950 7  22537001.495 0  22537002.899 0
  14775530.203 8 131960919.840 7  23787334.944 0  23787337.679 0
 88  2 24 11 19 59.0800000  0  3  3 13 12
 -15803307.258 6  72404717.180 6  21061203.738 0  21061203.801 0
   5962500.721 7  60611467.336 6  22545291.276 0  22545292.373 0
  14881577.998 7 132043554.499 6  23807515.794 0  23807518.230 0
 88  2 24 11 20 29.0800000  0  3  3 13 12
 -15821283.768 7  72390709.516 7  21057781.948 0  21057783.553 0
   6006133.165 7  60645466.637 7  22553593.840 0  22553596.144 0
  14987666.608 8 132126220.952 6  23827703.631 0  23827705.523 0
 88  2 24 11 20 59.0800000  0  3  3 13 12
 -15839153.317 7  72376785.185 6  21054382.266 0  21054382.851 0
   6049835.884 7  60679520.699 7  22561910.423 0  22561911.537 0
  15093792.303 8 132208916.316 6  23847898.879 0  23847900.162 0
 88  2 24 11 21 29.0800000  0  3  3 13 12
 -15856915.682 7  72362944.388 7  21051001.094 0  21051003.265 0
   6093608.883 7  60713629.523 7  22570240.143 0  22570241.334 0
  15199951.470 8 132291637.729 7  23868100.354 0  23868101.764 0
 88  2 24 11 21 59.0800000  0  3  3 13 12
 -15874570.101 7  72349187.706 6  21047642.850 0  21047642.825 0
   6137453.379 7  60747794.067 7  22578582.832 0  22578584.515 0
  15306141.372 8 132374383.098 7  23888307.233 0  23888308.462 0
 88  2 24 11 22 29.0800000  0  3  3 13 12
 -15892116.090 7  72335515.514 7  21044303.260 0  21044305.681 0
   6181369.715 7  60782014.569 7  22586940.430 0  22586942.304 0
  15412358.577 7 132457149.764 6  23908519.654 0  23908521.389 0
 88  2 24 11 22 59.0800000  0  3  3 13 12
 -15909553.240 7  72321928.113 7  21040985.353 0  21040986.684 0
   6225358.507 7  60816291.540 7  22595310.964 0  22595313.208 0
  15518599.500 7 132539934.886 6  23928736.630 0  23928738.466 0
 88  2 24 11 23 29.0800000  0  3  3 13 12
 -15926881.228 7  72308425.807 6  21037687.931 0  21037689.519 0
   6269420.317 6  60850625.415 7  22603696.684 0  22603697.946 0
  15624860.515 6 132622735.670 7  23948957.285 0  23948958.471 0
 88  2 24 11 23 59.0800000  0  3  3 13 12
 -15944099.156 7  72295009.249 6  21034411.827 0  21034412.665 0
   6313555.563 7  60885016.499 7  22612093.866 0  22612096.831 0
  15731138.672 7 132705549.805 6  23969181.247 0  23969183.882 0
 88  2 24 11 24 29.0800000  0  3  3 13 12
 -15961206.677 7  72281678.713 7  21031156.520 0  21031158.084 0
   6357764.782 7  60919465.247 7  22620508.385 0  22620509.065 0
  15837430.676 7 132788374.738 6  23989408.034 0  23989409.287 0
 88  2 24 11 24 59.0800000  0  3  3 13 12
 -15978203.296 7  72268434.612 6  21027921.245 0  21027922.494 0
   6402048.090 7  60953971.701 7  22628934.816 0  22628936.372 0
  15943733.275 7 132871207.912 6  24009636.763 0  24009639.602 0
 88  2 24 11 25 29.0800000  0  3  3 13 12
 -15995088.853 7  72255277.030 7  21024709.868 0  21024710.243 0
   6446406.322 7  60988536.555 7  22637374.831 0  22637376.376 0
  16050042.651 6 132954046.395 6  24029867.308 0  24029869.566 0
 88  2 24 11 25 59.0800000  0  3  3 13 12
 -16011862.765 7  72242206.456 6  21021516.919 0  21021519.110 0
   6490840.559 7  61023160.631 7  22645830.791 0  22645831.995 0
  16156355.552 6 133036887.596 6  24050096.977 0  24050100.200 0
 88  2 24 11 26 29.0800000  0  3  3 13 12
 -16028524.185 7  72229223.535 7  21018345.936 0  21018347.048 0
   6535350.856 8  61057843.961 7  22654301.292 0  22654302.786 0
  16262668.967 7 133119729.228 6  24070328.314 0  24070330.420 0
 88  2 24 11 26 59.0800000  0  3  3 13 12
 -16045073.123 7  72216328.259 6  21015197.607 0  21015196.409 0
   6579937.810 7  61092587.042 7  22662785.520 0  22662787.985 0
  16368979.362 7 133202568.518 6  24090558.502 0  24090560.147 0
 88  2 24 11 27 29.0800000  0  3  3 13 12
 -16061508.603 7  72203521.395 6  21012069.076 0  21012069.115 0
   6624602.107 7  61127390.382 7  22671284.382 0  22671286.304 0
  16475283.770 8 133285403.130 6  24110786.853 0  24110788.222 0
 88  2 24 11 27 59.0800000  0  3  3 13 12
 -16077830.418 6  72190803.109 7  21008963.097 0  21008963.713 0
   6669344.637 7  61162254.689 7  22679798.743 0  22679799.844 0
  16581579.230 7 133368230.763 6  24131015.319 0  24131015.325 0
 88  2 24 11 28 29.0800000  0  3  3 13 12
 -16094037.909 7  72178173.891 7  21005878.695 0  21005881.362 0
   6714165.767 7  61197180.239 6  22688328.309 0  22688330.443 0
  16687861.898 8 133451048.418 6  24151239.345 0  24151241.120 0
 88  2 24 11 28 59.0800000  0  3  3 13 12
 -16110130.620 7  72165634.134 6  21002816.667 0  21002818.227 0
   6759065.996 7  61232167.418 7  22696872.814 0  22696873.187 0
  16794128.327 8 133533853.438 7  24171461.168 0  24171464.052 0
 88  2 24 11 29 29.0800000  0  3  3 13 12
 -16126107.486 6  72153184.640 6  20999775.571 0  20999778.578 0
   6804046.080 7  61267216.827 7  22705432.290 0  22705432.748 0
  16900375.531 8 133616643.490 7  24191680.562 0  24191681.720 0
 88  2 24 11 29 59.0800000  0  3  3 13 12
 -16141967.803 7  72140825.945 7  20996758.730 0  20996759.539 0
   6849106.557 7  61302328.878 7  22714006.920 0  22714008.175 0
  17006599.909 7 133699415.737 7  24211894.965 0  24211896.163 0
 88  2 24 11 30 29.0800000  0  3  3 13 12
 -16157711.547 7  72128558.101 6  20993762.415 0  20993764.073 0
   6894247.768 6  61337503.826 7  22722596.884 0  22722598.606 0
  17112798.110 7 133782167.579 6  24232102.170 0  24232104.920 0
 88  2 24 11 30 59.0800000  0  3  3 13 12
 -16173338.099 7  72116381.576 6  20990789.041 0  20990788.865 0
   6939470.432 6  61372742.264 7  22731202.777 0  22731204.734 0
  17218967.134 7 133864896.672 7  24252305.638 0  24252308.288 0
 88  2 24 11 31 29.0800000  0  3  3 13 12
 -16188846.147 7  72104297.365 7  20987838.022 0  20987838.486 0
   6984775.425 7  61408044.852 7  22739823.109 0  22739825.507 0
  17325104.050 7 133947600.775 7  24272502.285 0  24272505.312 0
 88  2 24 11 31 59.0800000  0  3  3 13 12
 -16204235.530 7  72092305.643 6  20984909.907 0  20984910.678 0
   7030163.254 7  61443411.970 7  22748459.966 0  22748462.089 0
  17431205.327 7 134030277.062 7  24292692.799 0  24292694.858 0
 88  2 24 11 32 29.0800000  0  3  3 13 12
 -16219505.621 7  72080406.884 6  20982003.252 0  20982004.923 0
   7075634.148 7  61478843.834 7  22757112.078 0  22757114.906 0
  17537267.691 6 134112923.038 7  24312874.856 0  24312878.040 0
 88  2 24 11 32 59.0800000  0  3  3 13 12
 -16234655.736 7  72068601.588 7  20979120.811 0  20979121.162 0
   7121189.294 7  61514341.339 7  22765781.784 0  22765783.188 0
  17643288.316 7 134195536.519 7  24333049.797 0  24333052.980 0
 88  2 24 11 33 29.0800000  0  3  3 13 12
 -16249685.168 7  72056890.351 7  20976260.776 0  20976260.203 0
   7166829.684 7  61549905.258 7  22774467.262 0  22774469.438 0
  17749264.004 6 134278114.948 6  24353216.418 0  24353220.613 0
 88  2 24 11 33 59.0800000  0  3  3 13 12
 -16264593.426 7  72045273.522 7  20973423.520 0  20973424.567 0
   7212555.474 7  61585535.741 7  22783168.476 0  22783170.795 0
  17855191.499 6 134360655.798 6  24373374.592 0  24373378.813 0
 88  2 24 11 34 29.0800000  0  3  3 13 12
 -16279379.574 7  72033751.852 6  20970610.881 0  20970609.994 0
   7258367.111 7  61621233.118 7  22791886.271 0  22791888.514 0
  17961066.931 6 134443156.113 6  24393522.646 0  24393524.248 0
 88  2 24 11 34 59.0800000  0  3  3 13 12
 -16294042.880 7  72022325.889 6  20967820.190 0  20967819.751 0
   7304265.326 7  61656997.959 7  22800620.944 0  22800622.129 0
  18066887.734 6 134525613.868 6  24413659.567 0  24413661.260 0
 88  2 24 11 35 29.0800000  0  3  3 13 12
 -16308583.135 7  72010995.807 7  20965052.792 0  20965052.765 0
   7350250.591 7  61692830.611 7  22809371.104 0  22809372.483 0
  18172650.761 7 134608026.626 5  24433786.419 0  24433787.051 0
 88  2 24 11 35 59.0800000  0  3  3 13 12
 -16322999.906 7  71999761.953 6  20962309.289 0  20962310.773 0
   7396323.754 7  61728731.777 7  22818138.939 0  22818139.957 0
  18278352.619 8 134690391.706 6  24453900.355 0  24453902.675 0
 88  2 24 11 36 29.0800000  0  2  3 13
 -16337292.174 7  71988625.124 7  20959589.604 0  20959589.925 0
   7442485.174 7  61764701.707 6  22826923.038 0  22826924.685 0
 88  2 24 11 36 59.0800000  0  2  3 13
 -16351458.251 7  71977586.626 6  20956892.493 0  20956894.269 0
   7488736.205 7  61800741.475 7  22835724.762 0  22835725.965 0
 88  2 24 11 37 29.0800000  0  2  3 13
 -16365498.180 7  71966646.426 6  20954222.345 0  20954223.443 0
   7535077.349 8  61836851.449 7  22844543.108 0  22844543.654 0
 88  2 24 11 37 59.0800000  0  2  3 13
 -16379411.192 7  71955805.123 7  20951574.547 0  20951574.934 0
   7581508.850 7  61873031.834 7  22853378.876 0  22853379.832 0
 88  2 24 11 38 29.0800000  0  2  3 13
 -16393196.582 7  71945063.276 7  20948952.170 0  20948951.217 0
   7628031.285 7  61909283.091 7  22862231.792 0  22862232.557 0
 88  2 24 11 38 59.0800000  0  2  3 13
 -16406853.505 7  71934421.517 6  20946352.993 0  20946352.888 0
   7674646.052 7  61945606.270 7  22871102.294 0  22871103.636 0
 88  2 24 11 39 29.0800000  0  2  3 13
 -16420381.242 7  71923880.408 6  20943778.014 0  20943778.595 0
   7721352.888 7  61982001.195 7  22879990.211 0  22879990.898 0
 88  2 24 11 39 59.0800000  0  2  3 13
 -16433779.203 7  71913440.434 7  20941229.609 0  20941229.744 0
   7768152.793 7  62018468.652 7  22888894.964 0  22888897.356 0
 88  2 24 11 40 29.0800000  0  2  3 13
 -16447046.136 7  71903102.563 6  20938702.722 0  20938705.545 0
   7815046.682 7  62055009.342 7  22897819.353 0  22897820.002 0
 88  2 24 11 40 59.0800000  0  2  3 13
 -16460181.263 7  71892867.398 7  20936203.912 0  20936205.926 0
   7862035.458 7  62091623.962 7  22906760.731 0  22906762.630 0
 88  2 24 11 41 29.0800000  0  2  3 13
 -16473184.256 7  71882735.208 6  20933729.597 0  20933732.557 0
   7909119.074 7  62128312.484 7  22915721.408 0  22915722.267 0
 88  2 24 11 41 59.0800000  0  2  3 13
 -16486054.252 7  71872706.651 7  20931281.334 0  20931282.063 0
   7956298.523 7  62165075.687 8  22924698.162 0  22924700.091 0
 88  2 24 11 42 29.0800000  0  2  3 13
 -16498790.097 7  71862782.631 7  20928858.424 0  20928858.925 0
   8003574.600 7  62201914.180 7  22933695.410 0  22933696.810 0
 88  2 24 11 42 59.0800000  0  2  3 13
 -16511391.216 7  71852963.581 7  20926459.735 0  20926460.507 0
   8050948.114 7  62238828.599 7  22942709.576 0  22942711.859 0
 88  2 24 11 43 29.0800000  0  2  3 13
 -16523856.677 7  71843250.220 7  20924088.369 0  20924089.626 0
   8098419.249 8  62275819.080 7  22951743.617 0  22951744.495 0
 88  2 24 11 43 59.0800000  0  2  3 13
 -16536185.786 7  71833643.133 7  20921741.712 0  20921741.393 0
   8145989.299 7  62312886.638 7  22960795.495 0  22960796.850 0
 88  2 24 11 44 29.0800000  0  2  3 13
 -16548377.459 7  71824143.132 7  20919421.279 0  20919422.957 0
   8193658.546 7  62350031.505 7  22969866.182 0  22969868.296 0
 88  2 24 11 44 59.0800000  0  2  3 13
 -16560430.683 7  71814751.000 6  20917128.028 0  20917129.177 0
   8241427.848 7  62387254.321 7  22978956.810 0  22978958.443 0
 88  2 24 11 45 29.0800000  0  2  3 13
 -16572345.314 7  71805466.882 6  20914860.351 0  20914861.248 0
   8289298.043 7  62424555.766 7  22988065.441 0  22988068.050 0
 88  2 24 11 45 59.0800000  0  2  3 13
 -16584119.662 7  71796292.076 7  20912620.312 0  20912619.905 0
   8337269.436 7  62461936.058 6  22997195.566 0  22997197.037 0
 88  2 24 11 46 29.0800000  0  2  3 13
 -16595752.776 7  71787227.314 7  20910406.564 0  20910407.454 0
   8385343.445 7  62499396.313 6  23006343.198 0  23006344.640 0
 88  2 24 11 46 59.0800000  0  2  3 13
 -16607244.593 7  71778272.650 7  20908219.428 0  20908220.462 0
   8433520.120 7  62536936.559 7  23015510.697 0  23015513.500 0
 88  2 24 11 47 29.0800000  0  2  3 13
 -16618594.038 7  71769428.929 7  20906060.868 0  20906059.599 0
   8481800.015 7  62574557.249 7  23024697.110 0  23024699.960 0
 88  2 24 11 47 59.0800000  0  2  3 13
 -16629799.465 7  71760697.419 7  20903926.617 0  20903929.144 0
   8530184.100 7  62612259.122 7  23033904.134 0  23033907.220 0
 88  2 24 11 48 29.0800000  0  2  3 13
 -16640860.089 7  71752078.761 7  20901822.717 0  20901823.338 0
   8578673.588 7  62650043.125 7  23043132.277 0  23043134.837 0
 88  2 24 11 48 59.0800000  0  2  3 13
 -16651775.669 7  71743573.113 7  20899745.222 0  20899746.298 0
   8627268.264 7  62687909.096 7  23052379.041 0  23052381.541 0
 88  2 24 11 49 29.0800000  0  2  3 13
 -16662544.948 7  71735181.469 6  20897697.504 0  20897697.741 0
   8675969.195 7  62725857.852 7  23061647.357 0  23061648.601 0
 88  2 24 11 49 59.0800000  0  2  3 13
 -16673166.787 7  71726904.720 6  20895674.776 0  20895674.920 0
   8724777.034 7  62763889.935 7  23070934.546 0  23070936.669 0
 88  2 24 11 50 29.0800000  0  2  3 13
 -16683640.317 8  71718743.518 7  20893681.618 0  20893683.411 0
   8773692.622 7  62802005.975 7  23080243.612 0  23080244.050 0
 88  2 24 11 50 59.0800000  0  2  3 13
 -16693964.748 7  71710698.509 7  20891716.979 0  20891717.312 0
   8822716.613 8  62840206.472 7  23089572.114 0  23089574.140 0
 88  2 24 11 51 29.0800000  0  2  3 13
 -16704139.068 7  71702770.479 7  20889781.372 0  20889780.674 0
   8871849.896 8  62878492.156 7  23098922.459 0  23098923.668 0
 88  2 24 11 51 59.0800000  0  2  3 13
 -16714162.140 7  71694960.299 7  20887874.282 0  20887873.099 0
   8921093.400 7  62916863.691 6  23108293.602 0  23108294.145 0
 88  2 24 11 52 29.0800000  0  2  3 13
 -16724033.044 8  71687268.695 7  20885995.781 0  20885996.685 0
   8970447.556 7  62955321.471 7  23117685.893 0  23117685.844 0
 88  2 24 11 52 59.0800000  0  2  3 13
 -16733751.016 7  71679696.237 6  20884146.767 0  20884146.944 0
   9019912.710 7  62993865.740 7  23127097.232 0  23127099.114 0
 88  2 24 11 53 29.0800000  0  2  3 13
 -16743314.683 8  71672244.031 6  20882326.552 0  20882327.044 0
   9069490.033 7  63032497.429 7  23136532.006 0  23136534.277 0
 88  2 24 11 53 59.0800000  0  2  3 13
 -16752722.946 8  71664912.907 6  20880535.216 0  20880537.193 0
   9119180.064 7  63071216.930 7  23145987.414 0  23145989.345 0
 88  2 24 11 54 29.0800000  0  2  3 13
 -16761974.988 7  71657703.542 7  20878775.354 0  20878776.692 0
   9168982.959 7  63110024.361 6  23155464.738 0  23155464.974 0
 88  2 24 11 54 59.0800000  0  2  3 13
 -16771070.137 7  71650616.418 7  20877044.394 0  20877045.999 0
   9218899.657 7  63148920.478 6  23164964.041 0  23164965.566 0
 88  2 24 11 55 29.0800000  0  2  3 13
 -16780007.125 7  71643652.537 7  20875343.689 0  20875344.617 0
   9268931.469 7  63187906.301 7  23174484.406 0  23174486.519 0
 88  2 24 11 55 59.0800000  0  2  3 13
 -16788784.649 7  71636812.913 7  20873674.715 0  20873673.777 0
   9319078.602 7  63226981.982 6  23184027.605 0  23184027.442 0
 88  2 24 11 56 29.0800000  0  2  3 13
 -16797402.159 7  71630097.964 7  20872033.367 0  20872034.230 0
   9369342.432 7  63266148.591 7  23193593.370 0  23193593.444 0
 88  2 24 11 56 59.0800000  0  2  3 13
 -16805858.360 7  71623508.710 6  20870424.037 0  20870425.655 0
   9419722.923 7  63305406.119 7  23203178.799 0  23203180.181 0
 88  2 24 11 57 29.0800000  0  2  3 13
 -16814152.176 7  71617046.007 7  20868846.019 0  20868846.336 0
   9470221.305 7  63344755.491 6  23212788.519 0  23212789.536 0
 88  2 24 11 57 59.0800000  0  2  3 13
 -16822282.185 7  71610710.947 7  20867299.764 0  20867300.073 0
   9520837.852 7  63384196.949 6  23222420.349 0  23222421.822 0
 88  2 24 11 58 29.0800000  0  2  3 13
 -16830247.793 8  71604503.974 7  20865783.444 0  20865784.583 0
   9571573.451 6  63423731.169 7  23232074.589 0  23232076.905 0
 88  2 24 11 58 59.0800000  0  2  3 13
 -16838047.471 7  71598426.294 7  20864299.459 0  20864299.553 0
   9622428.738 7  63463358.654 6  23241752.266 0  23241754.583 0
 88  2 24 11 59 29.0800000  0  2  3 13
 -16845680.172 8  71592478.742 7  20862846.939 0  20862847.857 0
   9673404.674 6  63503080.128 7  23251452.940 0  23251454.245 0
 88  2 24 11 59 59.0800000  0  2  3 13
 -16853145.372 7  71586661.706 7  20861426.632 0  20861426.869 0
   9724501.991 6  63542896.213 7  23261176.842 0  23261179.332 0
 88  2 24 12  0 29.0800000  0  2  3 13
 -16860441.553 7  71580976.363 7  20860037.892 0  20860038.041 0
   9775721.240 7  63582807.288 7  23270921.763 0  23270924.493 0
 88  2 24 12  0 59.0800000  0  2  3 13
 -16867567.799 7  71575423.442 7  20858681.977 0  20858682.130 0
   9827062.969 7  63622813.819 7  23280693.300 0  23280695.120 0
 88  2 24 12  1 29.0800000  0  2  3 13
 -16874522.804 7  71570003.951 7  20857358.520 0  20857358.245 0
   9878528.194 7  63662916.578 7  23290487.266 0  23290489.567 0
 88  2 24 12  1 59.0800000  0  2  3 13
 -16881305.666 7  71564718.614 7  20856067.798 0  20856068.023 0
   9930117.254 7  63703115.803 7  23300303.956 0  23300305.533 0
 88  2 24 12  2 29.0800000  0  2  3 13
 -16887915.130 7  71559568.361 7  20854809.820 0  20854811.082 0
   9981830.763 6  63743412.018 7  23310143.987 0  23310147.037 0
 88  2 24 12  2 59.0800000  0  2  3 13
 -16894349.858 7  71554554.295 7  20853584.381 0  20853585.127 0
  10033670.233 7  63783806.408 6  23320008.597 0  23320011.065 0
 88  2 24 12  3 29.0800000  0  2  3 13
 -16900608.640 7  71549677.319 7  20852394.913 0  20852394.319 0
  10085636.301 7  63824299.438 7  23329898.432 0  23329899.592 0
 88  2 24 12  3 59.0800000  0  2  3 13
 -16906690.874 8  71544937.914 6  20851236.239 0  20851237.965 0
  10137728.996 7  63864891.131 7  23339811.988 0  23339812.796 0
 88  2 24 12  4 29.0800000  0  2  3 13
 -16912595.021 7  71540337.277 7  20850113.046 0  20850113.136 0
  10189948.889 7  63905581.955 7  23349748.551 0  23349750.314 0
 88  2 24 12  4 59.0800000  0  2  3 13
 -16918319.554 7  71535876.600 7  20849023.862 0  20849025.106 0
  10242297.214 7  63946372.850 7  23359709.388 0  23359712.255 0
 88  2 24 12  5 29.0800000  0  2  3 13
 -16923864.138 7  71531556.138 7  20847968.668 0  20847968.563 0
  10294774.632 7  63987264.341 6  23369695.199 0  23369698.248 0
 88  2 24 12  5 59.0800000  0  2  3 13
 -16929227.248 7  71527377.096 7  20846947.502 0  20846949.396 0
  10347381.493 7  64028256.700 6  23379707.171 0  23379707.491 0
 88  2 24 12  6 29.0800000  0  2  3 13
 -16934407.805 7  71523340.297 7  20845961.947 0  20845963.410 0
  10400118.501 8  64069350.470 6  23389742.492 0  23389742.535 0
 88  2 24 12  6 59.0800000  0  2  3 13
 -16939404.249 7  71519446.968 7  20845010.776 0  20845011.846 0
  10452987.409 7  64110547.027 7  23399802.773 0  23399804.466 0
 88  2 24 12  7 29.0800000  0  2  3 13
 -16944215.859 7  71515697.662 7  20844095.138 0  20844096.481 0
  10505988.339 7  64151846.455 7  23409889.495 0  23409890.529 0
 88  2 24 12  7 59.0800000  0  2  3 13
 -16948841.201 7  71512093.505 7  20843215.805 0  20843217.251 0
  10559121.478 7  64193248.918 6  23420000.115 0  23420000.561 0
 88  2 24 12  8 29.0800000  0  2  3 13
 -16953278.477 7  71508635.880 7  20842370.987 0  20842372.309 0
  10612387.270 7  64234754.730 6  23430135.639 0  23430137.520 0
 88  2 24 12  8 59.0800000  0  2  3 13
 -16957526.809 7  71505325.498 7  20841563.055 0  20841563.946 0
  10665787.234 7  64276365.098 7  23440298.203 0  23440299.659 0
 88  2 24 12  9 29.0800000  0  2  3 13
 -16961585.506 7  71502162.876 7  20840790.363 0  20840791.294 0
  10719321.619 7  64318080.203 7  23450485.436 0  23450487.392 0
 88  2 24 12  9 59.0800000  0  2  3 13
 -16965453.414 7  71499148.921 7  20840054.064 0  20840055.168 0
  10772991.175 7  64359900.652 7  23460699.229 0  23460699.670 0
 88  2 24 12 10 29.0800000  0  2  3 13
 -16969128.802 8  71496284.987 7  20839355.085 0  20839356.765 0
  10826796.552 7  64401826.901 7  23470936.221 0  23470938.710 0
 88  2 24 12 10 59.0800000  0  2  3 13
 -16972610.321 7  71493572.106 7  20838692.622 0  20838694.600 0
  10880738.370 7  64443859.483 7  23481202.470 0  23481203.136 0
 88  2 24 12 11 29.0800000  0  2  3 13
 -16975897.486 7  71491010.671 7  20838066.474 0  20838068.961 0
  10934817.854 6  64485999.339 6  23491493.267 0  23491494.814 0
 88  2 24 12 11 59.0800000  0  2  3 13
 -16978988.474 8  71488602.124 7  20837478.627 0  20837480.145 0
  10989035.179 7  64528246.602 7  23501808.717 0  23501811.263 0
 88  2 24 12 12 29.0800000  0  2  3 13
 -16981882.103 7  71486347.354 6  20836928.830 0  20836928.830 0
  11043391.108 7  64570601.853 7  23512153.550 0  23512155.852 0
 88  2 24 12 12 59.0800000  0  2  3 13
 -16984577.089 7  71484247.374 7  20836416.505 0  20836415.949 0
  11097886.459 7  64613065.750 7  23522523.041 0  23522524.825 0
 88  2 24 12 13 29.0800000  0  2  3 13
 -16987072.381 7  71482302.981 7  20835940.461 0  20835941.325 0
  11152521.996 6  64655638.872 6  23532920.912 0  23532920.825 0
 88  2 24 12 13 59.0800000  0  2  3 13
 -16989366.853 7  71480515.084 7  20835503.379 0  20835505.048 0
  11207297.784 6  64698321.288 7  23543343.780 0  23543345.235 0
 88  2 24 12 14 29.0800000  0  2  3 13
 -16991459.036 7  71478884.802 7  20835106.031 0  20835106.826 0
  11262214.694 6  64741113.667 7  23553793.450 0  23553794.523 0
 88  2 24 12 14 59.0800000  0  2  3 13
 -16993347.500 7  71477413.277 7  20834747.271 0  20834746.908 0
  11317273.309 7  64784016.466 7  23564271.916 0  23564272.498 0
 88  2 24 12 15 29.0800000  0  2  3 13
 -16995030.983 7  71476101.474 7  20834426.825 0  20834427.363 0
  11372474.477 7  64827030.354 7  23574775.050 0  23574777.097 0
